[[{"header":{"parameterUnit":"m.s-1","parameterCategory":1,"la1":30.6,"la2":29.2853,"lo1":-89.7004,"lo2":-87.6739,"dy":0.0162,"dx":0.0183,"nx":112,"ny":82,"refTime":"2024-04-18T12:00:00:Z","depth":0,"parameterNumber":2,"parameterNumberName":"U-component_of_WINDS"},"data":[0.0,0.0,0.0,0.0,0.0,0.0,0.0,0.0,0.0,0.0,0.0,0.0,0.0,0.0,0.0,0.0,0.0,0.0,0.0,0.0,0.0,0.0,0.0,0.0,0.0,0.0,0.0,0.0,0.0,0.0,0.0,0.0,0.0,0.0,0.0,0.0,0.0,0.0,0.0,0.0,0.0,0.0,0.0,0.0,0.0,0.0,0.0,0.0,0.0,0.0,0.0,0.0,0.0,0.0,0.0,0.0,0.0,0.0,0.0,0.0,0.0,0.0,0.0,0.0,0.0,0.0,0.0,0.0,0.0,0.0,0.0,0.0,0.0,0.0,0.0,0.0,0.0,0.0,0.0,0.0,0.0,0.0,0.0,0.0,0.0,0.0,0.0,0.0,0.0,0.0,0.0,5.862,6.0462,6.1401,6.1534,6.1502,6.0105,5.6797,0.0,0.0,0.0,0.0,0.0,0.0,0.0,0.0,0.0,0.0,0.0,0.0,0.0,0.0,0.0,0.0,0.0,0.0,0.0,0.0,0.0,0.0,0.0,0.0,0.0,0.0,0.0,0.0,0.0,0.0,0.0,0.0,0.0,0.0,0.0,0.0,0.0,0.0,0.0,0.0,0.0,0.0,0.0,0.0,0.0,0.0,0.0,0.0,0.0,0.0,0.0,0.0,0.0,0.0,0.0,0.0,0.0,0.0,0.0,0.0,0.0,0.0,0.0,0.0,0.0,0.0,0.0,0.0,0.0,0.0,0.0,0.0,0.0,0.0,0.0,0.0,0.0,0.0,0.0,0.0,0.0,0.0,0.0,0.0,0.0,0.0,0.0,0.0,0.0,0.0,0.0,0.0,0.0,0.0,0.0,0.0,0.0,0.0,0.0,0.0,0.0,0.0,0.0,0.0,5.6883,6.0663,6.1323,6.152,6.1679,6.1563,6.0085,5.6796,0.0,0.0,0.0,0.0,0.0,0.0,0.0,0.0,0.0,0.0,0.0,0.0,0.0,0.0,0.0,0.0,0.0,0.0,0.0,0.0,0.0,0.0,0.0,0.0,0.0,0.0,0.0,0.0,0.0,0.0,0.0,0.0,0.0,0.0,0.0,0.0,0.0,0.0,0.0,0.0,0.0,0.0,0.0,0.0,0.0,0.0,0.0,0.0,0.0,0.0,0.0,0.0,0.0,0.0,0.0,0.0,0.0,0.0,0.0,0.0,0.0,0.0,0.0,0.0,0.0,0.0,0.0,0.0,0.0,0.0,0.0,0.0,0.0,0.0,0.0,0.0,0.0,0.0,0.0,0.0,0.0,0.0,0.0,0.0,0.0,0.0,0.0,0.0,0.0,0.0,0.0,0.0,0.0,0.0,0.0,0.0,0.0,0.0,0.0,0.0,0.0,0.0,0.0,5.6115,5.9311,6.0935,6.1189,6.1302,6.1479,6.1481,6.0075,5.6686,5.6124,0.0,0.0,0.0,0.0,0.0,0.0,0.0,0.0,0.0,0.0,0.0,0.0,0.0,0.0,0.0,0.0,0.0,0.0,0.0,0.0,0.0,0.0,0.0,0.0,0.0,0.0,0.0,0.0,0.0,0.0,0.0,0.0,0.0,0.0,0.0,0.0,0.0,0.0,0.0,0.0,0.0,0.0,0.0,0.0,0.0,0.0,0.0,0.0,0.0,0.0,0.0,0.0,0.0,0.0,0.0,0.0,0.0,0.0,0.0,0.0,0.0,0.0,0.0,0.0,0.0,0.0,0.0,0.0,0.0,0.0,0.0,0.0,0.0,0.0,0.0,0.0,0.0,0.0,0.0,0.0,0.0,0.0,0.0,0.0,0.0,0.0,0.0,0.0,0.0,0.0,0.0,0.0,0.0,0.0,0.0,0.0,0.0,0.0,0.0,0.0,0.0,0.0,5.8219,6.0165,6.0781,6.0935,6.1098,6.1292,6.135,5.9931,5.6592,5.6309,0.0,0.0,0.0,0.0,0.0,0.0,0.0,0.0,0.0,0.0,0.0,0.0,0.0,0.0,0.0,0.0,0.0,0.0,0.0,0.0,0.0,0.0,0.0,0.0,0.0,0.0,0.0,0.0,0.0,0.0,0.0,0.0,0.0,0.0,0.0,0.0,0.0,0.0,0.0,0.0,0.0,0.0,0.0,0.0,0.0,0.0,0.0,0.0,0.0,0.0,0.0,0.0,0.0,0.0,0.0,0.0,0.0,0.0,0.0,0.0,0.0,0.0,0.0,0.0,0.0,0.0,0.0,0.0,0.0,0.0,0.0,0.0,0.0,0.0,0.0,0.0,0.0,0.0,0.0,0.0,0.0,0.0,0.0,0.0,0.0,0.0,0.0,0.0,0.0,0.0,0.0,0.0,0.0,0.0,0.0,0.0,0.0,0.0,0.0,0.0,0.0,0.0,5.6626,5.8242,6.0704,6.0973,6.1098,6.1292,6.1157,5.9669,5.6414,5.6029,0.0,0.0,0.0,0.0,0.0,0.0,0.0,0.0,0.0,0.0,0.0,0.0,0.0,0.0,0.0,0.0,0.0,0.0,0.0,0.0,0.0,0.0,0.0,0.0,0.0,0.0,0.0,0.0,0.0,0.0,0.0,0.0,0.0,0.0,0.0,0.0,0.0,0.0,0.0,0.0,0.0,0.0,0.0,0.0,0.0,0.0,0.0,0.0,0.0,0.0,0.0,0.0,0.0,0.0,0.0,0.0,0.0,0.0,0.0,0.0,0.0,0.0,0.0,0.0,0.0,0.0,0.0,0.0,0.0,0.0,0.0,0.0,0.0,0.0,0.0,0.0,0.0,0.0,0.0,0.0,0.0,0.0,0.0,0.0,0.0,0.0,0.0,0.0,0.0,0.0,0.0,0.0,0.0,0.0,0.0,0.0,0.0,0.0,0.0,0.0,0.0,0.0,5.7857,5.9742,0.0,6.0935,6.1026,6.1119,6.1147,5.9699,5.63,0.0,0.0,0.0,0.0,0.0,0.0,0.0,0.0,0.0,0.0,0.0,0.0,0.0,0.0,0.0,0.0,0.0,0.0,0.0,0.0,0.0,0.0,0.0,0.0,0.0,0.0,0.0,0.0,0.0,0.0,0.0,0.0,0.0,0.0,0.0,0.0,0.0,0.0,0.0,0.0,0.0,0.0,0.0,0.0,0.0,0.0,0.0,0.0,0.0,0.0,0.0,0.0,0.0,0.0,0.0,0.0,0.0,0.0,0.0,0.0,0.0,0.0,0.0,0.0,0.0,0.0,0.0,0.0,0.0,0.0,0.0,0.0,0.0,0.0,0.0,0.0,0.0,0.0,0.0,0.0,0.0,0.0,0.0,0.0,0.0,0.0,0.0,0.0,0.0,0.0,0.0,0.0,0.0,0.0,0.0,0.0,0.0,0.0,0.0,0.0,0.0,0.0,5.6434,5.9281,6.132,0.0,6.1666,6.1743,6.1743,6.1627,6.0073,5.6554,0.0,0.0,0.0,0.0,0.0,0.0,0.0,0.0,0.0,0.0,0.0,0.0,0.0,0.0,0.0,0.0,0.0,0.0,0.0,0.0,0.0,0.0,0.0,0.0,0.0,0.0,0.0,0.0,0.0,0.0,0.0,0.0,0.0,0.0,0.0,0.0,0.0,0.0,0.0,0.0,0.0,0.0,0.0,0.0,0.0,0.0,0.0,0.0,0.0,0.0,0.0,0.0,0.0,0.0,0.0,0.0,0.0,0.0,0.0,0.0,0.0,0.0,0.0,0.0,0.0,0.0,0.0,0.0,0.0,0.0,0.0,0.0,0.0,0.0,0.0,0.0,0.0,0.0,0.0,0.0,0.0,0.0,0.0,0.0,0.0,0.0,0.0,0.0,0.0,0.0,0.0,0.0,0.0,0.0,0.0,0.0,0.0,0.0,0.0,0.0,0.0,0.0,5.8088,6.0512,6.2397,6.3243,6.332,6.332,6.332,6.2551,6.0627,0.0,0.0,0.0,0.0,0.0,0.0,0.0,0.0,0.0,0.0,0.0,0.0,0.0,0.0,0.0,0.0,0.0,0.0,0.0,0.0,0.0,0.0,0.0,0.0,0.0,0.0,0.0,0.0,0.0,0.0,0.0,0.0,0.0,0.0,0.0,0.0,0.0,0.0,0.0,0.0,0.0,0.0,0.0,0.0,0.0,0.0,0.0,0.0,0.0,0.0,0.0,0.0,0.0,0.0,0.0,0.0,0.0,0.0,0.0,0.0,0.0,0.0,0.0,0.0,0.0,0.0,0.0,0.0,0.0,0.0,0.0,0.0,0.0,0.0,0.0,0.0,0.0,0.0,0.0,0.0,0.0,0.0,0.0,0.0,0.0,0.0,0.0,0.0,0.0,0.0,0.0,0.0,0.0,0.0,0.0,0.0,0.0,0.0,0.0,0.0,0.0,0.0,0.0,5.8242,6.1012,6.3051,6.3281,6.332,6.332,6.332,6.3089,6.1243,5.7242,0.0,0.0,0.0,0.0,0.0,0.0,0.0,0.0,0.0,0.0,0.0,0.0,0.0,0.0,0.0,0.0,0.0,0.0,0.0,0.0,0.0,0.0,0.0,0.0,0.0,0.0,0.0,0.0,0.0,0.0,0.0,0.0,0.0,0.0,0.0,0.0,0.0,0.0,0.0,0.0,0.0,0.0,0.0,0.0,0.0,0.0,0.0,0.0,0.0,0.0,0.0,0.0,0.0,0.0,0.0,0.0,0.0,0.0,0.0,0.0,0.0,0.0,0.0,0.0,0.0,0.0,0.0,0.0,0.0,0.0,0.0,0.0,0.0,0.0,0.0,0.0,0.0,0.0,0.0,0.0,0.0,0.0,0.0,0.0,0.0,0.0,0.0,0.0,0.0,0.0,0.0,0.0,0.0,0.0,0.0,0.0,0.0,0.0,0.0,0.0,0.0,0.0,5.8704,6.1743,6.3935,6.432,6.4359,6.4359,6.4359,6.4012,6.2435,5.9242,0.0,0.0,0.0,0.0,0.0,0.0,0.0,0.0,0.0,0.0,0.0,0.0,0.0,0.0,0.0,0.0,0.0,0.0,0.0,0.0,0.0,0.0,0.0,0.0,0.0,0.0,0.0,0.0,0.0,0.0,0.0,0.0,0.0,0.0,0.0,0.0,0.0,0.0,0.0,0.0,0.0,0.0,0.0,0.0,0.0,0.0,0.0,0.0,0.0,0.0,0.0,0.0,0.0,0.0,0.0,0.0,0.0,0.0,0.0,0.0,0.0,0.0,0.0,0.0,0.0,0.0,0.0,0.0,0.0,0.0,0.0,0.0,0.0,0.0,0.0,0.0,0.0,0.0,0.0,0.0,0.0,0.0,0.0,0.0,0.0,0.0,0.0,0.0,0.0,0.0,0.0,0.0,0.0,0.0,0.0,0.0,0.0,0.0,0.0,0.0,0.0,0.0,5.9319,6.2551,6.5013,6.582,6.5897,6.5897,6.5897,6.5166,6.3974,6.2204,0.0,0.0,0.0,0.0,0.0,0.0,0.0,0.0,0.0,0.0,0.0,0.0,0.0,0.0,0.0,0.0,0.0,0.0,0.0,0.0,0.0,0.0,0.0,0.0,0.0,0.0,0.0,0.0,0.0,0.0,0.0,0.0,0.0,0.0,0.0,0.0,0.0,0.0,0.0,0.0,0.0,0.0,0.0,0.0,0.0,0.0,0.0,0.0,0.0,0.0,0.0,0.0,0.0,0.0,0.0,0.0,0.0,0.0,0.0,0.0,5.3549,0.0,0.0,0.0,0.0,0.0,0.0,0.0,0.0,0.0,0.0,0.0,0.0,0.0,0.0,0.0,0.0,0.0,0.0,0.0,0.0,0.0,0.0,0.0,0.0,0.0,0.0,0.0,0.0,0.0,0.0,0.0,0.0,0.0,0.0,0.0,0.0,0.0,0.0,0.0,0.0,0.0,5.9435,6.3089,6.5705,6.5859,6.5897,6.5897,6.5897,6.5743,6.4589,6.2243,6.1243,0.0,0.0,0.0,0.0,0.0,0.0,0.0,0.0,0.0,0.0,0.0,0.0,0.0,0.0,0.0,0.0,0.0,0.0,0.0,0.0,0.0,0.0,0.0,0.0,0.0,0.0,0.0,0.0,0.0,0.0,0.0,0.0,0.0,0.0,0.0,0.0,0.0,0.0,0.0,0.0,0.0,0.0,0.0,0.0,0.0,0.0,0.0,0.0,0.0,0.0,0.0,0.0,0.0,0.0,0.0,0.0,0.0,0.0,0.0,0.0,5.3703,0.0,0.0,0.0,0.0,0.0,0.0,0.0,0.0,0.0,0.0,0.0,0.0,0.0,0.0,0.0,0.0,0.0,0.0,0.0,0.0,0.0,0.0,0.0,0.0,0.0,0.0,0.0,0.0,0.0,0.0,0.0,0.0,0.0,0.0,0.0,0.0,0.0,0.0,0.0,0.0,5.8934,6.3012,6.5897,6.5897,6.5897,6.5897,6.5897,6.5897,6.532,6.4012,6.2781,0.0,0.0,0.0,0.0,0.0,0.0,0.0,0.0,0.0,0.0,0.0,0.0,0.0,0.0,0.0,0.0,0.0,0.0,0.0,0.0,0.0,0.0,0.0,0.0,0.0,0.0,0.0,0.0,0.0,0.0,0.0,0.0,0.0,0.0,0.0,0.0,0.0,0.0,0.0,0.0,0.0,0.0,0.0,0.0,0.0,0.0,0.0,0.0,0.0,0.0,0.0,0.0,0.0,5.6126,5.6665,5.6819,5.6819,5.6434,5.5895,5.6819,5.755,5.7896,5.578,0.0,0.0,0.0,0.0,0.0,0.0,0.0,0.0,0.0,0.0,0.0,0.0,0.0,0.0,0.0,0.0,0.0,0.0,0.0,0.0,0.0,0.0,0.0,0.0,5.6588,5.6472,0.0,0.0,0.0,0.0,0.0,0.0,0.0,0.0,0.0,0.0,0.0,0.0,5.8511,6.3089,6.632,6.632,6.632,6.632,6.632,6.6205,6.609,6.609,6.4012,6.2858,0.0,0.0,0.0,0.0,0.0,0.0,0.0,0.0,0.0,0.0,0.0,0.0,0.0,0.0,0.0,0.0,0.0,0.0,0.0,0.0,0.0,0.0,0.0,0.0,0.0,0.0,0.0,0.0,0.0,0.0,0.0,0.0,5.0548,5.2779,0.0,0.0,0.0,0.0,0.0,0.0,0.0,0.0,0.0,0.0,0.0,0.0,0.0,5.428,5.4857,5.6819,5.7819,5.7819,5.9396,6.0512,6.1243,6.1243,6.1204,6.0973,5.8973,0.0,5.7126,5.6819,0.0,0.0,0.0,0.0,0.0,0.0,0.0,0.0,0.0,0.0,0.0,0.0,0.0,0.0,0.0,0.0,0.0,0.0,0.0,0.0,0.0,0.0,6.0819,6.1166,6.0089,5.9627,0.0,5.8088,5.5203,5.8242,5.7242,0.0,0.0,0.0,0.0,0.0,0.0,0.0,5.9358,6.4436,6.809,6.809,6.809,6.809,6.809,6.7359,6.6936,6.6936,6.5974,6.4436,6.2358,6.4166,0.0,0.0,0.0,0.0,0.0,0.0,0.0,0.0,0.0,0.0,0.0,0.0,0.0,0.0,0.0,0.0,0.0,0.0,0.0,0.0,0.0,0.0,0.0,0.0,0.0,0.0,0.0,0.0,0.0,5.1202,5.2856,5.4434,5.378,5.2741,0.0,0.0,0.0,0.0,0.0,0.0,0.0,0.0,0.0,5.4472,5.6319,5.7242,5.7165,5.9781,6.1358,6.1858,6.2589,6.3397,6.4243,6.4243,6.4243,6.4128,6.2551,6.1627,6.105,5.8165,5.7011,5.678,0.0,0.0,0.0,0.0,5.1548,5.2818,5.2818,5.4511,0.0,5.6472,0.0,0.0,0.0,0.0,0.0,0.0,0.0,0.0,0.0,0.0,6.1589,6.2551,6.2589,6.2666,6.3782,6.1243,5.9204,0.0,5.9665,5.8088,5.6665,0.0,0.0,0.0,0.0,6.2358,6.2358,6.5897,6.8398,6.8398,6.8398,6.8398,6.8398,6.8052,6.7821,6.7821,6.7051,6.6051,6.4936,6.5551,6.4166,0.0,0.0,0.0,0.0,0.0,0.0,0.0,0.0,0.0,0.0,0.0,0.0,0.0,0.0,0.0,0.0,0.0,0.0,0.0,0.0,0.0,0.0,0.0,0.0,0.0,0.0,0.0,0.0,5.3164,5.4395,5.5857,5.5126,5.4164,0.0,0.0,0.0,0.0,0.0,0.0,5.5742,5.6357,5.678,5.7088,5.9511,6.0627,6.0242,6.2704,6.4282,6.4936,6.4936,6.5397,6.6205,6.6205,6.6205,6.6167,6.5513,6.5128,6.4589,6.0358,5.8627,5.855,5.7896,5.6626,5.5126,5.4895,5.5357,5.6088,5.5857,5.7434,5.9473,5.8819,5.8742,5.8665,5.7126,0.0,0.0,0.0,0.0,5.7242,5.9819,6.1127,6.2089,6.3358,6.4474,6.5243,6.5243,6.4089,6.3051,0.0,6.2204,6.0819,5.8934,0.0,0.0,0.0,0.0,6.4936,6.4936,6.7359,6.9052,6.9052,6.9052,6.9052,6.9052,6.8859,6.8744,6.8744,6.7898,6.7321,6.709,6.6513,6.5205,6.3089,0.0,0.0,0.0,0.0,0.0,0.0,0.0,0.0,0.0,0.0,0.0,0.0,0.0,0.0,0.0,0.0,0.0,0.0,0.0,0.0,0.0,0.0,0.0,0.0,0.0,0.0,0.0,0.0,0.0,5.6549,5.7588,0.0,0.0,0.0,0.0,5.5511,5.5549,5.6703,5.9127,5.9281,6.0781,6.3974,6.4243,6.4705,6.5513,6.5705,6.5782,6.582,6.582,6.6244,6.7051,6.7051,6.7051,6.7051,6.6974,6.6551,6.5705,6.3782,6.2974,6.2743,6.0319,5.9781,6.0012,5.6819,5.7703,6.0358,5.955,6.0935,6.3051,6.3012,6.1935,6.005,5.6742,5.6242,0.0,0.0,5.7434,5.9358,5.9511,6.1973,6.4436,6.4512,6.5782,6.6974,6.6974,6.632,6.5705,0.0,6.4359,6.3128,6.3012,0.0,6.3551,6.0973,6.3589,6.582,6.582,6.8744,7.0783,7.0783,7.0783,7.0783,7.0783,7.0052,6.9629,6.9629,6.8821,6.7975,6.7128,6.7051,6.6628,6.5743,6.4089,0.0,0.0,0.0,0.0,0.0,0.0,0.0,0.0,0.0,0.0,0.0,0.0,0.0,0.0,0.0,0.0,0.0,0.0,0.0,0.0,0.0,0.0,0.0,0.0,0.0,0.0,0.0,0.0,5.8204,5.8434,0.0,5.7857,5.828,5.8473,5.8165,5.9665,6.1243,6.2704,6.2781,6.3589,6.5397,6.5936,6.6359,6.6667,6.7244,6.7782,6.8359,6.8359,6.8783,6.9552,6.9552,6.9552,6.9513,6.9013,6.859,6.8244,6.709,6.5936,6.4897,6.3974,6.3474,6.3089,6.1897,6.1858,6.2358,6.205,6.2551,6.332,6.332,6.2897,6.2166,6.0973,6.0819,6.1127,6.1358,6.2474,6.3743,6.4243,6.5705,6.7051,6.7051,6.7513,6.7936,6.7936,6.7705,6.7513,6.7513,6.6128,6.4974,6.4974,6.659,6.7205,6.5166,6.7282,6.9129,6.9129,7.0167,7.0898,7.0898,7.0898,7.0898,7.0898,7.0629,7.0475,7.0475,6.9706,6.909,6.8783,6.7705,6.6974,6.6667,6.5551,6.3743,0.0,0.0,0.0,0.0,0.0,0.0,0.0,0.0,0.0,0.0,0.0,0.0,0.0,0.0,0.0,0.0,0.0,0.0,0.0,0.0,0.0,0.0,0.0,0.0,0.0,0.0,5.6703,5.9204,5.955,5.9588,5.9588,6.0589,6.1204,6.1204,6.3051,6.4551,6.5397,6.5436,6.5974,6.7167,6.7705,6.809,6.8359,6.8936,6.9552,7.009,7.009,7.0398,7.0898,7.0898,7.0591,7.0052,7.009,6.9783,6.9244,6.9244,6.859,6.7513,6.6974,6.6397,6.5897,6.5897,6.5513,6.5013,6.5013,6.5013,6.5013,6.5013,6.5013,6.5013,6.5013,6.5013,6.5128,6.5705,6.632,6.6859,6.7398,6.7975,6.8398,6.8398,6.8629,6.8859,6.8859,6.8398,6.8205,6.909,6.8129,6.6898,6.6051,6.7513,6.8129,6.6128,6.7244,6.8359,6.8359,6.909,6.9629,6.9629,7.0398,7.0898,7.0898,7.009,6.9975,7.086,6.959,6.909,6.9667,6.7782,6.6551,6.6244,6.4589,6.2935,6.1243,0.0,0.0,0.0,0.0,0.0,0.0,0.0,0.0,0.0,0.0,0.0,0.0,0.0,0.0,0.0,0.0,0.0,0.0,0.0,0.0,0.0,0.0,0.0,5.3126,5.6203,5.8627,5.9511,6.1127,6.2166,6.2204,6.3705,6.4666,6.4666,6.5474,6.632,6.7128,6.7128,6.7898,6.9629,6.9667,7.0052,7.086,7.0898,7.0937,7.0975,7.0975,7.0975,7.0975,7.0975,7.009,6.8667,7.0244,7.0014,6.8629,7.0244,7.0898,7.0744,6.9129,6.8475,6.8436,6.8436,6.8436,6.8398,6.8321,6.8321,6.8398,6.8398,6.8398,6.8398,6.8398,6.8398,6.8398,6.8398,6.8436,6.8436,6.8436,6.8475,6.8475,6.8475,6.9129,6.9744,6.9744,6.8398,6.7936,7.0437,7.0283,6.8936,6.6474,6.6705,6.6359,6.3897,6.3551,0.0,6.3551,6.5705,6.7205,6.7205,6.936,7.0821,7.0898,6.8552,6.8167,7.0744,6.859,6.7975,6.9667,6.7321,6.559,6.4743,6.1396,6.0473,6.2127,0.0,0.0,0.0,0.0,0.0,0.0,0.0,0.0,0.0,0.0,0.0,0.0,0.0,0.0,0.0,0.0,0.0,0.0,0.0,0.0,0.0,5.4549,5.6626,5.6851,5.7703,5.9281,6.1935,6.3243,6.4166,6.4782,6.5782,6.6397,6.6397,6.7205,6.809,6.8936,6.7782,6.759,6.8744,6.8783,6.9167,7.0014,7.1245,7.2168,7.2783,7.2783,7.2783,7.2783,7.2783,7.2552,7.2091,7.1937,7.1591,7.1129,7.0975,7.0898,7.086,7.0398,6.986,6.936,6.936,6.8936,6.8129,6.6282,6.6859,6.8398,6.8398,6.8398,6.8398,6.8398,6.8398,6.8398,6.8398,6.8859,6.936,6.936,6.9783,7.0206,7.0206,7.0398,7.0552,7.0552,7.0206,7.0052,7.0744,7.0706,7.036,6.9629,6.9706,6.9629,6.8936,6.8821,0.0,6.8821,6.9436,6.986,6.986,6.8821,6.8898,7.0744,6.8552,6.8167,7.0744,7.0244,7.0052,7.0552,6.936,6.8244,6.7359,6.4628,6.3128,0.0,0.0,0.0,0.0,0.0,0.0,0.0,0.0,0.0,0.0,0.0,0.0,0.0,0.0,0.0,0.0,0.0,0.0,0.0,0.0,0.0,0.0,5.6007,5.8593,6.0326,6.0597,6.1416,6.3603,6.4897,6.5859,6.6359,6.7264,6.7803,6.7803,6.8608,6.9298,6.9864,6.947,6.9129,6.8936,6.9975,7.0437,7.0206,7.1898,7.3014,7.3514,7.3514,7.3514,7.3514,7.3514,7.3091,7.2437,7.2668,7.2322,7.1668,7.1898,7.1783,0.0,0.0,0.0,0.0,0.0,6.9898,6.9244,6.7744,6.8205,6.9436,6.9436,6.9436,6.9436,6.9436,6.8706,6.7859,6.7859,6.7436,6.7282,6.8321,6.8975,6.959,7.0667,7.0898,7.0898,7.0898,7.0052,6.9629,7.0706,7.0052,0.0,7.1206,7.0244,6.8936,6.7898,6.8013,6.8244,6.8244,6.9513,7.0398,7.0398,7.0014,7.0244,7.136,6.909,0.0,0.0,0.0,6.9321,6.9321,6.8859,0.0,0.0,0.0,6.3474,6.332,0.0,0.0,0.0,5.9281,5.7809,0.0,0.0,0.0,0.0,0.0,0.0,0.0,0.0,0.0,0.0,0.0,0.0,0.0,0.0,0.0,0.0,5.7105,5.905,6.327,6.4025,6.4374,6.4872,6.6346,6.7345,6.7422,6.8373,6.8917,6.8883,6.9718,7.0213,7.0141,0.0,0.0,0.0,0.0,7.2514,7.1052,7.2783,7.364,7.3688,7.3755,7.3755,7.3688,7.3755,7.2937,7.1552,7.3014,7.2745,7.1437,7.2899,7.3053,7.2245,7.1283,7.0898,7.086,7.0591,7.0667,7.086,7.0552,0.0,0.0,7.0898,7.0898,7.0898,7.0898,6.9321,6.7513,6.7513,6.5897,6.4666,6.6936,6.7513,6.809,7.036,7.0898,7.0898,7.0898,6.9129,6.8244,7.0591,6.9206,6.8667,7.1822,6.9744,6.6936,6.4782,6.5128,6.559,6.559,6.8244,7.0129,7.0129,0.0,0.0,7.2399,7.0014,6.9283,7.0937,6.8821,6.7513,6.7513,6.7513,6.6128,6.3128,6.3012,6.332,6.4012,6.3935,6.4666,6.609,6.2194,6.0426,0.0,0.0,0.0,0.0,0.0,0.0,0.0,0.0,0.0,0.0,0.0,0.0,0.0,0.0,0.0,5.7229,6.003,6.2653,6.3992,6.5602,6.6701,6.6968,6.7865,6.8776,6.9464,6.9742,6.969,6.9207,7.0343,7.0874,7.0455,7.0489,7.0386,7.0042,7.092,7.1591,7.1937,7.363,7.4566,7.4813,0.0,0.0,7.4813,7.5288,7.5322,7.4976,7.463,7.4284,7.3937,7.363,7.3399,7.3091,7.1514,7.0898,7.0667,6.859,6.9129,7.0591,6.8552,6.9167,7.0898,7.0898,7.0898,7.0898,7.0898,7.0552,0.0,7.0167,6.9821,6.9552,7.0052,7.0167,7.0283,7.0783,7.0898,7.0898,7.0898,7.0514,7.0514,7.1706,7.1552,7.1629,7.3014,7.2129,7.1283,7.1514,7.1668,7.1783,7.1783,7.236,7.2783,7.2783,7.136,7.1206,7.3091,7.0898,7.0167,7.1822,7.0821,7.0167,7.0167,7.0167,6.986,6.9206,6.8552,6.8321,6.8475,6.7782,6.759,6.7859,6.5705,6.4782,0.0,0.0,0.0,0.0,0.0,0.0,0.0,0.0,0.0,0.0,0.0,5.4112,5.4112,0.0,5.7854,5.9123,6.1137,6.3325,6.5421,6.6635,6.7411,6.777,6.8563,6.9246,6.9663,6.9472,6.934,6.9491,7.0127,7.0541,7.0683,7.1203,7.1142,7.0308,7.1785,7.2386,7.1929,7.368,7.4709,7.5091,7.5413,7.5551,7.5551,7.5848,7.6015,7.5976,7.5553,7.5361,7.5284,7.4437,7.4091,7.3976,7.2706,7.1937,7.1398,7.0129,7.0167,7.0706,6.9436,6.9821,7.0898,7.0898,7.0898,7.0898,7.0898,7.0014,6.9013,6.9013,6.809,6.7398,6.8667,6.9013,6.9321,7.0591,7.1245,7.1552,7.1552,7.1898,7.2322,7.2783,7.286,7.3129,7.3976,7.3745,7.3476,7.3514,7.386,7.4091,7.4091,7.4476,7.4745,7.4745,7.363,7.3206,7.4053,7.2552,7.1783,7.2168,7.1783,7.136,7.0937,7.0898,7.0898,7.0898,7.0514,7.009,6.9706,6.9244,6.8821,6.8398,6.7552,6.6936,0.0,0.0,0.0,0.0,0.0,0.0,0.0,0.0,5.4289,5.3959,5.4803,5.5611,5.5757,5.7005,5.8804,6.1366,6.2187,6.3628,6.6664,6.728,6.7505,6.7921,6.865,6.9148,6.9148,6.89,6.8948,6.9509,6.9904,7.0388,7.0907,7.2286,7.2454,7.1137,7.3301,7.3878,7.2439,7.4029,7.4918,7.5245,7.5361,7.5586,7.5982,7.6082,7.6108,7.6048,7.6024,7.6015,7.5938,7.5245,7.4938,7.4899,7.4245,7.3437,7.2668,7.2514,7.2014,7.1398,7.1206,7.1168,7.1129,7.0975,7.0898,7.0898,7.0898,6.9475,6.7821,6.7821,6.6474,6.5513,6.7552,6.8205,6.8859,7.0937,7.1937,7.2437,7.2437,7.3014,7.3553,7.3707,7.3745,7.4014,7.4822,7.4938,7.4745,7.4091,7.4553,7.4938,7.4938,7.5553,7.6015,7.6015,7.6015,7.5707,7.5014,7.4207,7.3437,7.2745,7.236,7.1898,7.1168,7.0975,7.0898,7.0898,7.0898,7.0591,6.9937,6.9937,6.959,6.8898,6.8744,6.8205,5.1683,4.9334,0.0,4.9627,5.1059,5.2123,0.0,0.0,5.8143,5.6712,5.818,5.9942,6.0639,6.152,6.2475,6.3603,6.4985,6.6124,6.6507,6.7169,6.7663,6.7715,6.8234,6.8567,6.8567,6.9192,6.9422,6.9024,7.0768,7.1672,7.125,7.2578,7.3268,7.3081,7.459,7.5274,7.5085,7.5984,7.6207,7.572,7.6253,7.63,7.582,7.6391,7.6493,7.627,7.6063,7.6015,7.5976,7.5899,7.5861,7.5861,7.5745,7.5207,7.4322,7.363,7.3283,7.3091,7.2322,7.2052,7.1937,7.1168,7.0898,7.0898,7.0898,7.0706,7.0475,7.0475,7.0821,7.1283,7.1552,7.2206,7.286,7.3129,7.3283,7.336,7.336,7.3437,7.3707,7.4437,7.4591,7.4861,7.5707,7.5861,7.5822,7.5745,7.5784,7.5861,7.5861,7.5938,7.6015,7.6015,7.6015,7.5976,7.5861,7.5053,7.4514,7.4437,7.3014,7.2168,7.2052,7.1321,7.0898,7.0898,7.0898,7.086,7.0783,7.0783,7.0706,7.0591,6.9898,6.909,5.1977,0.0,0.0,0.0,5.4987,5.6895,5.6895,5.8437,5.9832,5.9648,6.0786,6.2071,6.2879,6.3319,6.398,0.0,6.5668,6.6145,6.7063,6.7467,6.7687,6.7687,6.7067,6.6629,6.6629,6.8181,6.8963,6.8238,7.0347,7.1711,7.1982,7.2558,7.3056,7.3536,7.4158,7.4673,7.5118,7.549,7.5692,7.5813,7.6069,7.6268,7.6327,7.6563,7.6646,7.652,7.6424,7.6311,7.6174,7.6174,7.6108,7.6015,7.6015,7.5784,7.5361,7.4514,7.3899,7.3437,7.3091,7.2976,7.2899,7.2552,7.2399,7.2399,7.2399,7.2399,7.2399,7.2399,7.2668,7.2976,7.2976,7.3245,7.3514,7.3514,7.386,7.4207,7.4207,7.4591,7.5053,7.5399,7.5476,7.5553,7.5938,7.6015,7.6015,7.6015,7.6015,7.6015,7.6015,7.6015,7.6015,7.6015,7.6015,7.6015,7.6015,7.5668,7.5245,7.4745,7.4053,7.3206,7.2245,7.186,7.1398,7.0898,7.0898,7.0898,7.0898,7.0898,7.0898,7.0898,7.0552,7.0206,5.2747,0.0,0.0,5.6271,5.785,5.9722,6.0823,6.108,6.1374,6.2401,6.3099,6.3759,6.4604,6.4751,6.5228,6.6623,6.6329,6.6366,6.754,6.7687,6.754,6.71,6.6219,6.5301,6.4383,6.688,6.8605,6.8678,7.0513,7.1908,7.2459,7.2716,7.3083,7.367,7.4111,7.4625,7.5249,7.5469,7.5801,7.6235,7.6235,7.6468,7.6893,7.6777,7.6761,7.6761,7.6722,7.6582,7.6386,7.6386,7.6312,7.6207,7.6108,7.6063,7.6018,7.5302,7.4707,7.4168,7.3899,7.3822,7.3783,7.3591,7.3514,7.3514,7.3514,7.3514,7.3514,7.3514,7.3668,7.3822,7.3822,7.4014,7.4207,7.4207,7.463,7.5053,7.5053,7.5553,7.6015,7.6015,7.6015,7.6015,7.6015,7.6015,7.6015,7.6015,7.6207,7.6284,7.6015,7.6015,7.6015,7.6015,7.6015,7.6015,7.6015,7.6015,7.5745,7.5091,7.4822,7.4168,7.2937,7.2437,7.1898,7.1283,7.1014,7.0898,7.0898,7.0898,7.0898,7.0898,7.0898,7.0898,0.0,0.0,5.3115,5.6969,5.7409,5.7923,6.1851,6.2732,6.3209,6.4861,6.5228,6.5485,6.6292,6.6439,6.6696,6.7504,6.7614,6.7614,6.7687,6.7687,6.71,6.5558,6.6035,6.5191,0.0,6.5375,6.8678,7.1027,7.1982,7.2459,7.2496,7.323,7.367,7.3707,7.5212,7.6056,7.6056,7.6864,7.7231,7.7231,7.7231,7.7231,7.7255,7.7089,7.6952,7.6968,7.6798,7.6701,7.6663,7.6663,7.6663,7.6639,7.6387,7.6311,7.6271,7.6056,7.5938,7.5784,7.4976,7.4668,7.4553,7.3745,7.3514,7.3514,7.3514,7.3514,7.3514,7.3514,7.4053,7.4668,7.4668,7.5284,7.5938,7.5938,7.5938,7.5976,7.5976,7.5976,7.6015,7.6015,7.6015,7.6015,7.6015,7.6015,7.6015,7.6015,7.6707,7.6938,7.6092,7.6015,7.6015,7.6015,7.6015,7.6015,7.6015,7.6015,7.5976,7.5976,7.5168,7.4668,7.463,7.3053,7.2168,7.2168,7.1321,7.0898,7.0898,7.0898,7.0898,7.0898,7.0898,7.0898,0.0,0.0,5.7776,5.8584,6.0236,6.2144,6.4053,6.4457,6.4787,6.5888,6.5264,6.4751,6.5558,6.4787,6.4494,6.5888,6.5191,6.5228,6.7393,6.6292,6.5888,6.7504,6.6512,0.0,0.0,0.0,0.0,6.8128,7.0844,7.2716,7.3266,7.356,7.4184,7.5249,7.5836,7.635,7.69,7.7194,7.7304,7.7304,7.7304,7.7304,7.7304,7.7215,7.7186,7.7186,7.7143,7.6993,7.6905,7.7307,7.7191,7.6746,7.7034,7.7151,7.7074,7.6418,7.6498,7.6746,7.5861,7.5553,7.5515,7.5245,7.5168,7.5168,7.5168,7.5168,7.5168,7.5168,7.5361,7.5553,7.5553,7.5784,7.6015,7.6015,7.6015,7.6015,7.6015,7.6015,7.6015,7.6015,7.6015,7.6169,7.6746,7.6861,7.7053,7.7592,7.7438,7.74,7.763,7.7669,7.7438,7.6899,7.6861,7.663,7.6053,7.6015,7.6015,7.6015,7.5707,7.5284,7.4707,7.3668,7.2783,7.2206,7.1321,7.0898,7.0898,7.0898,7.0898,7.0898,7.0898,7.0898,0.0,5.785,6.0933,6.13,6.2989,6.4751,6.5558,6.5742,6.5962,6.6769,6.6109,6.5264,6.4934,6.4237,6.3943,6.4751,6.4237,6.4751,6.7687,6.6769,6.6476,6.8274,6.7357,6.7393,0.0,0.0,0.0,6.7871,7.044,7.2312,7.2826,7.3377,7.4441,7.6056,7.6387,7.679,7.7304,7.7304,7.7304,7.7304,7.7304,7.7304,7.7304,7.7304,7.6864,7.6056,7.6937,7.6737,7.5921,7.7442,7.7727,7.7335,7.7827,7.8065,7.7989,7.7332,7.7341,7.7553,7.6399,7.6015,7.6015,7.6015,7.6015,7.6015,7.6015,7.6015,7.6015,7.6015,7.6015,7.6015,7.6015,7.6015,7.6015,7.6015,7.6015,7.6015,7.6015,7.6245,7.6476,7.6476,7.6707,7.7053,7.763,7.7707,7.8015,7.8823,7.8515,7.8284,7.8477,7.8477,7.8284,7.7784,7.7476,7.7053,7.6515,7.6169,7.6015,7.6015,7.6015,7.5745,7.5207,7.4361,7.3553,7.2668,7.1822,7.1206,7.0898,7.0898,7.0898,7.0898,7.0898,7.0898,5.9575,6.108,6.2365,6.4751,6.5375,6.5595,6.6366,6.6549,6.6733,6.743,6.7467,6.6659,0.0,0.0,6.464,6.4053,6.4567,6.5925,6.8421,6.8788,6.8531,0.0,0.0,0.0,0.0,0.0,0.0,7.0183,0.0,7.1468,7.1541,7.2973,7.4551,7.613,7.69,7.7304,7.7304,7.7304,7.7304,7.7304,7.7304,7.7304,7.7304,7.7304,7.6056,7.4001,7.6313,7.6019,7.4096,7.7107,7.8309,7.8304,7.8723,7.8904,7.8904,7.8596,7.8554,7.8323,7.6707,7.613,7.613,7.613,7.6092,7.6053,7.6053,7.6053,7.6015,7.6015,7.6015,7.6015,7.6015,7.6015,7.6053,7.6053,7.6092,7.613,7.613,7.6784,7.7361,7.7361,7.8015,7.8554,7.8554,7.8592,7.89,7.9746,7.9862,7.9554,7.8746,7.8631,7.8631,7.8554,7.7861,7.74,7.7323,7.6553,7.6053,7.6015,7.6015,7.6015,7.6015,7.5168,7.4361,7.3591,7.2668,7.1783,7.0975,7.0937,7.0898,7.0898,7.0898,7.0898,6.0199,6.2365,6.464,6.5888,6.6182,6.6402,6.721,6.7393,6.71,6.6109,6.442,6.2585,0.0,0.0,0.0,6.1777,6.1924,0.0,6.6586,6.71,0.0,6.8495,0.0,7.011,7.0881,7.2055,0.0,0.0,7.2275,7.3597,7.4808,7.5285,7.5946,7.6974,7.7194,7.7304,7.7304,7.7304,7.7304,7.7304,7.7304,7.7304,7.7304,7.7304,7.6974,7.6423,7.7047,7.6974,7.6484,7.7756,7.8016,7.7614,7.8736,7.9122,7.9096,7.8866,7.9071,7.9323,7.8246,7.7861,7.7861,7.7861,7.7438,7.6976,7.6976,7.6515,7.6015,7.6015,7.6015,7.6015,7.6015,7.6476,7.6976,7.6976,7.7438,7.7861,7.7861,7.8015,7.8169,7.8169,7.8861,7.9477,7.9477,8.0015,8.0516,8.0746,8.0785,8.0708,8.0477,8.0439,8.0169,7.9554,7.9285,7.8669,7.74,7.7092,7.6669,7.6053,7.6015,7.6015,7.6015,7.5168,7.4591,7.4399,7.2937,7.2091,7.186,7.1206,7.0898,7.0898,7.0898,7.0898,6.2768,6.442,6.6035,6.6843,6.7026,6.6843,6.6256,6.6109,6.5558,6.3576,6.2034,0.0,5.851,5.7336,0.0,0.0,0.0,0.0,6.6512,6.732,6.8017,0.0,7.0146,0.0,7.2863,7.3744,7.4001,0.0,7.3597,7.4074,7.4992,7.5395,7.6093,7.7268,7.7304,7.7304,7.7304,7.7304,7.7304,7.7304,7.7304,7.7304,7.7304,7.7304,7.6754,7.5799,0.0,7.6717,7.5859,7.7571,7.8072,7.7846,7.8816,7.938,7.9604,7.9474,7.981,8.0285,7.9823,7.9631,7.9515,7.8746,7.8169,7.7823,7.7823,7.7476,7.7092,7.7092,7.7092,7.7092,7.7092,7.7438,7.7823,7.7823,7.8169,7.8477,7.8477,7.8784,7.9169,7.9554,8.0054,8.0362,8.0362,8.0785,8.1093,8.1093,8.1093,8.1093,8.1093,8.1093,8.09,8.0439,8.0054,7.9246,7.7938,7.7476,7.6938,7.6053,7.6015,7.6015,7.6015,7.5515,7.5091,7.4707,7.3437,7.2591,7.2206,7.1321,7.0898,7.0898,7.0898,7.0898,6.5778,6.6512,6.6843,6.7504,6.7687,6.7136,6.5044,6.431,6.3429,6.1043,0.0,5.9318,5.7336,5.7446,5.84,6.0126,0.0,6.3759,6.6476,6.8054,6.9155,6.9853,7.077,7.1982,7.367,7.4404,7.5139,7.6019,7.4918,7.4184,7.4184,7.4845,7.5873,7.7268,7.7304,7.7304,7.7304,7.7304,7.7304,7.7304,7.7304,7.7304,7.7304,7.7304,7.6166,7.4294,7.6387,7.613,7.439,7.707,7.8146,7.8255,7.8816,7.938,7.9888,8.0008,8.0463,8.0991,8.1061,8.1093,8.0862,7.9323,7.8746,7.8669,7.8669,7.8592,7.8477,7.8477,7.8477,7.8477,7.8477,7.8592,7.8669,7.8669,7.8746,7.8861,7.8861,7.9438,8.0208,8.0939,8.1093,8.1093,8.1093,8.1093,8.1093,8.1093,8.1093,8.1093,8.1093,8.1093,8.1093,8.1093,8.0439,7.9631,7.8746,7.7938,7.7092,7.6245,7.6053,7.6015,7.6015,7.6015,7.563,7.4899,7.4091,7.3245,7.236,7.1514,7.1014,7.0898,7.0898,7.0898,6.5595,6.6476,6.7504,6.765,6.7687,6.7577,6.7173,6.5521,0.0,0.0,5.9281,5.7519,5.774,5.7373,5.774,6.0052,6.1777,6.2768,6.2658,6.6256,6.8972,0.0,0.0,0.0,0.0,0.0,0.0,0.0,7.646,7.668,7.668,7.6827,7.7047,7.7304,7.7304,7.7304,7.7304,7.7304,7.7304,7.7304,7.7304,7.7304,7.7304,7.7304,7.7084,7.6717,7.7157,0.0,7.6717,7.7242,7.745,7.757,7.82,7.8536,7.8754,7.9727,8.0163,8.0352,8.0888,8.1093,8.1054,8.0746,8.0169,7.9592,7.9592,7.9054,7.8477,7.8477,7.8477,7.8477,7.8477,7.9015,7.9592,7.9592,8.0131,8.0631,8.0631,8.0785,8.0939,8.1054,8.1093,8.1093,8.1093,8.1093,8.1093,8.1093,8.1093,8.1093,8.1093,8.1093,8.1093,8.1093,8.0977,8.0516,7.9669,7.8784,7.7938,7.713,7.6399,7.6015,7.6015,7.6015,7.5938,7.5784,7.4938,7.4091,7.3283,7.2399,7.1591,7.0898,7.0898,7.0898,6.5632,6.6476,6.7687,6.7687,6.7687,6.7026,6.4457,0.0,0.0,0.0,5.6014,5.506,5.5427,5.484,0.0,6.0272,6.1667,6.2915,6.5081,6.7797,0.0,7.011,7.1211,7.2532,0.0,0.0,0.0,7.5432,7.5836,7.6423,7.7268,7.7304,7.7304,7.7304,7.7304,7.7304,7.7304,7.7304,7.7304,7.7304,7.7304,7.7304,7.7304,7.7304,7.7304,7.7304,7.7304,0.0,7.5542,7.679,7.657,7.5602,7.7171,7.8016,7.8325,7.8951,7.9556,8.0163,8.0463,8.0822,8.1093,8.1093,8.0823,8.0477,8.0477,8.0169,7.9862,7.9862,7.9862,7.9862,7.9862,8.0169,8.0477,8.0477,8.0785,8.1093,8.1093,8.1093,8.1093,8.1093,8.1093,8.1093,8.1093,8.1093,8.1093,8.1093,8.1093,8.1093,8.1093,8.1093,8.1093,8.1093,8.1093,8.0746,7.9862,7.9015,7.8169,7.7361,7.6476,7.6015,7.6015,7.6015,7.6015,7.6015,7.513,7.4322,7.3514,7.2629,7.1745,7.0898,7.0898,7.0898,6.6072,6.6733,6.7687,6.7687,6.7687,6.6549,6.2181,6.0786,0.0,0.0,5.3555,5.3371,5.3885,0.0,5.4913,0.0,6.13,6.2732,6.7467,6.8678,6.9706,0.0,7.2129,0.0,7.4331,7.4735,0.0,7.5395,7.5432,7.5983,7.7268,7.7304,7.7304,7.7304,7.7304,7.7304,7.7304,7.7304,7.7304,7.7304,7.7304,7.7304,7.7304,7.7304,7.7304,7.7304,7.7304,0.0,0.0,7.6313,7.5873,7.3927,7.6387,7.7592,7.809,7.8255,7.8902,7.9765,8.0008,8.0463,8.0888,8.1061,8.1093,8.1093,8.1093,8.1093,8.1093,8.1093,8.1093,8.1093,8.1093,8.1093,8.1093,8.1093,8.1093,8.1093,8.1093,8.1093,8.1093,8.1093,8.1093,8.1093,8.1093,8.1093,8.1093,8.1093,8.1093,8.1093,8.1093,8.1093,8.1093,8.1093,8.1093,8.0823,8.0131,7.9092,7.8207,7.7592,7.6592,7.6015,7.6015,7.6015,7.6015,7.6015,7.5322,7.4591,7.3783,7.2899,7.2014,7.1168,7.0975,7.0898,6.71,6.7577,6.7687,6.7687,6.7687,6.699,6.4347,0.0,0.0,5.7005,5.473,5.3885,5.6088,5.6418,0.0,0.0,0.0,6.0896,6.5044,6.5705,6.7393,7.1872,0.0,0.0,7.668,7.5726,0.0,7.6974,7.7084,7.7157,7.7304,7.7304,7.7304,7.7304,7.7304,7.7304,7.7304,7.7304,7.7304,7.7304,7.7304,7.7304,7.7304,7.7304,7.7304,7.7304,7.7304,7.5946,0.0,7.6313,7.5873,7.3927,7.6387,7.7304,7.7487,7.8072,7.8325,7.8602,7.9723,8.0163,8.0315,8.0888,8.1093,8.1093,8.1093,8.1093,8.1093,8.1093,8.1093,8.1093,8.1093,8.1093,8.1093,8.1093,8.1093,8.1093,8.1093,8.1093,8.1093,8.1093,8.1093,8.1093,8.1093,8.1093,8.1093,8.1093,8.1093,8.1093,8.1093,8.1093,8.1093,8.1093,8.1093,8.1054,8.0977,7.9438,7.8477,7.84,7.6899,7.6015,7.6015,7.6015,7.6015,7.6015,7.5938,7.5438,7.4591,7.3783,7.2937,7.2052,7.1283,7.0898,6.4567,6.6182,6.7687,6.7687,6.7687,6.6659,6.2768,0.0,5.9318,5.5427,5.3885,5.3518,5.4473,5.4252,0.0,0.0,0.0,0.0,6.5888,6.6733,6.8531,7.3377,7.3964,0.0,0.0,0.0,7.5175,7.5836,7.5873,7.6313,7.7268,7.7304,7.7304,7.7304,7.7304,7.7304,7.7304,7.7304,7.7304,7.7304,7.7304,7.7304,7.7304,7.7304,7.7304,7.7304,7.7304,7.5139,0.0,7.5726,7.5028,7.1908,7.5799,7.7304,7.7304,7.7629,7.796,7.8432,7.9244,7.9806,8.0201,8.0888,8.1093,8.1093,8.1093,8.1093,8.1093,8.1093,8.1093,8.1093,8.1093,8.1093,8.1093,8.1093,8.1093,8.1093,8.1093,8.1093,8.1093,8.1093,8.1093,8.1093,8.1093,8.1093,8.1093,8.1093,8.1093,8.1093,8.1093,8.1093,8.1093,8.1093,8.1093,8.09,8.0362,7.9208,7.8284,7.7784,7.6669,7.6015,7.6015,7.6015,7.6015,7.6015,7.6015,7.5553,7.4707,7.4399,7.3514,7.2168,7.1822,7.1398,6.2989,6.5375,6.7687,6.7687,6.7136,6.5521,0.0,0.0,5.818,5.4069,5.3225,5.3225,5.3225,5.2747,5.3665,5.7703,0.0,5.9722,6.6109,6.699,6.8678,7.3303,0.0,7.4331,0.0,7.5616,7.5616,7.5616,7.5616,7.613,7.7268,7.7304,7.7304,7.7304,7.7304,7.7304,7.7304,7.7304,7.7304,7.7304,7.7304,7.7084,7.6644,7.7084,7.7047,7.6644,7.7121,7.4992,0.0,7.5616,7.4882,7.1578,7.5689,7.7304,7.7304,7.7304,7.7629,7.809,7.8914,7.9469,7.9969,8.0822,8.1093,8.1093,8.1093,8.1093,8.1093,8.1093,8.1093,8.1093,8.1093,8.1093,8.1093,8.1093,8.1093,8.1093,8.1093,8.1093,8.1093,8.1093,8.1093,8.1093,8.1093,8.1093,8.1093,8.1093,8.1093,8.1093,8.1093,8.1093,8.1093,8.1093,8.0862,8.0477,7.9862,7.9015,7.8169,7.7361,7.6476,7.6015,7.6015,7.6015,7.6015,7.6015,7.6015,7.5707,7.5091,7.4822,7.3976,7.2591,7.2322,7.1745,6.3429,6.5852,6.7687,6.7687,6.5888,6.3466,0.0,0.0,5.6161,5.3702,5.3225,5.3225,5.3225,5.3188,5.4509,5.8547,5.9208,6.0639,6.4751,6.5338,6.6843,0.0,0.0,7.2936,7.69,7.7304,7.7304,7.7304,7.7304,0.0,7.7304,7.7304,7.7304,7.7304,7.7304,7.7304,7.7304,7.7304,7.7304,7.7304,7.7304,7.6497,7.4992,7.6607,7.646,7.5028,7.6644,7.5946,0.0,7.6313,7.5873,7.3891,7.635,7.7304,7.7304,7.7304,7.7304,7.751,7.8766,7.9198,7.9425,8.0681,8.1093,8.1093,8.1093,8.1093,8.1093,8.1093,8.1093,8.1093,8.1093,8.1093,8.1093,8.1093,8.1093,8.1093,8.1093,8.1093,8.1093,8.1093,8.1093,8.1093,8.1093,8.1093,8.1093,8.1093,8.1093,8.1093,8.1093,8.1093,8.1093,8.1093,8.0323,7.9823,7.9823,7.9015,7.8169,7.7361,7.6476,7.6015,7.6015,7.6015,7.6015,7.6015,7.6015,7.6015,7.5976,7.513,7.4284,7.3476,7.2591,7.1745,5.8621,6.086,6.2695,6.2695,6.2144,6.0933,5.851,5.7373,5.6124,5.3702,5.3225,5.3225,5.3225,5.3225,5.4363,5.7813,5.84,6.0382,0.0,0.0,0.0,7.323,7.4735,7.5909,0.0,0.0,7.613,7.7231,7.6313,7.6166,7.7268,7.7304,7.7304,7.7304,7.7304,7.7304,7.7304,7.7304,7.7304,7.7304,7.7304,7.6166,7.4147,7.635,7.613,7.4184,7.6387,7.5946,0.0,7.6313,7.5873,7.3927,7.6387,7.7304,7.7304,7.7304,7.7304,7.7426,7.8272,7.8816,7.9335,8.0163,8.0716,8.1093,8.1093,8.1093,8.1093,8.1093,8.1093,8.1093,8.1093,8.1093,8.1093,8.1093,8.1093,8.1093,8.1093,8.1093,8.1093,8.1093,8.1093,8.1093,8.1093,8.1093,8.1093,8.1093,8.1093,8.1093,8.1093,8.1093,8.1093,8.1093,8.0323,7.9554,7.8977,7.813,7.7323,7.6476,7.613,7.6015,7.6015,7.6015,7.6015,7.6015,7.6015,7.6015,7.6015,7.5707,7.4861,7.3476,7.2591,7.1745,5.528,5.8107,6.0419,6.0419,5.9722,5.8657,5.7152,0.0,5.5023,5.3518,5.3922,5.4289,5.3371,5.3959,5.5133,5.6822,0.0,0.0,0.0,0.0,0.0,7.1762,0.0,0.0,0.0,7.6423,7.624,7.7231,7.6387,7.624,7.7268,7.7304,7.7304,7.7304,7.7304,7.7304,7.7304,7.7304,7.7304,7.7304,7.7304,7.6203,7.4221,7.635,7.6166,7.4258,7.6387,7.646,0.0,7.668,7.6423,7.5212,7.6717,7.7304,7.7304,7.7304,7.7304,7.7426,7.8072,7.8536,7.8962,7.9556,8.0163,8.075,8.0991,8.1093,8.1093,8.1093,8.1093,8.1093,8.1093,8.1093,8.1093,8.1093,8.1093,8.1093,8.1093,8.1093,8.1093,8.1093,8.1093,8.1093,8.1093,8.1093,8.1093,8.1093,8.1093,8.1093,8.1093,8.1093,8.0977,8.0631,7.9823,7.8977,7.813,7.7592,7.6938,7.6053,7.6015,7.6015,7.6015,7.6015,7.6015,7.6015,7.6015,7.6015,7.6015,7.5668,7.4976,7.3937,7.2745,7.1898,0.0,5.6785,5.9832,5.9869,5.8217,5.6565,5.6565,0.0,0.0,5.3445,5.5244,5.6124,5.3885,5.5427,5.6785,0.0,0.0,0.0,0.0,6.409,0.0,0.0,7.2129,0.0,7.7011,7.7268,7.7304,7.7304,7.7304,7.7304,7.7304,7.7304,7.7304,7.7304,7.7304,7.7304,7.7304,7.7304,7.7231,7.7084,7.7231,7.635,7.4625,7.6497,7.6423,0.0,7.6607,7.7304,0.0,7.7304,7.7304,7.7304,7.7304,7.7304,7.7304,7.7304,7.7304,7.7365,7.8016,7.8255,7.8379,7.9058,7.9642,8.0201,8.0888,8.1093,8.1093,8.1093,8.1093,8.1093,8.1093,8.1093,8.1093,8.1093,8.1093,8.1093,8.1093,8.1093,8.1093,8.1093,8.1093,8.1093,8.1093,8.1093,8.1093,8.1093,8.1093,8.1093,8.1093,8.1054,8.0708,7.99,7.8977,7.8092,7.7361,7.7246,7.6861,7.6053,7.6015,7.6015,7.6015,7.6015,7.6015,7.6015,7.6015,7.6015,7.6015,7.5207,7.4784,7.4668,7.3053,7.2245,4.8783,0.0,5.4106,5.4766,5.4473,5.4069,0.0,0.0,0.0,0.0,0.0,5.6638,5.6051,5.7923,5.9281,0.0,0.0,0.0,6.4273,0.0,0.0,0.0,0.0,0.0,7.5579,7.6607,7.7304,7.7304,7.7304,7.7304,7.7304,7.7304,7.7304,7.7304,7.7304,7.7304,7.7304,7.7304,7.6387,7.4551,7.6423,7.5175,7.1358,7.5469,7.6093,7.4111,7.635,7.7304,7.7304,7.7304,7.7304,7.7304,7.7304,7.7304,7.7304,7.7304,7.7304,7.7304,7.745,7.7846,7.8484,7.9513,7.9969,8.0201,8.0888,8.1093,8.1093,8.1093,8.1093,8.1093,8.1093,8.1093,8.1093,8.1093,8.1093,8.1093,8.1093,8.1093,8.1093,8.1093,8.1093,8.1093,8.1093,8.1093,8.1093,8.1093,8.1093,8.1093,8.1093,8.0516,8.0015,7.9823,7.8477,7.7515,7.7323,7.6669,7.6207,7.6015,7.6015,7.6015,7.6015,7.6015,7.6015,7.6015,7.6015,7.6015,7.6015,7.5784,7.5361,7.4668,7.3668,7.2822,4.8122,5.0068,5.238,5.3922,5.3739,5.3482,5.462,0.0,0.0,0.0,0.0,5.6345,5.6748,5.818,0.0,0.0,6.0639,0.0,0.0,0.0,0.0,7.0146,7.3083,7.5065,0.0,7.6387,7.7304,7.7304,7.7304,7.7304,7.7304,7.7304,7.7304,7.7304,7.7304,7.7304,7.7304,7.7304,7.6093,7.3707,7.6166,7.5359,7.1872,7.5616,7.6607,7.5359,7.5579,7.6276,7.7231,7.613,7.6313,7.7304,7.7304,7.7304,7.7304,7.7304,7.7304,7.7304,7.7304,7.751,7.8016,7.8962,7.9469,7.9806,8.0463,8.0855,8.1093,8.1093,8.1093,8.1093,8.1093,8.1093,8.1093,8.1093,8.1093,8.1093,8.1093,8.1093,8.1093,8.1093,8.1093,8.1093,8.1093,8.1093,8.1093,8.1093,8.1093,8.0977,8.0554,8.0092,7.9515,7.8746,7.7823,7.713,7.6746,7.6284,7.6015,7.6015,7.6015,7.6015,7.6015,7.6015,7.6015,7.6015,7.6015,7.6015,7.6015,7.6015,7.5745,7.5284,7.4053,7.3245,4.8746,5.0435,5.2454,5.5097,5.4473,5.3849,5.6271,0.0,0.0,0.0,0.0,0.0,0.0,5.8621,0.0,0.0,0.0,0.0,6.6145,6.8752,7.0293,7.0293,7.2018,0.0,7.4808,7.6387,7.7304,7.7304,7.7304,7.7304,7.7304,7.7304,7.7304,7.7304,7.7304,7.7304,7.7304,7.7304,7.6093,7.3707,7.6166,7.6056,7.378,7.6203,7.7304,7.7194,0.0,0.0,7.7157,7.5102,7.5469,7.7304,7.7304,7.7304,7.7304,7.7304,7.7304,7.7304,7.7304,7.7304,7.7426,7.809,7.8704,7.9335,7.9929,8.0573,8.1093,8.1093,8.1093,8.1093,8.1093,8.1093,8.1093,8.1093,8.1093,8.1093,8.1093,8.1093,8.1093,8.1093,8.1093,8.1093,8.1093,8.1093,8.1093,8.1093,8.1093,8.0785,7.99,7.9669,7.9015,7.7438,7.7169,7.6784,7.6053,7.6015,7.6015,7.6015,7.6015,7.6015,7.6015,7.6015,7.6015,7.6015,7.6015,7.6015,7.6015,7.6015,7.6015,7.5976,7.4284,7.3514,4.7241,4.9187,5.1903,5.5684,5.4913,5.3849,5.6271,0.0,0.0,0.0,0.0,0.0,0.0,6.3906,0.0,0.0,0.0,0.0,0.0,0.0,7.1138,7.1138,0.0,7.613,7.5028,7.6387,7.7304,7.7304,7.7304,7.7304,7.7304,7.7304,7.7304,7.7304,7.7304,7.7304,7.7304,7.7304,7.6093,7.3707,7.6166,7.6056,7.378,7.6203,7.7304,7.7304,0.0,7.6974,7.7304,7.69,7.6974,7.7304,7.7304,7.7304,7.7304,7.7304,7.7304,7.7304,7.7304,7.7304,7.7426,7.809,7.8704,7.9335,7.9929,8.0573,8.1093,8.1093,8.1093,8.1093,8.1093,8.1093,8.1093,8.1093,8.1093,8.1093,8.1093,8.1093,8.1093,8.1093,8.1093,8.1093,8.1093,8.1093,8.1093,8.1093,8.1093,8.0785,7.99,7.9169,7.8323,7.74,7.663,7.613,7.6015,7.6015,7.6015,7.6015,7.6015,7.6015,7.6015,7.6015,7.6015,7.6015,7.6015,7.6015,7.6015,7.6015,7.6015,7.5976,7.4284,7.3514,4.7976,4.9591,5.2087,5.7409,5.5941,5.4546,5.9575,0.0,0.0,0.0,0.0,0.0,0.0,0.0,0.0,0.0,0.0,0.0,6.9596,7.0991,7.2275,0.0,0.0,7.5726,7.4992,7.6387,7.7304,7.7304,7.7304,7.7304,7.7304,7.7304,7.7304,7.7304,7.7304,7.7304,7.7304,7.7304,7.6093,7.3707,7.6166,7.6056,7.378,7.6203,7.7304,7.7268,0.0,7.6093,7.7231,7.5909,7.613,7.7304,7.7304,7.7304,7.7304,7.7304,7.7304,7.7304,7.7304,7.7304,7.7365,7.7651,7.8394,7.9244,7.9513,8.0315,8.1093,8.1093,8.1093,8.1093,8.1093,8.1093,8.1093,8.1093,8.1093,8.1093,8.1093,8.1093,8.1093,8.1093,8.1093,8.1093,8.1093,8.1093,8.1093,8.1093,8.0708,8.0092,7.9208,7.8361,7.7515,7.6669,7.6245,7.6015,7.6015,7.6015,7.6015,7.6015,7.6015,7.6015,7.6015,7.6015,7.6015,7.6015,7.6015,7.6015,7.6015,7.6015,7.6015,7.5976,7.4284,7.3514,4.8673,5.0031,5.2197,5.8107,0.0,5.5133,6.2438,0.0,0.0,0.0,0.0,0.0,0.0,6.1484,0.0,0.0,0.0,0.0,0.0,7.2863,7.3891,7.5322,7.5469,7.5469,7.5469,7.6607,7.7304,7.7304,7.7304,7.7304,7.7304,7.7304,7.7304,7.7304,7.7304,7.7304,7.7304,7.7304,7.6387,7.4551,7.6423,7.635,7.4625,7.646,7.7304,7.7231,7.5359,7.5616,7.7194,7.5322,7.5652,7.7304,7.7304,7.7304,7.7304,7.7304,7.7304,7.7304,7.7304,7.7304,7.7304,7.7304,7.8163,7.9198,7.9198,8.0086,8.1093,8.1093,8.1093,8.1093,8.1093,8.1093,8.1093,8.1093,8.1093,8.1093,8.1093,8.1093,8.1093,8.1093,8.1093,8.1093,8.1093,8.1093,8.1016,8.0823,8.0246,7.9438,7.8361,7.7669,7.6976,7.6092,7.6015,7.6015,7.6015,7.6015,7.6015,7.6015,7.6015,7.6015,7.6015,7.6015,7.6015,7.6015,7.6015,7.6015,7.6015,7.6015,7.6015,7.5976,7.4284,7.3514,4.7939,4.9591,5.183,5.6014,5.5133,0.0,6.2438,0.0,0.0,0.0,0.0,0.0,0.0,0.0,6.5705,6.8238,7.0183,7.2165,7.4331,0.0,7.6166,7.7047,7.7157,7.7157,7.7157,7.7268,7.7304,7.7304,7.7304,7.7304,7.7304,7.7304,7.7304,7.7304,7.7304,7.7304,7.7304,7.7304,7.7231,7.7047,7.7231,7.7231,7.7084,7.7231,7.7304,7.7304,7.7157,7.7157,7.7304,7.7121,7.7157,7.7304,7.7304,7.7304,7.7304,7.7304,7.7304,7.7304,7.7304,7.7304,7.7304,7.7304,7.8163,7.9198,7.9198,8.0086,8.1093,8.1093,8.1093,8.1093,8.1093,8.1093,8.1093,8.1093,8.1093,8.1093,8.1093,8.1093,8.1093,8.1093,8.1093,8.1093,8.1093,8.1093,8.0823,8.0015,7.9862,7.9208,7.7592,7.7323,7.6976,7.6092,7.6015,7.6015,7.6015,7.6015,7.6015,7.6015,7.6015,7.6015,7.6015,7.6015,7.6015,7.6015,7.6015,7.6015,7.6015,7.6015,7.6015,7.5976,7.4284,7.3514,4.8012,4.9884,5.2747,5.7776,0.0,0.0,0.0,0.0,0.0,0.0,0.0,0.0,0.0,0.0,6.8017,6.9412,7.1431,7.3303,7.4698,7.5579,7.6387,7.7231,7.7304,7.7304,7.7304,7.7304,7.7304,7.7304,7.7304,7.7304,7.7304,7.7304,7.7304,7.7304,7.7304,7.7304,7.7304,7.7304,7.7304,7.7304,7.7304,7.7304,7.7304,7.7304,7.7304,7.7304,7.7304,7.7304,7.7304,7.7304,7.7304,7.7304,7.7304,7.7304,7.7304,7.7304,7.7304,7.7304,7.7304,7.7304,7.7304,7.7304,7.8163,7.9198,7.9198,8.0086,8.1093,8.1093,8.1093,8.1093,8.1093,8.1093,8.1093,8.1093,8.1093,8.1093,8.1093,8.1093,8.1093,8.1093,8.1093,8.1093,8.1093,8.0669,8.0169,7.9862,7.89,7.8015,7.7361,7.6823,7.6361,7.6053,7.6015,7.6015,7.6015,7.6015,7.6015,7.6015,7.6015,7.6015,7.6015,7.6015,7.6015,7.6015,7.6015,7.6015,7.6015,7.6015,7.6015,7.5976,7.4284,7.3514,4.8746,5.0508,5.3151,0.0,0.0,0.0,0.0,0.0,0.0,0.0,0.0,0.0,0.0,0.0,0.0,0.0,7.1762,7.3707,7.4771,7.5836,7.668,7.7268,7.7304,7.7304,7.7304,7.7304,7.7304,7.7304,7.7304,7.7304,7.7304,7.7304,7.7304,7.7304,7.7304,7.7304,7.7304,7.7304,7.7304,7.7304,7.7304,7.7304,7.7304,7.7304,7.7304,7.7304,7.7304,7.7304,7.7304,7.7304,7.7304,7.7304,7.7304,7.7304,7.7304,7.7304,7.7304,7.7304,7.7304,7.7304,7.7304,7.7304,7.8035,7.8951,7.8951,7.9765,8.0783,8.0783,8.0783,8.0855,8.1061,8.1093,8.1093,8.1093,8.1093,8.1093,8.1093,8.1093,8.1093,8.1093,8.1093,8.1093,8.1093,8.04,7.9708,7.9438,7.8207,7.7207,7.6899,7.6361,7.6015,7.6015,7.6015,7.6015,7.6015,7.6015,7.6015,7.6015,7.6015,7.6015,7.6015,7.6015,7.6015,7.6015,7.6015,7.6015,7.6015,7.6015,7.6015,7.5976,7.4284,7.3514,5.0178,5.1389,5.2784,0.0,0.0,0.0,0.0,0.0,0.0,0.0,0.0,0.0,0.0,0.0,0.0,6.9045,7.0954,7.3083,7.4698,7.6313,7.7304,7.7304,7.7304,7.7304,7.7304,7.7304,7.7304,7.7304,7.7304,7.7304,7.7304,7.7304,7.7304,7.7304,7.7304,7.7304,7.7304,7.7304,7.7304,7.7304,7.7304,7.7304,7.7304,7.7304,7.7304,7.7304,7.7304,7.7304,7.7304,7.7304,7.7304,7.7304,7.7304,7.7304,7.7304,7.7304,7.7304,7.7304,7.7304,7.7304,7.7304,7.7304,7.7768,7.8309,7.8309,7.9152,8.0087,8.0087,8.0087,8.0277,8.0926,8.1093,8.1093,8.1093,8.1093,8.1093,8.1093,8.1093,8.1093,8.1093,8.1093,8.1093,8.1093,8.0362,7.9477,7.8631,7.7784,7.6976,7.6092,7.6015,7.6015,7.6015,7.6015,7.6015,7.6015,7.6015,7.6015,7.6015,7.6015,7.6015,7.6015,7.6015,7.6015,7.6015,7.6015,7.6015,7.6015,7.6015,7.6015,7.5976,7.4284,7.3514,5.2491,5.3078,0.0,0.0,0.0,0.0,0.0,0.0,0.0,0.0,0.0,0.0,0.0,0.0,0.0,7.0734,7.2606,7.4551,7.5616,7.6644,7.7304,7.7304,7.7304,7.7304,7.7304,7.7304,7.7304,7.7304,7.7304,7.7304,7.7304,7.7304,7.7304,7.7304,7.7304,7.7304,7.7304,7.7304,7.7304,7.7304,7.7304,7.7304,7.7304,7.7304,7.7304,7.7304,7.7304,7.7304,7.7304,7.7304,7.7304,7.7304,7.7304,7.7304,7.7304,7.7304,7.7304,7.7304,7.7304,7.7304,7.7304,7.7304,7.7768,7.8309,7.8309,7.8853,7.9469,7.9469,7.9469,7.96,8.0201,8.0389,8.0499,8.0991,8.1093,8.1093,8.1093,8.1093,8.1093,8.1093,8.0592,8.0208,8.0208,7.8977,7.7938,7.7669,7.6938,7.6284,7.6015,7.6015,7.6015,7.6015,7.6015,7.6015,7.6015,7.6015,7.6015,7.6015,7.6015,7.6015,7.6015,7.6015,7.6015,7.6015,7.6015,7.6015,7.6015,7.6015,7.6015,7.5976,7.4284,7.3514,5.4656,5.5023,0.0,0.0,0.0,0.0,0.0,0.0,0.0,0.0,0.0,0.0,0.0,7.1431,0.0,7.2349,7.4001,7.5542,7.6019,7.679,7.7304,7.7304,7.7304,7.7304,7.7304,7.7304,7.7304,7.7304,7.7304,7.7304,7.7304,7.7304,7.7304,7.7304,7.7304,7.7304,7.7304,7.7304,7.7304,7.7304,7.7304,7.7304,7.7304,7.7304,7.7304,7.7304,7.7304,7.7304,7.7304,7.7304,7.7304,7.7304,7.7304,7.7304,7.7304,7.7304,7.7304,7.7304,7.7304,7.7304,7.7304,7.7304,7.757,7.7903,7.7903,7.8325,7.8853,7.8853,7.8853,7.901,7.9888,7.9929,7.9969,8.0888,8.1093,8.1093,8.1093,8.1093,8.1016,8.0669,8.0169,7.9708,7.9323,7.8169,7.7284,7.7284,7.6553,7.6015,7.6015,7.6015,7.6015,7.6015,7.6015,7.6015,7.6015,7.6015,7.6015,7.6015,7.6015,7.6015,7.6015,7.6015,7.6015,7.6015,7.6015,7.6015,7.6015,7.6015,7.6015,7.5976,7.4284,7.3514,5.6638,0.0,0.0,0.0,0.0,0.0,0.0,0.0,0.0,0.0,0.0,7.2349,7.2569,7.3193,7.3744,7.3891,7.5139,7.613,7.6203,7.6864,7.7304,7.7304,7.7304,7.7304,7.7304,7.7304,7.7304,7.7304,7.7304,7.7304,7.7304,7.7304,7.7304,7.7304,7.7304,7.7304,7.7304,7.7304,7.7304,7.7304,7.7304,7.7304,7.7304,7.7304,7.7304,7.7304,7.7304,7.7304,7.7304,7.7304,7.7304,7.7304,7.7304,7.7304,7.7304,7.7304,7.7304,7.7304,7.7304,7.7304,7.7304,7.7304,7.7304,7.7304,7.7304,7.771,7.82,7.82,7.82,7.8484,7.96,7.9556,7.9513,8.0716,8.1061,8.1093,8.1093,8.1054,8.0746,7.9939,7.9669,7.9323,7.8515,7.7707,7.7169,7.7169,7.6515,7.6015,7.6015,7.6015,7.6015,7.6015,7.6015,7.6015,7.6015,7.6015,7.6015,7.6015,7.6015,7.6015,7.6015,7.6015,7.6015,7.6015,7.6015,7.6015,7.6015,7.6015,7.6015,7.5976,7.4284,7.3514,5.8657,5.8694,0.0,0.0,6.0199,6.2658,6.8678,6.9669,6.9889,7.1835,7.1358,7.1211,7.3083,7.356,7.4111,7.5395,7.5873,7.6313,7.6974,7.7194,7.7304,7.7304,7.7304,7.7304,7.7304,7.7304,7.7304,7.7304,7.7304,7.7304,7.7304,7.7304,7.7304,7.7304,7.7304,7.7304,7.7304,7.7304,7.7304,7.7304,7.7304,7.7304,7.7304,7.7304,7.7304,7.7304,7.7304,7.7304,7.7304,7.7304,7.7304,7.7304,7.7304,7.7304,7.7304,7.7304,7.7304,7.7304,7.7304,7.7304,7.7304,7.7304,7.7304,7.7304,7.7304,7.7426,7.751,7.751,7.751,7.771,7.8484,7.8914,7.938,8.0125,8.0716,8.1093,8.1093,8.0554,8.0015,7.9862,7.8746,7.7784,7.7592,7.6861,7.6284,7.6284,7.613,7.6015,7.6015,7.6015,7.6015,7.6015,7.6015,7.6015,7.6015,7.6015,7.6015,7.6015,7.6015,7.6015,7.6015,7.6015,7.6015,7.6015,7.6015,7.6015,7.6015,7.6015,7.6015,7.5976,7.4284,7.3514,5.7997,0.0,0.0,6.2071,0.0,6.6549,6.9963,7.0991,7.1505,7.2349,7.2129,7.2202,7.345,7.4331,7.5102,7.5946,7.6423,7.6827,7.7268,7.7304,7.7304,7.7304,7.7304,7.7304,7.7304,7.7304,7.7304,7.7304,7.7304,7.7304,7.7304,7.7304,7.7304,7.7304,7.7304,7.7304,7.7304,7.7304,7.7304,7.7304,7.7304,7.7304,7.7304,7.7304,7.7304,7.7304,7.7304,7.7304,7.7304,7.7304,7.7304,7.7304,7.7304,7.7304,7.7304,7.7304,7.7304,7.7304,7.7304,7.7304,7.7304,7.7304,7.7304,7.7304,7.7304,7.7304,7.7304,7.7304,7.7304,7.745,7.809,7.8754,7.9222,7.9474,7.9995,8.0477,8.0477,7.9785,7.9054,7.8669,7.79,7.7169,7.6746,7.6284,7.6015,7.6015,7.6015,7.6015,7.6015,7.6015,7.6015,7.6015,7.6015,7.6015,7.6015,7.6015,7.6015,7.6015,7.6015,7.6015,7.6015,7.6015,7.6015,7.6015,7.6015,7.6015,7.6015,7.6015,7.5784,7.5361,7.4091,7.3283,5.6381,0.0,6.1741,6.6512,6.8495,0.0,7.033,7.1321,7.2165,7.2459,7.312,7.3744,7.3891,7.5102,7.6166,7.6276,7.69,7.7304,7.7304,7.7304,7.7304,7.7304,7.7304,7.7304,7.7304,7.7304,7.7304,7.7304,7.7304,7.7304,7.7304,7.7304,7.7304,7.7304,7.7304,7.7304,7.7304,7.7304,7.7304,7.7304,7.7304,7.7304,7.7304,7.7304,7.7304,7.7304,7.7304,7.7304,7.7304,7.7304,7.7304,7.7304,7.7304,7.7304,7.7304,7.7304,7.7304,7.7304,7.7304,7.7304,7.7304,7.7304,7.7304,7.7304,7.7304,7.7304,7.7304,7.7304,7.7304,7.7389,7.7831,7.8428,7.892,7.8593,7.893,7.94,7.9554,7.89,7.8092,7.7438,7.7169,7.6861,7.613,7.6015,7.6015,7.6015,7.6015,7.6015,7.6015,7.6015,7.6015,7.6015,7.6015,7.6015,7.6015,7.6015,7.6015,7.6015,7.6015,7.6015,7.6015,7.6015,7.6015,7.6015,7.6015,7.6015,7.6015,7.6015,7.5553,7.4668,7.386,7.3014,0.0,0.0,6.2438,0.0,6.6806,6.7063,0.0,0.0,7.0807,0.0,7.312,7.3891,7.4625,7.5506,7.635,7.7047,7.7268,7.7304,7.7304,7.7304,7.7304,7.7304,7.7304,7.7304,7.7304,7.7304,7.7304,7.7304,7.7304,7.7304,7.7304,7.7304,7.7304,7.7304,7.7304,7.7304,7.7304,7.7304,7.7304,7.7304,7.7304,7.7304,7.7304,7.7304,7.7304,7.7304,7.7304,7.7304,7.7304,7.7304,7.7304,7.7304,7.7304,7.7304,7.7304,7.7304,7.7304,7.7304,7.7304,7.7304,7.7304,7.7304,7.7304,7.7304,7.7304,7.7304,7.7304,7.7304,7.7304,7.7157,7.6544,7.7244,7.7878,7.7175,7.7338,7.7823,7.8515,7.8015,7.7438,7.7323,7.6669,7.613,7.6015,7.6015,7.6015,7.6015,7.6015,7.6015,7.6015,7.6015,7.6015,7.6015,7.6015,7.6015,7.6015,7.6015,7.6015,7.6015,7.6015,7.6015,7.6015,7.6015,7.6015,7.6015,7.6015,7.6015,7.6015,7.6015,7.5553,7.4668,7.386,7.3014,5.7226,5.8584,6.0529,0.0,6.6806,6.5999,7.1321,7.1248,7.055,7.2165,7.3487,7.4478,7.4845,7.5946,7.69,7.7268,7.7304,7.7304,7.7304,7.7304,7.7304,7.7304,7.7304,7.7304,7.7304,7.7304,7.7304,7.7304,7.7304,7.7304,7.7304,7.7304,7.7304,7.7304,7.7304,7.7304,7.7304,7.7304,7.7304,7.7304,7.7304,7.7304,7.7304,7.7304,7.7304,7.7304,7.7304,7.7304,7.7304,7.7304,7.7304,7.7304,7.7304,7.7304,7.7304,7.7304,7.7304,7.7304,7.7304,7.7304,7.7304,7.7304,7.7304,7.7304,7.7304,7.7304,7.7304,7.7304,7.7011,7.657,7.6203,7.667,7.7047,7.6255,7.6654,7.7246,7.713,7.6823,7.6553,7.6553,7.6245,7.6015,7.6015,7.6015,7.6015,7.6015,7.6015,7.6015,7.6015,7.6015,7.6015,7.6015,7.6015,7.6015,7.6015,7.6015,7.6015,7.6015,7.6015,7.6015,7.6015,7.6015,7.6015,7.6015,7.6015,7.6015,7.6015,7.5515,7.4861,7.4014,7.3168,7.2283,0.0,0.0,5.8657,6.6329,6.5852,6.4787,0.0,0.0,6.9926,0.0,7.3523,7.4918,7.4918,7.624,7.7304,7.7304,7.7304,7.7304,7.7304,7.7304,7.7304,7.7304,7.7304,7.7304,7.7304,7.7304,7.7304,7.7304,7.7304,7.7304,7.7304,7.7304,7.7304,7.7304,7.7304,7.7304,7.7304,7.7304,7.7304,7.7304,7.7304,7.7304,7.7304,7.7304,7.7304,7.7304,7.7304,7.7304,7.7304,7.7304,7.7304,7.7304,7.7304,7.7304,7.7304,7.7304,7.7304,7.7304,7.7304,7.7304,7.7304,7.7304,7.7304,7.7304,7.7304,7.7194,7.7011,7.7011,7.6423,7.5763,7.5542,7.5962,7.6217,7.5387,7.6082,7.6784,7.613,7.6015,7.6015,7.6015,7.6015,7.6015,7.6015,7.6015,7.6015,7.6015,7.6015,7.6015,7.6015,7.6015,7.6015,7.6015,7.6015,7.6015,7.6015,7.6015,7.6015,7.6015,7.6015,7.6015,7.6015,7.6015,7.6015,7.6015,7.6015,7.5899,7.5668,7.5014,7.4168,7.3168,7.2514,7.1745,0.0,5.6895,0.0,6.2108,6.2438,6.2622,0.0,0.0,6.8274,6.9889,7.2716,7.4918,7.4918,7.624,7.7304,7.7304,7.7304,7.7304,7.7304,7.7304,7.7304,7.7304,7.7304,7.7304,7.7304,7.7304,7.7304,7.7304,7.7304,7.7304,7.7304,7.7304,7.7304,7.7304,7.7304,7.7304,7.7304,7.7304,7.7304,7.7304,7.7304,7.7304,7.7304,7.7304,7.7304,7.7304,7.7304,7.7304,7.7304,7.7304,7.7304,7.7304,7.7304,7.7304,7.7304,7.7304,7.7304,7.7304,7.7304,7.7304,7.7304,7.7304,7.7304,7.7304,7.7304,7.679,7.6166,7.6166,7.5579,7.4808,7.4001,7.4695,7.5387,7.4557,7.5241,7.6053,7.6015,7.6015,7.6015,7.6015,7.6015,7.6015,7.6015,7.6015,7.6015,7.6015,7.6015,7.6015,7.6015,7.6015,7.6015,7.6015,7.6015,7.6015,7.6015,7.6015,7.6015,7.6015,7.6015,7.6015,7.6015,7.6015,7.6015,7.6015,7.6015,7.5592,7.4784,7.4707,7.386,7.2283,7.2206,7.1745,0.0,0.0,0.0,6.141,6.0639,5.9905,6.5264,6.6733,6.7247,6.8311,7.1945,7.4588,7.356,7.5542,7.7304,7.7304,7.7304,7.7304,7.7304,7.7304,7.7304,7.7304,7.7304,7.7304,7.7304,7.7304,7.7304,7.7304,7.635,7.624,7.7268,7.635,7.624,7.7304,7.7304,7.7304,7.7304,7.7304,7.7304,7.7304,7.7304,7.7304,7.7304,7.7304,7.7304,7.7304,7.7304,7.7304,7.7304,7.7304,7.7304,7.7304,7.7304,7.7304,7.7304,7.7304,7.7304,7.7304,7.7304,7.7304,7.7231,7.6717,7.6533,7.6423,7.5946,7.5579,7.5322,7.5322,7.4771,7.4074,7.378,7.4211,7.4842,7.5315,7.5686,7.6015,7.6015,7.6015,7.6015,7.6015,7.6015,7.6015,7.6015,7.6015,7.6015,7.6015,7.6015,7.6015,7.6015,7.6015,7.6015,7.6015,7.6015,7.6015,7.6015,7.6015,7.6015,7.6015,7.6015,7.6015,7.6015,7.6015,7.6015,7.6015,7.5438,7.5014,7.4707,7.4168,7.3322,7.2168,7.1629,7.1206,5.5023,0.0,0.0,0.0,5.8584,5.8143,6.3282,6.5521,6.6733,6.7504,7.1321,7.4258,7.345,7.5285,7.7011,7.7268,7.7304,7.7304,7.7304,7.7304,7.7304,7.7304,7.7304,7.7304,7.7304,7.7304,7.7304,7.7304,7.6313,0.0,7.7268,7.6313,7.6203,7.7304,7.7304,7.7304,7.7304,7.7304,7.7304,7.7304,7.7304,7.7304,7.7304,7.7304,7.7304,7.7304,7.7304,7.7304,7.7304,7.7304,7.7304,7.7304,7.7304,7.7304,7.7304,7.7304,7.7304,7.7304,7.7304,7.7157,7.6827,7.6276,7.5909,7.5616,7.5065,7.4735,7.4515,7.4515,7.3927,7.3303,7.3303,7.3801,7.4588,7.5756,7.6015,7.6015,7.6015,7.6015,7.6015,7.6015,7.6015,7.6015,7.6015,7.6015,7.6015,7.6015,7.6015,7.6015,7.6015,7.6015,7.6015,7.6015,7.6015,7.6015,7.6015,7.6015,7.6015,7.6015,7.6015,7.6015,7.6015,7.6015,7.6015,7.6015,7.513,7.4591,7.4322,7.3476,7.2629,7.1745,7.1168,7.0898,0.0,0.0,0.0,0.0,5.6161,5.7409,5.9795,6.3466,6.6623,6.743,7.0807,7.3854,7.4661,7.5506,7.635,7.7157,7.7304,7.7304,7.7304,7.7304,7.7304,7.7304,7.7304,7.7304,7.7304,7.7304,7.7304,7.7304,7.7268,7.7268,7.7304,7.7304,7.7304,7.7304,7.7304,7.7304,7.7304,7.7304,7.7304,7.7304,7.7304,7.7304,7.7304,7.7304,7.7304,7.7304,7.7304,7.7304,7.7304,7.7304,7.7304,7.7304,7.7304,7.7304,7.7304,7.7304,7.7304,7.7268,7.7268,7.6754,7.6056,7.6056,7.5506,7.4882,7.4845,7.4294,7.367,7.367,7.3083,7.2496,7.2553,7.3442,7.4588,7.5756,7.6015,7.6015,7.6015,7.6015,7.6015,7.6015,7.6015,7.6015,7.6015,7.6015,7.6015,7.6015,7.6015,7.6015,7.6015,7.6015,7.6015,7.6015,7.6015,7.6015,7.6015,7.6015,7.6015,7.6015,7.6015,7.6015,7.6015,7.6015,7.5976,7.5976,7.513,7.4284,7.3476,7.2591,7.1745,7.0898,7.0898,7.0898,5.3225,0.0,0.0,0.0,0.0,0.0,5.8253,6.1337,6.409,6.4897,6.8752,7.2055,7.2275,7.3927,7.5506,7.6313,7.6937,7.7304,7.7304,7.7304,7.7304,7.7304,7.7304,7.7304,7.7304,7.7304,7.7304,0.0,7.624,7.6093,7.7268,7.7304,7.7304,7.7304,7.7304,7.7304,7.7304,7.7304,7.7304,7.7304,7.7304,7.7304,7.7304,7.7304,7.7304,7.7304,7.7304,7.7304,7.7304,7.7304,7.7304,7.7304,7.7304,7.7304,7.7304,7.7304,7.6937,7.6423,7.6423,7.5909,7.5139,7.4551,7.4221,7.3927,7.334,7.301,7.2826,7.2826,7.2679,7.2686,7.359,7.4341,7.5054,7.5818,7.6015,7.6015,7.6015,7.6015,7.6015,7.6015,7.6015,7.6015,7.6015,7.6015,7.6015,7.6015,7.6015,7.6015,7.6015,7.6015,7.6015,7.6015,7.6015,7.6015,7.6015,7.6015,7.6015,7.6015,7.6015,7.6015,7.6015,7.6015,7.5707,7.5091,7.4245,7.3399,7.2552,7.2322,7.1745,7.0898,7.0898,7.0898,0.0,0.0,0.0,0.0,0.0,0.0,5.807,6.1263,6.409,6.4934,6.8678,7.1615,7.0917,7.2239,7.356,7.4037,7.4771,7.5799,7.7121,7.7304,7.7304,7.7304,7.7304,7.7304,7.7304,7.7304,7.7304,7.7304,7.646,7.6313,7.7268,7.7304,7.7304,7.7304,7.7304,7.7304,7.7304,7.7304,7.7304,7.7304,7.7304,7.7304,7.7304,7.7304,7.7304,7.7304,7.7304,7.7304,7.7304,7.7304,7.7304,7.7304,7.7304,7.7121,7.6827,7.6827,7.6313,7.5616,7.5616,7.5065,7.4331,7.3854,7.345,7.312,7.2642,7.2496,7.2496,7.2496,7.2686,7.3066,7.4072,7.471,7.5271,7.5848,7.6015,7.6015,7.6015,7.6015,7.6015,7.6015,7.6015,7.6015,7.6015,7.6015,7.6015,7.6015,7.6015,7.6015,7.6015,7.6015,7.6015,7.6015,7.6015,7.6015,7.6015,7.6015,7.6015,7.6015,7.6015,7.6015,7.6015,7.5668,7.5207,7.4707,7.3553,7.2514,7.1668,7.1668,7.1398,7.0898,7.0898,7.0898,0.0,0.0,0.0,0.0,0.0,0.0,5.8437,6.1887,6.4897,6.5778,6.8862,7.1027,6.9816,7.0146,7.066,7.077,7.1394,7.301,7.6313,7.6937,7.7011,7.6937,7.7084,7.7231,7.7304,7.7304,7.7304,7.7304,7.7304,7.7304,7.7304,7.7304,7.7304,7.7304,7.7304,7.7304,7.7304,7.7304,7.7304,7.7304,7.7304,7.7304,7.7304,7.7304,7.7304,7.7304,7.7304,7.7304,7.7304,7.7304,7.7304,7.7304,7.7231,7.6754,7.6093,7.6019,7.5469,7.4771,7.4771,7.4258,7.356,7.356,7.3083,7.2496,7.2496,7.2496,7.2496,7.2496,7.2943,7.3541,7.4161,7.471,7.5271,7.5848,7.6015,7.6015,7.6015,7.6015,7.6015,7.6015,7.6015,7.6015,7.6015,7.6015,7.6015,7.6015,7.6015,7.6015,7.6015,7.6015,7.6015,7.6015,7.6015,7.6015,7.6015,7.6015,7.6015,7.6015,7.6015,7.6015,7.6015,7.5168,7.4668,7.4591,7.2899,7.1668,7.0898,7.0898,7.0898,7.0898,7.0898,7.0898,0.0,0.0,0.0,0.0,0.0,0.0,5.7005,5.8914,6.0823,6.2254,6.3686,6.5007,6.6072,6.6366,6.6696,6.732,6.7577,6.9009,7.2899,7.4551,7.5139,7.4478,7.5542,7.6607,7.7268,7.7304,7.7304,7.7304,7.7304,7.7304,7.7304,7.7304,7.7304,7.7304,7.7304,7.7304,7.7304,7.7304,7.7304,7.7304,7.7304,7.7304,7.7304,7.7304,7.7304,7.7304,7.7304,7.7304,7.7304,7.7304,7.7304,7.7268,7.6607,7.624,7.6019,7.5395,7.4625,7.3927,7.3927,7.3413,7.2716,7.2716,7.2642,7.2496,7.2496,7.2496,7.2496,7.2496,7.2943,7.3541,7.4161,7.471,7.5271,7.5848,7.6015,7.6015,7.6015,7.6015,7.6015,7.6015,7.6015,7.6015,7.6015,7.6015,7.6015,7.6015,7.6015,7.6015,7.6015,7.6015,7.6015,7.6015,7.6015,7.6015,7.6015,7.6015,7.6015,7.6015,7.6015,7.6015,7.6015,7.5168,7.4399,7.3745,7.2052,7.1052,7.0898,7.0898,7.0898,7.0898,7.0898,7.0898,0.0,0.0,0.0,5.5317,0.0,0.0,0.0,5.8951,6.0639,6.141,6.2915,6.3943,6.3539,6.3796,6.4053,6.4053,6.4383,6.5375,6.7393,7.0807,7.3413,7.4221,7.5028,7.5652,7.6093,7.613,7.6276,7.668,7.6717,7.69,7.7304,7.7304,7.7304,7.7304,7.7304,7.7304,7.7304,7.7304,7.7304,7.7304,7.7304,7.7304,7.7304,7.7304,7.7304,7.7304,7.7304,7.7084,7.6717,7.6717,7.6497,7.613,7.6093,7.5616,7.4845,7.4441,7.378,7.3083,7.3083,7.2826,7.2496,7.2496,7.2496,7.2496,7.2496,7.2496,7.2496,7.2496,7.2943,7.3541,7.4161,7.471,7.5271,7.5848,7.6015,7.6015,7.6015,7.6015,7.6015,7.6015,7.6015,7.6015,7.6015,7.6015,7.6015,7.6015,7.6015,7.6015,7.6015,7.6015,7.6015,7.6015,7.6015,7.6015,7.6015,7.6015,7.6015,7.6015,7.6015,7.6015,7.6015,7.4784,7.3514,7.2245,7.136,7.0898,7.0898,7.0898,7.0898,7.0898,7.0898,7.0898,0.0,0.0,0.0,0.0,0.0,5.7005,0.0,0.0,0.0,6.0896,6.2511,6.3282,6.1263,6.1447,6.163,6.0823,6.1337,6.1998,6.2291,6.6439,7.0293,7.2569,7.3083,7.334,7.3523,7.3927,7.4698,7.5799,7.5873,7.624,7.7047,7.7084,7.7157,7.7304,7.7304,7.7304,7.7304,7.7304,7.7304,7.7304,7.7304,7.7304,7.7304,7.7304,7.7304,7.7304,7.7157,7.6717,7.6093,7.5946,7.5395,7.4735,7.5395,7.4845,7.367,7.3523,7.3046,7.2496,7.2496,7.2496,7.2496,7.2496,7.2496,7.2496,7.2496,7.2496,7.2496,7.263,7.305,7.3553,7.4293,7.4789,7.5271,7.5848,7.6015,7.6015,7.6015,7.6015,7.6015,7.6015,7.6015,7.6015,7.6015,7.6015,7.6015,7.6015,7.6015,7.6015,7.6015,7.6015,7.6015,7.6015,7.6015,7.6015,7.6015,7.6015,7.6015,7.6015,7.6015,7.5938,7.5745,7.413,7.2514,7.0937,7.0898,7.0898,7.0898,7.0898,7.0898,7.0898,7.0898,7.0898,0.0,0.0,0.0,0.0,5.6822,0.0,0.0,0.0,5.84,5.84,0.0,5.8731,0.0,0.0,0.0,5.7483,5.8033,5.9024,6.0493,6.1851,6.3356,6.5118,6.6586,6.7724,6.8421,7.044,7.2642,7.4882,7.5065,7.5395,7.6203,7.624,7.657,7.7304,7.7304,7.7304,7.7304,7.7304,7.7304,7.7304,7.7304,7.7304,7.7304,7.7304,7.7304,7.7268,7.657,7.6166,7.6056,7.5322,7.4551,7.3854,7.3927,7.3854,7.3597,7.2899,7.2569,7.2496,7.2496,7.2496,7.2496,7.2496,7.2496,7.2496,7.2496,7.2496,7.2573,7.3172,7.3341,7.3651,7.4711,7.5054,7.5271,7.5848,7.6015,7.6015,7.6015,7.6015,7.6015,7.6015,7.6015,7.6015,7.6015,7.6015,7.6015,7.6015,7.6015,7.6015,7.6015,7.6015,7.6015,7.6015,7.6015,7.6015,7.6015,7.6015,7.6015,7.6015,7.6015,7.5668,7.4899,7.3245,7.1898,7.0937,7.0898,7.0898,7.0898,7.0898,7.0898,7.0898,7.0898,7.0898,0.0,0.0,0.0,0.0,0.0,0.0,0.0,0.0,5.7997,0.0,0.0,0.0,0.0,0.0,0.0,0.0,5.7776,5.8253,5.8914,5.9281,6.0823,6.4383,6.5411,0.0,6.8238,6.8054,6.9009,7.1908,7.2129,7.2459,7.3266,7.4661,7.5763,7.6607,7.6607,7.6827,7.7304,7.7304,7.7304,7.7304,7.7304,7.7304,7.7304,7.7304,7.7047,7.6607,7.624,7.5579,7.4661,7.4331,7.3744,7.301,7.301,7.301,7.2973,7.2606,7.2496,7.2496,7.2496,7.2496,7.2496,7.2496,7.2496,7.2496,7.2496,7.2496,7.263,7.3224,7.3391,7.3651,7.479,7.5091,7.5271,7.5848,7.6015,7.6015,7.6015,7.6015,7.6015,7.6015,7.6015,7.6015,7.6015,7.6015,7.6015,7.6015,7.6015,7.6015,7.6015,7.6015,7.6015,7.6015,7.6015,7.6015,7.6015,7.6015,7.6015,7.6015,7.5515,7.4861,7.4053,7.2822,7.1783,7.0937,7.0898,7.0898,7.0898,7.0898,7.0898,7.0898,7.0898,7.0898,6.1263,0.0,0.0,0.0,0.0,0.0,0.0,0.0,0.0,0.0,0.0,0.0,0.0,0.0,0.0,0.0,0.0,5.785,5.7409,5.7519,5.8988,6.2548,6.3576,0.0,0.0,6.5668,6.6182,6.8311,6.9265,7.011,7.0954,7.3266,7.4955,7.5763,7.5763,7.6166,7.6974,7.6974,7.7084,7.7304,7.7304,7.7194,7.6974,7.6974,7.6533,7.5763,7.5542,7.4771,7.367,7.345,7.3046,7.2496,7.2496,7.2496,7.2496,7.2496,7.2496,7.2496,7.2496,7.2496,7.2496,7.2496,7.2496,7.2496,7.2496,7.2496,7.263,7.3442,7.3541,7.3699,7.5017,7.5236,7.5271,7.5848,7.6015,7.6015,7.6015,7.6015,7.6015,7.6015,7.6015,7.6015,7.6015,7.6015,7.6015,7.6015,7.6015,7.6015,7.6015,7.6015,7.6015,7.6015,7.6015,7.6015,7.6015,7.6015,7.5899,7.5668,7.4861,7.4014,7.3168,7.2322,7.1552,7.0898,7.0898,7.0898,7.0898,7.0898,7.0898,7.0898,7.0898,7.0898,0.0,0.0,0.0,6.2181,0.0,0.0,0.0,0.0,5.7997,0.0,0.0,0.0,0.0,0.0,0.0,0.0,0.0,0.0,0.0,5.6345,5.6895,5.7042,5.9134,0.0,0.0,6.3025,6.5007,0.0,6.7173,6.9302,7.011,7.2422,7.4111,7.4918,7.4955,7.5322,7.613,7.613,7.6533,7.7304,7.7304,7.69,7.613,7.613,7.5689,7.4918,7.4111,7.3744,7.3634,7.2863,7.2532,7.2496,7.2496,7.2496,7.2496,7.2496,7.2496,7.2496,7.2496,7.2496,7.2496,7.2496,7.2496,7.2496,7.2496,7.2496,7.2742,7.3934,7.3841,7.3794,7.5518,7.5551,7.5271,7.5848,7.6015,7.6015,7.6015,7.6015,7.6015,7.6015,7.6015,7.6015,7.6015,7.6015,7.6015,7.6015,7.6015,7.6015,7.6015,7.6015,7.6015,7.6015,7.6015,7.6015,7.6015,7.6015,7.563,7.4784,7.3976,7.3168,7.2283,7.1398,7.0937,7.0898,7.0898,7.0898,7.0898,7.0898,7.0898,7.0898,7.0898,7.0898,0.0,0.0,6.7504,6.6659,0.0,0.0,0.0,0.0,0.0,0.0,0.0,0.0,0.0,0.0,0.0,0.0,0.0,0.0,0.0,0.0,5.4436,5.4436,5.6088,0.0,0.0,0.0,0.0,0.0,6.3429,0.0,6.4457,6.8311,7.0881,7.1688,7.3266,7.4478,7.5322,7.5322,7.5432,7.5726,7.5726,7.5579,7.5322,7.5322,7.4882,7.4074,7.3817,7.3377,7.2899,7.2606,7.2496,7.2496,7.2496,7.2496,7.2496,7.2496,7.2496,7.2496,7.2496,7.2496,7.2496,7.2496,7.2496,7.2496,7.2496,7.2496,7.2686,7.3492,7.359,7.3602,7.4629,7.498,7.5127,7.5379,7.5718,7.6015,7.6015,7.6015,7.6015,7.6015,7.6015,7.6015,7.6015,7.6015,7.6015,7.6015,7.6015,7.6015,7.6015,7.6015,7.6015,7.6015,7.6015,7.6015,7.6015,7.6015,7.563,7.4784,7.3937,7.3129,7.2245,7.136,7.0898,7.0898,7.0898,7.0898,7.0898,7.0898,7.0898,7.0898,7.0898,7.0898,6.9889,7.0183,0.0,6.9119,6.7724,0.0,6.5521,0.0,0.0,0.0,0.0,0.0,0.0,0.0,0.0,0.0,0.0,0.0,0.0,5.3775,0.0,5.2784,5.4693,0.0,0.0,0.0,0.0,0.0,0.0,0.0,0.0,6.6256,6.9155,6.9669,7.2018,7.367,7.4478,7.4478,7.4625,7.4918,7.4918,7.4771,7.4478,7.4478,7.4037,7.3266,7.3266,7.2973,7.2496,7.2496,7.2496,7.2496,7.2496,7.2496,7.2496,7.2496,7.2496,7.2496,7.2496,7.2496,7.2496,7.2496,7.2496,7.2496,7.2496,7.2496,7.2777,7.3892,7.3722,7.3438,7.5054,7.5127,7.4943,7.5306,7.5718,7.6015,7.6015,7.6015,7.6015,7.6015,7.6015,7.6015,7.6015,7.6015,7.6015,7.6015,7.6015,7.6015,7.6015,7.6015,7.6015,7.6015,7.6015,7.6015,7.6015,7.5707,7.5168,7.4322,7.3514,7.2668,7.1783,7.1206,7.1321,7.2245,7.136,7.136,7.2245,7.1321,7.0898,7.0898,7.0898,7.0898]},{"header":{"parameterUnit":"m.s-1","parameterCategory":1,"la1":30.6,"la2":29.2853,"lo1":-89.7004,"lo2":-87.6739,"dy":0.0162,"dx":0.0183,"nx":112,"ny":82,"refTime":"2024-04-18T12:00:00:Z","depth":0,"parameterNumber":3,"parameterNumberName":"V-component_of_WINDS"},"data":[0.0,0.0,0.0,0.0,0.0,0.0,0.0,0.0,0.0,0.0,0.0,0.0,0.0,0.0,0.0,0.0,0.0,0.0,0.0,0.0,0.0,0.0,0.0,0.0,0.0,0.0,0.0,0.0,0.0,0.0,0.0,0.0,0.0,0.0,0.0,0.0,0.0,0.0,0.0,0.0,0.0,0.0,0.0,0.0,0.0,0.0,0.0,0.0,0.0,0.0,0.0,0.0,0.0,0.0,0.0,0.0,0.0,0.0,0.0,0.0,0.0,0.0,0.0,0.0,0.0,0.0,0.0,0.0,0.0,0.0,0.0,0.0,0.0,0.0,0.0,0.0,0.0,0.0,0.0,0.0,0.0,0.0,0.0,0.0,0.0,0.0,0.0,0.0,0.0,0.0,0.0,0.6549,0.6221,0.4967,0.188,0.161,0.118,0.0124,0.0,0.0,0.0,0.0,0.0,0.0,0.0,0.0,0.0,0.0,0.0,0.0,0.0,0.0,0.0,0.0,0.0,0.0,0.0,0.0,0.0,0.0,0.0,0.0,0.0,0.0,0.0,0.0,0.0,0.0,0.0,0.0,0.0,0.0,0.0,0.0,0.0,0.0,0.0,0.0,0.0,0.0,0.0,0.0,0.0,0.0,0.0,0.0,0.0,0.0,0.0,0.0,0.0,0.0,0.0,0.0,0.0,0.0,0.0,0.0,0.0,0.0,0.0,0.0,0.0,0.0,0.0,0.0,0.0,0.0,0.0,0.0,0.0,0.0,0.0,0.0,0.0,0.0,0.0,0.0,0.0,0.0,0.0,0.0,0.0,0.0,0.0,0.0,0.0,0.0,0.0,0.0,0.0,0.0,0.0,0.0,0.0,0.0,0.0,0.0,0.0,0.0,0.0,0.0,1.0543,1.0016,0.985,0.9606,0.908,0.9063,0.6448,0.0372,0.0,0.0,0.0,0.0,0.0,0.0,0.0,0.0,0.0,0.0,0.0,0.0,0.0,0.0,0.0,0.0,0.0,0.0,0.0,0.0,0.0,0.0,0.0,0.0,0.0,0.0,0.0,0.0,0.0,0.0,0.0,0.0,0.0,0.0,0.0,0.0,0.0,0.0,0.0,0.0,0.0,0.0,0.0,0.0,0.0,0.0,0.0,0.0,0.0,0.0,0.0,0.0,0.0,0.0,0.0,0.0,0.0,0.0,0.0,0.0,0.0,0.0,0.0,0.0,0.0,0.0,0.0,0.0,0.0,0.0,0.0,0.0,0.0,0.0,0.0,0.0,0.0,0.0,0.0,0.0,0.0,0.0,0.0,0.0,0.0,0.0,0.0,0.0,0.0,0.0,0.0,0.0,0.0,0.0,0.0,0.0,0.0,0.0,0.0,0.0,0.0,0.0,0.0,0.9265,1.0725,1.0744,1.0652,0.9984,0.7957,0.96,0.8978,0.5084,0.4787,0.0,0.0,0.0,0.0,0.0,0.0,0.0,0.0,0.0,0.0,0.0,0.0,0.0,0.0,0.0,0.0,0.0,0.0,0.0,0.0,0.0,0.0,0.0,0.0,0.0,0.0,0.0,0.0,0.0,0.0,0.0,0.0,0.0,0.0,0.0,0.0,0.0,0.0,0.0,0.0,0.0,0.0,0.0,0.0,0.0,0.0,0.0,0.0,0.0,0.0,0.0,0.0,0.0,0.0,0.0,0.0,0.0,0.0,0.0,0.0,0.0,0.0,0.0,0.0,0.0,0.0,0.0,0.0,0.0,0.0,0.0,0.0,0.0,0.0,0.0,0.0,0.0,0.0,0.0,0.0,0.0,0.0,0.0,0.0,0.0,0.0,0.0,0.0,0.0,0.0,0.0,0.0,0.0,0.0,0.0,0.0,0.0,0.0,0.0,0.0,0.0,0.0,1.0397,1.0609,1.0717,1.0744,0.9267,0.5767,0.8622,0.9895,0.7954,0.8541,0.0,0.0,0.0,0.0,0.0,0.0,0.0,0.0,0.0,0.0,0.0,0.0,0.0,0.0,0.0,0.0,0.0,0.0,0.0,0.0,0.0,0.0,0.0,0.0,0.0,0.0,0.0,0.0,0.0,0.0,0.0,0.0,0.0,0.0,0.0,0.0,0.0,0.0,0.0,0.0,0.0,0.0,0.0,0.0,0.0,0.0,0.0,0.0,0.0,0.0,0.0,0.0,0.0,0.0,0.0,0.0,0.0,0.0,0.0,0.0,0.0,0.0,0.0,0.0,0.0,0.0,0.0,0.0,0.0,0.0,0.0,0.0,0.0,0.0,0.0,0.0,0.0,0.0,0.0,0.0,0.0,0.0,0.0,0.0,0.0,0.0,0.0,0.0,0.0,0.0,0.0,0.0,0.0,0.0,0.0,0.0,0.0,0.0,0.0,0.0,0.0,0.0,0.9985,1.027,1.0704,1.0751,0.9267,0.5767,0.8595,0.9051,0.506,0.775,0.0,0.0,0.0,0.0,0.0,0.0,0.0,0.0,0.0,0.0,0.0,0.0,0.0,0.0,0.0,0.0,0.0,0.0,0.0,0.0,0.0,0.0,0.0,0.0,0.0,0.0,0.0,0.0,0.0,0.0,0.0,0.0,0.0,0.0,0.0,0.0,0.0,0.0,0.0,0.0,0.0,0.0,0.0,0.0,0.0,0.0,0.0,0.0,0.0,0.0,0.0,0.0,0.0,0.0,0.0,0.0,0.0,0.0,0.0,0.0,0.0,0.0,0.0,0.0,0.0,0.0,0.0,0.0,0.0,0.0,0.0,0.0,0.0,0.0,0.0,0.0,0.0,0.0,0.0,0.0,0.0,0.0,0.0,0.0,0.0,0.0,0.0,0.0,0.0,0.0,0.0,0.0,0.0,0.0,0.0,0.0,0.0,0.0,0.0,0.0,0.0,0.0,1.0202,1.0534,0.0,1.0744,1.0212,0.8862,0.9958,0.9856,0.7787,0.0,0.0,0.0,0.0,0.0,0.0,0.0,0.0,0.0,0.0,0.0,0.0,0.0,0.0,0.0,0.0,0.0,0.0,0.0,0.0,0.0,0.0,0.0,0.0,0.0,0.0,0.0,0.0,0.0,0.0,0.0,0.0,0.0,0.0,0.0,0.0,0.0,0.0,0.0,0.0,0.0,0.0,0.0,0.0,0.0,0.0,0.0,0.0,0.0,0.0,0.0,0.0,0.0,0.0,0.0,0.0,0.0,0.0,0.0,0.0,0.0,0.0,0.0,0.0,0.0,0.0,0.0,0.0,0.0,0.0,0.0,0.0,0.0,0.0,0.0,0.0,0.0,0.0,0.0,0.0,0.0,0.0,0.0,0.0,0.0,0.0,0.0,0.0,0.0,0.0,0.0,0.0,0.0,0.0,0.0,0.0,0.0,0.0,0.0,0.0,0.0,0.0,0.9951,1.0453,1.0812,0.0,1.0873,1.0887,1.0887,1.0867,1.0457,0.9718,0.0,0.0,0.0,0.0,0.0,0.0,0.0,0.0,0.0,0.0,0.0,0.0,0.0,0.0,0.0,0.0,0.0,0.0,0.0,0.0,0.0,0.0,0.0,0.0,0.0,0.0,0.0,0.0,0.0,0.0,0.0,0.0,0.0,0.0,0.0,0.0,0.0,0.0,0.0,0.0,0.0,0.0,0.0,0.0,0.0,0.0,0.0,0.0,0.0,0.0,0.0,0.0,0.0,0.0,0.0,0.0,0.0,0.0,0.0,0.0,0.0,0.0,0.0,0.0,0.0,0.0,0.0,0.0,0.0,0.0,0.0,0.0,0.0,0.0,0.0,0.0,0.0,0.0,0.0,0.0,0.0,0.0,0.0,0.0,0.0,0.0,0.0,0.0,0.0,0.0,0.0,0.0,0.0,0.0,0.0,0.0,0.0,0.0,0.0,0.0,0.0,0.0,1.0243,1.067,1.1002,1.1151,1.1165,1.1165,1.1165,1.1029,1.069,0.0,0.0,0.0,0.0,0.0,0.0,0.0,0.0,0.0,0.0,0.0,0.0,0.0,0.0,0.0,0.0,0.0,0.0,0.0,0.0,0.0,0.0,0.0,0.0,0.0,0.0,0.0,0.0,0.0,0.0,0.0,0.0,0.0,0.0,0.0,0.0,0.0,0.0,0.0,0.0,0.0,0.0,0.0,0.0,0.0,0.0,0.0,0.0,0.0,0.0,0.0,0.0,0.0,0.0,0.0,0.0,0.0,0.0,0.0,0.0,0.0,0.0,0.0,0.0,0.0,0.0,0.0,0.0,0.0,0.0,0.0,0.0,0.0,0.0,0.0,0.0,0.0,0.0,0.0,0.0,0.0,0.0,0.0,0.0,0.0,0.0,0.0,0.0,0.0,0.0,0.0,0.0,0.0,0.0,0.0,0.0,0.0,0.0,0.0,0.0,0.0,0.0,0.0,1.027,1.0758,1.1118,1.1158,1.1165,1.1165,1.1165,1.1124,1.0799,1.0093,0.0,0.0,0.0,0.0,0.0,0.0,0.0,0.0,0.0,0.0,0.0,0.0,0.0,0.0,0.0,0.0,0.0,0.0,0.0,0.0,0.0,0.0,0.0,0.0,0.0,0.0,0.0,0.0,0.0,0.0,0.0,0.0,0.0,0.0,0.0,0.0,0.0,0.0,0.0,0.0,0.0,0.0,0.0,0.0,0.0,0.0,0.0,0.0,0.0,0.0,0.0,0.0,0.0,0.0,0.0,0.0,0.0,0.0,0.0,0.0,0.0,0.0,0.0,0.0,0.0,0.0,0.0,0.0,0.0,0.0,0.0,0.0,0.0,0.0,0.0,0.0,0.0,0.0,0.0,0.0,0.0,0.0,0.0,0.0,0.0,0.0,0.0,0.0,0.0,0.0,0.0,0.0,0.0,0.0,0.0,0.0,0.0,0.0,0.0,0.0,0.0,0.0,1.0351,1.0887,1.1274,1.1341,1.1348,1.1348,1.1348,1.1287,1.1009,1.0446,0.0,0.0,0.0,0.0,0.0,0.0,0.0,0.0,0.0,0.0,0.0,0.0,0.0,0.0,0.0,0.0,0.0,0.0,0.0,0.0,0.0,0.0,0.0,0.0,0.0,0.0,0.0,0.0,0.0,0.0,0.0,0.0,0.0,0.0,0.0,0.0,0.0,0.0,0.0,0.0,0.0,0.0,0.0,0.0,0.0,0.0,0.0,0.0,0.0,0.0,0.0,0.0,0.0,0.0,0.0,0.0,0.0,0.0,0.0,0.0,0.0,0.0,0.0,0.0,0.0,0.0,0.0,0.0,0.0,0.0,0.0,0.0,0.0,0.0,0.0,0.0,0.0,0.0,0.0,0.0,0.0,0.0,0.0,0.0,0.0,0.0,0.0,0.0,0.0,0.0,0.0,0.0,0.0,0.0,0.0,0.0,0.0,0.0,0.0,0.0,0.0,0.0,1.046,1.1029,1.1463,1.1606,1.1619,1.1619,1.1619,1.1491,1.128,1.0968,0.0,0.0,0.0,0.0,0.0,0.0,0.0,0.0,0.0,0.0,0.0,0.0,0.0,0.0,0.0,0.0,0.0,0.0,0.0,0.0,0.0,0.0,0.0,0.0,0.0,0.0,0.0,0.0,0.0,0.0,0.0,0.0,0.0,0.0,0.0,0.0,0.0,0.0,0.0,0.0,0.0,0.0,0.0,0.0,0.0,0.0,0.0,0.0,0.0,0.0,0.0,0.0,0.0,0.0,0.0,0.0,0.0,0.0,0.0,0.0,0.9442,0.0,0.0,0.0,0.0,0.0,0.0,0.0,0.0,0.0,0.0,0.0,0.0,0.0,0.0,0.0,0.0,0.0,0.0,0.0,0.0,0.0,0.0,0.0,0.0,0.0,0.0,0.0,0.0,0.0,0.0,0.0,0.0,0.0,0.0,0.0,0.0,0.0,0.0,0.0,0.0,0.0,1.048,1.1124,1.1586,1.1613,1.1619,1.1619,1.1619,1.1592,1.1389,1.0975,1.0799,0.0,0.0,0.0,0.0,0.0,0.0,0.0,0.0,0.0,0.0,0.0,0.0,0.0,0.0,0.0,0.0,0.0,0.0,0.0,0.0,0.0,0.0,0.0,0.0,0.0,0.0,0.0,0.0,0.0,0.0,0.0,0.0,0.0,0.0,0.0,0.0,0.0,0.0,0.0,0.0,0.0,0.0,0.0,0.0,0.0,0.0,0.0,0.0,0.0,0.0,0.0,0.0,0.0,0.0,0.0,0.0,0.0,0.0,0.0,0.0,0.9469,0.0,0.0,0.0,0.0,0.0,0.0,0.0,0.0,0.0,0.0,0.0,0.0,0.0,0.0,0.0,0.0,0.0,0.0,0.0,0.0,0.0,0.0,0.0,0.0,0.0,0.0,0.0,0.0,0.0,0.0,0.0,0.0,0.0,0.0,0.0,0.0,0.0,0.0,0.0,0.0,1.0392,1.1111,1.1619,1.1619,1.1619,1.1619,1.1619,1.1619,1.1518,1.1287,1.107,0.0,0.0,0.0,0.0,0.0,0.0,0.0,0.0,0.0,0.0,0.0,0.0,0.0,0.0,0.0,0.0,0.0,0.0,0.0,0.0,0.0,0.0,0.0,0.0,0.0,0.0,0.0,0.0,0.0,0.0,0.0,0.0,0.0,0.0,0.0,0.0,0.0,0.0,0.0,0.0,0.0,0.0,0.0,0.0,0.0,0.0,0.0,0.0,0.0,0.0,0.0,0.0,0.0,0.9897,0.9992,1.0019,1.0019,0.9951,0.9856,1.0019,1.0148,1.0209,0.9836,0.0,0.0,0.0,0.0,0.0,0.0,0.0,0.0,0.0,0.0,0.0,0.0,0.0,0.0,0.0,0.0,0.0,0.0,0.0,0.0,0.0,0.0,0.0,0.0,0.9978,0.9958,0.0,0.0,0.0,0.0,0.0,0.0,0.0,0.0,0.0,0.0,0.0,0.0,1.0317,1.1124,1.1694,1.1694,1.1694,1.1694,1.1694,1.1674,1.1653,1.1653,1.1287,1.1084,0.0,0.0,0.0,0.0,0.0,0.0,0.0,0.0,0.0,0.0,0.0,0.0,0.0,0.0,0.0,0.0,0.0,0.0,0.0,0.0,0.0,0.0,0.0,0.0,0.0,0.0,0.0,0.0,0.0,0.0,0.0,0.0,0.8913,0.9306,0.0,0.0,0.0,0.0,0.0,0.0,0.0,0.0,0.0,0.0,0.0,0.0,0.0,0.9571,0.9673,1.0019,1.0195,1.0195,1.0473,1.067,1.0799,1.0799,1.0792,1.0751,1.0399,0.0,1.0073,1.0019,0.0,0.0,0.0,0.0,0.0,0.0,0.0,0.0,0.0,0.0,0.0,0.0,0.0,0.0,0.0,0.0,0.0,0.0,0.0,0.0,0.0,0.0,1.0724,1.0785,1.0595,1.0514,0.0,1.0243,0.9734,1.027,1.0093,0.0,0.0,0.0,0.0,0.0,0.0,0.0,1.0466,1.1362,1.2006,1.2006,1.2006,1.2006,1.2006,1.1877,1.1803,1.1803,1.1633,1.1362,1.0995,1.1314,0.0,0.0,0.0,0.0,0.0,0.0,0.0,0.0,0.0,0.0,0.0,0.0,0.0,0.0,0.0,0.0,0.0,0.0,0.0,0.0,0.0,0.0,0.0,0.0,0.0,0.0,0.0,0.0,0.0,0.9028,0.932,0.9598,0.9483,0.93,0.0,0.0,0.0,0.0,0.0,0.0,0.0,0.0,0.0,0.9605,0.993,1.0093,1.008,1.0541,1.0819,1.0907,1.1036,1.1179,1.1328,1.1328,1.1328,1.1307,1.1029,1.0867,1.0765,1.0256,1.0053,1.0012,0.0,0.0,0.0,0.0,0.9089,0.9313,0.9313,0.9612,0.0,0.9958,0.0,0.0,0.0,0.0,0.0,0.0,0.0,0.0,0.0,0.0,1.086,1.1029,1.1036,1.105,1.1246,1.0799,1.0439,0.0,1.0521,1.0243,0.9992,0.0,0.0,0.0,0.0,1.0995,1.0995,1.1619,1.206,1.206,1.206,1.206,1.206,1.1999,1.1959,1.1959,1.1823,1.1647,1.145,1.1558,1.1314,0.0,0.0,0.0,0.0,0.0,0.0,0.0,0.0,0.0,0.0,0.0,0.0,0.0,0.0,0.0,0.0,0.0,0.0,0.0,0.0,0.0,0.0,0.0,0.0,0.0,0.0,0.0,0.0,0.9374,0.9591,0.9849,0.972,0.9551,0.0,0.0,0.0,0.0,0.0,0.0,0.9829,0.9937,1.0012,1.0066,1.0493,1.069,1.0622,1.1056,1.1335,1.145,1.145,1.1531,1.1674,1.1674,1.1674,1.1667,1.1552,1.1484,1.1389,1.0643,1.0337,1.0324,1.0209,0.9985,0.972,0.968,0.9761,0.989,0.9849,1.0127,1.0487,1.0371,1.0358,1.0344,1.0073,0.0,0.0,0.0,0.0,1.0093,1.0548,1.0778,1.0948,1.1172,1.1369,1.1504,1.1504,1.1301,1.1118,0.0,1.0968,1.0724,1.0392,0.0,0.0,0.0,0.0,1.145,1.145,1.1877,1.2176,1.2176,1.2176,1.2176,1.2176,1.2142,1.2121,1.2121,1.1972,1.187,1.183,1.1728,1.1497,1.1124,0.0,0.0,0.0,0.0,0.0,0.0,0.0,0.0,0.0,0.0,0.0,0.0,0.0,0.0,0.0,0.0,0.0,0.0,0.0,0.0,0.0,0.0,0.0,0.0,0.0,0.0,0.0,0.0,0.0,0.9971,1.0154,0.0,0.0,0.0,0.0,0.9788,0.9795,0.9998,1.0426,1.0453,1.0717,1.128,1.1328,1.1409,1.1552,1.1586,1.1599,1.1606,1.1606,1.1681,1.1823,1.1823,1.1823,1.1823,1.1809,1.1735,1.1586,1.1246,1.1104,1.1063,1.0636,1.0541,1.0582,1.0019,1.0175,1.0643,1.05,1.0744,1.1118,1.1111,1.0921,1.0588,1.0005,0.9917,0.0,0.0,1.0127,1.0466,1.0493,1.0928,1.1362,1.1375,1.1599,1.1809,1.1809,1.1694,1.1586,0.0,1.1348,1.1131,1.1111,0.0,1.1206,1.0751,1.1212,1.1606,1.1606,1.2121,1.2481,1.2481,1.2481,1.2481,1.2481,1.2352,1.2277,1.2277,1.2135,1.1986,1.1837,1.1823,1.1748,1.1592,1.1301,0.0,0.0,0.0,0.0,0.0,0.0,0.0,0.0,0.0,0.0,0.0,0.0,0.0,0.0,0.0,0.0,0.0,0.0,0.0,0.0,0.0,0.0,0.0,0.0,0.0,0.0,0.0,0.0,1.0263,1.0304,0.0,1.0202,1.0276,1.031,1.0256,1.0521,1.0799,1.1056,1.107,1.1212,1.1531,1.1626,1.1701,1.1755,1.1857,1.1952,1.2054,1.2054,1.2128,1.2264,1.2264,1.2264,1.2257,1.2169,1.2094,1.2033,1.183,1.1626,1.1443,1.128,1.1192,1.1124,1.0914,1.0907,1.0995,1.0941,1.1029,1.1165,1.1165,1.109,1.0962,1.0751,1.0724,1.0778,1.0819,1.1016,1.124,1.1328,1.1586,1.1823,1.1823,1.1904,1.1979,1.1979,1.1938,1.1904,1.1904,1.166,1.1457,1.1457,1.1742,1.185,1.1491,1.1864,1.2189,1.2189,1.2372,1.2501,1.2501,1.2501,1.2501,1.2501,1.2454,1.2427,1.2427,1.2291,1.2182,1.2128,1.1938,1.1809,1.1755,1.1558,1.124,0.0,0.0,0.0,0.0,0.0,0.0,0.0,0.0,0.0,0.0,0.0,0.0,0.0,0.0,0.0,0.0,0.0,0.0,0.0,0.0,0.0,0.0,0.0,0.0,0.0,0.0,0.9998,1.0439,1.05,1.0507,1.0507,1.0683,1.0792,1.0792,1.1118,1.1382,1.1531,1.1538,1.1633,1.1843,1.1938,1.2006,1.2054,1.2155,1.2264,1.2359,1.2359,1.2413,1.2501,1.2501,1.2447,1.2352,1.2359,1.2305,1.221,1.221,1.2094,1.1904,1.1809,1.1708,1.1619,1.1619,1.1552,1.1463,1.1463,1.1463,1.1463,1.1463,1.1463,1.1463,1.1463,1.1463,1.1484,1.1586,1.1694,1.1789,1.1884,1.1986,1.206,1.206,1.2101,1.2142,1.2142,1.206,1.2026,1.2182,1.2013,1.1796,1.1647,1.1904,1.2013,1.166,1.1857,1.2054,1.2054,1.2182,1.2277,1.2277,1.2413,1.2501,1.2501,1.2359,1.2338,1.2494,1.2271,1.2182,1.2284,1.1952,1.1735,1.1681,1.1389,1.1097,1.0799,0.0,0.0,0.0,0.0,0.0,0.0,0.0,0.0,0.0,0.0,0.0,0.0,0.0,0.0,0.0,0.0,0.0,0.0,0.0,0.0,0.0,0.0,0.0,0.9367,0.991,1.0337,1.0493,1.0778,1.0962,1.0968,1.1233,1.1402,1.1402,1.1545,1.1694,1.1837,1.1837,1.1972,1.2277,1.2284,1.2352,1.2494,1.2501,1.2508,1.2515,1.2515,1.2515,1.2515,1.2515,1.2359,1.2108,1.2386,1.2345,1.2101,1.2386,1.2501,1.2474,1.2189,1.2074,1.2067,1.2067,1.2067,1.206,1.2047,1.2047,1.206,1.206,1.206,1.206,1.206,1.206,1.206,1.206,1.2067,1.2067,1.2067,1.2074,1.2074,1.2074,1.2189,1.2298,1.2298,1.206,1.1979,1.242,1.2393,1.2155,1.1721,1.1762,1.1701,1.1267,1.1206,0.0,1.1206,1.1586,1.185,1.185,1.223,1.2488,1.2501,1.2088,1.202,1.2474,1.2094,1.1986,1.2284,1.187,1.1565,1.1416,1.0826,1.0663,1.0955,0.0,0.0,0.0,0.0,0.0,0.0,0.0,0.0,0.0,0.0,0.0,0.0,0.0,0.0,0.0,0.0,0.0,0.0,0.0,0.0,0.0,1.147,1.1649,1.028,1.0175,1.0453,1.0921,1.1151,1.1314,1.1423,1.1599,1.1708,1.1708,1.185,1.2006,1.2155,1.1952,1.1918,1.2121,1.2128,1.2196,1.2345,1.2562,1.2725,1.2834,1.2834,1.2834,1.2834,1.2834,1.2793,1.2712,1.2684,1.2623,1.2542,1.2515,1.2501,1.2494,1.2413,1.2318,1.223,1.223,1.2155,1.2013,1.1687,1.1789,1.206,1.206,1.206,1.206,1.206,1.206,1.206,1.206,1.2142,1.223,1.223,1.2305,1.2379,1.2379,1.2413,1.244,1.244,1.2379,1.2352,1.2474,1.2467,1.2406,1.2277,1.2291,1.2277,1.2155,1.2135,0.0,1.2135,1.2244,1.2318,1.2318,1.2135,1.2149,1.2474,1.2088,1.202,1.2474,1.2386,1.2352,1.244,1.223,1.2033,1.1877,1.1396,1.1131,0.0,0.0,0.0,0.0,0.0,0.0,0.0,0.0,0.0,0.0,0.0,0.0,0.0,0.0,0.0,0.0,0.0,0.0,0.0,0.0,0.0,0.0,1.3188,1.3797,1.2274,1.1916,1.1799,1.1358,1.1443,1.1613,1.1701,1.2618,1.3333,1.3333,1.3491,1.3627,1.358,1.2719,1.2189,1.2155,1.2338,1.242,1.2379,1.2678,1.2874,1.2963,1.2963,1.2963,1.2963,1.2963,1.2888,1.2773,1.2813,1.2752,1.2637,1.2678,1.2657,0.0,0.0,0.0,0.0,0.0,1.2325,1.221,1.1945,1.2026,1.2244,1.2244,1.2244,1.2244,1.2244,1.2115,1.1965,1.1965,1.1891,1.1864,1.2047,1.2162,1.2271,1.2461,1.2501,1.2501,1.2501,1.2352,1.2277,1.2467,1.2352,0.0,1.2556,1.2386,1.2155,1.1972,1.1993,1.2033,1.2033,1.2257,1.2413,1.2413,1.2345,1.2386,1.2583,1.2182,0.0,0.0,0.0,1.2223,1.2223,1.2142,0.0,0.0,0.0,1.1192,1.1165,0.0,0.0,0.0,1.0453,0.7996,0.0,0.0,0.0,0.0,0.0,0.0,0.0,0.0,0.0,0.0,0.0,0.0,0.0,0.0,0.0,0.0,1.4768,1.5822,1.4898,1.4928,1.4271,1.2023,1.1997,1.2178,1.2192,1.4066,1.5436,1.5587,1.5616,1.5727,1.5871,0.0,0.0,0.0,0.0,1.2786,1.2528,1.2834,1.315,1.3325,1.3171,1.3171,1.3325,1.3171,1.2861,1.2617,1.2874,1.2827,1.2596,1.2854,1.2881,1.2739,1.2569,1.2501,1.2494,1.2447,1.2461,1.2494,1.244,0.0,0.0,1.2501,1.2501,1.2501,1.2501,1.2223,1.1904,1.1904,1.1619,1.1402,1.1803,1.1904,1.2006,1.2406,1.2501,1.2501,1.2501,1.2189,1.2033,1.2447,1.2203,1.2108,1.2664,1.2298,1.1803,1.1423,1.1484,1.1565,1.1565,1.2033,1.2366,1.2366,0.0,0.0,1.2766,1.2345,1.2216,1.2508,1.2135,1.1904,1.1904,1.1904,1.166,1.1131,1.1111,1.1165,1.1287,1.1274,1.1402,1.1653,1.1247,1.0927,0.0,0.0,0.0,0.0,0.0,0.0,0.0,0.0,0.0,0.0,0.0,0.0,0.0,0.0,0.0,1.6816,1.8353,1.8857,1.7147,1.8656,1.8498,1.4846,1.458,1.4619,1.4765,1.5142,1.6089,1.7898,1.6726,1.6689,1.8221,1.6274,1.5122,1.5048,1.3465,1.2623,1.2684,1.2983,1.4157,1.5902,0.0,0.0,1.5902,1.4124,1.3281,1.322,1.3159,1.3098,1.3037,1.2983,1.2942,1.2888,1.261,1.2501,1.2461,1.2094,1.2189,1.2447,1.2088,1.2196,1.2501,1.2501,1.2501,1.2501,1.2501,1.244,0.0,1.2372,1.2311,1.2264,1.2352,1.2372,1.2393,1.2481,1.2501,1.2501,1.2501,1.2433,1.2433,1.2644,1.2617,1.263,1.2874,1.2718,1.2569,1.261,1.2637,1.2657,1.2657,1.2759,1.2834,1.2834,1.2583,1.2556,1.2888,1.2501,1.2372,1.2664,1.2488,1.2372,1.2372,1.2372,1.2318,1.2203,1.2088,1.2047,1.2074,1.1952,1.1918,1.1965,1.1586,1.1423,0.0,0.0,0.0,0.0,0.0,0.0,0.0,0.0,0.0,0.0,0.0,1.85,1.85,0.0,1.838,1.8641,2.016,2.0882,1.969,2.0531,2.0128,1.7054,1.6777,1.6944,1.7046,1.7967,1.9067,2.0255,1.9448,1.9563,2.077,1.8912,1.7738,1.753,1.6738,1.6213,1.6111,1.6334,1.6563,1.6647,1.5514,1.5028,1.5028,1.3887,1.3403,1.3397,1.3322,1.3288,1.3275,1.3125,1.3064,1.3044,1.282,1.2684,1.2589,1.2366,1.2372,1.2467,1.2244,1.2311,1.2501,1.2501,1.2501,1.2501,1.2501,1.2345,1.2169,1.2169,1.2006,1.1884,1.2108,1.2169,1.2223,1.2447,1.2562,1.2617,1.2617,1.2678,1.2752,1.2834,1.2847,1.2895,1.3044,1.3003,1.2956,1.2963,1.3024,1.3064,1.3064,1.3132,1.318,1.318,1.2983,1.2908,1.3057,1.2793,1.2657,1.2725,1.2657,1.2583,1.2508,1.2501,1.2501,1.2501,1.2433,1.2359,1.2291,1.221,1.2135,1.206,1.1911,1.1803,0.0,0.0,0.0,0.0,0.0,0.0,0.0,0.0,1.976,1.9639,1.9947,2.0241,2.0294,2.0748,2.0824,2.0087,2.1565,2.2532,2.1983,2.186,2.1284,1.9637,1.9361,1.9176,1.9176,2.0737,2.1905,2.2585,2.2377,2.2531,2.321,2.1412,2.0264,1.9895,1.9984,1.9796,1.958,1.9836,1.9375,1.8065,1.7572,1.6757,1.5459,1.4961,1.4622,1.4095,1.3576,1.3403,1.339,1.3268,1.3214,1.3207,1.3091,1.2949,1.2813,1.2786,1.2698,1.2589,1.2556,1.2549,1.2542,1.2515,1.2501,1.2501,1.2501,1.225,1.1959,1.1959,1.1721,1.1552,1.1911,1.2026,1.2142,1.2508,1.2684,1.2773,1.2773,1.2874,1.2969,1.2996,1.3003,1.3051,1.3193,1.3214,1.318,1.3064,1.3146,1.3214,1.3214,1.3322,1.3403,1.3403,1.3403,1.3349,1.3227,1.3085,1.2949,1.2827,1.2759,1.2678,1.2549,1.2515,1.2501,1.2501,1.2501,1.2447,1.2332,1.2332,1.2271,1.2149,1.2121,1.2026,1.8811,1.7956,0.0,1.8063,1.8584,1.8971,0.0,0.0,2.1162,2.0641,2.1176,2.1817,2.2071,2.2392,2.2739,2.2836,2.3492,2.3904,2.3879,2.4116,2.4127,2.3979,2.2335,2.1291,2.1291,2.165,2.2724,2.4612,2.3507,2.3634,2.5581,2.3757,2.275,2.2692,2.1037,2.017,2.0119,2.0538,2.1493,2.315,2.1326,2.116,2.2819,2.0827,1.8718,1.656,1.4441,1.3403,1.3397,1.3383,1.3376,1.3376,1.3356,1.3261,1.3105,1.2983,1.2922,1.2888,1.2752,1.2705,1.2684,1.2549,1.2501,1.2501,1.2501,1.2467,1.2427,1.2427,1.2488,1.2569,1.2617,1.2732,1.2847,1.2895,1.2922,1.2935,1.2935,1.2949,1.2996,1.3125,1.3152,1.32,1.3349,1.3376,1.337,1.3356,1.3363,1.3376,1.3376,1.339,1.3403,1.3403,1.3403,1.3397,1.3376,1.3234,1.3139,1.3125,1.2874,1.2725,1.2705,1.2576,1.2501,1.2501,1.2501,1.2494,1.2481,1.2481,1.2467,1.2447,1.2325,1.2182,1.8918,0.0,0.0,0.0,2.0013,2.0708,2.0708,2.1269,2.1777,2.171,2.2124,2.2592,2.2886,2.3046,2.3287,0.0,2.3901,2.4075,2.4409,2.4556,2.4636,2.4636,2.3585,2.2942,2.2942,2.3476,2.4083,2.4836,2.4739,2.5218,2.6199,2.5516,2.5155,2.532,2.4454,2.4263,2.4407,2.4528,2.4411,2.3904,2.3075,2.2411,2.2067,2.1233,2.0179,1.9256,1.8171,1.6918,1.5498,1.5498,1.4622,1.3403,1.3403,1.3363,1.3288,1.3139,1.303,1.2949,1.2888,1.2868,1.2854,1.2793,1.2766,1.2766,1.2766,1.2766,1.2766,1.2766,1.2813,1.2868,1.2868,1.2915,1.2963,1.2963,1.3024,1.3085,1.3085,1.3152,1.3234,1.3295,1.3308,1.3322,1.339,1.3403,1.3403,1.3403,1.3403,1.3403,1.3403,1.3403,1.3403,1.3403,1.3403,1.3403,1.3403,1.3342,1.3268,1.318,1.3057,1.2908,1.2739,1.2671,1.2589,1.2501,1.2501,1.2501,1.2501,1.2501,1.2501,1.2501,1.244,1.2379,1.9199,0.0,0.0,2.0481,2.1056,2.1737,2.2138,2.2231,2.2338,2.2712,2.2966,2.3207,2.3514,2.3567,2.3741,2.4249,2.4142,2.4155,2.4583,2.4636,2.4583,2.4422,2.4102,2.3768,2.3434,2.4342,2.497,2.4997,2.5665,2.6172,2.6373,2.6466,2.66,2.6814,2.6974,2.7161,2.7388,2.7468,2.6657,2.5139,2.5139,2.4294,2.2777,2.2197,2.183,2.183,2.1097,1.9805,1.8162,1.8162,1.7093,1.5331,1.4622,1.4441,1.4261,1.3617,1.3173,1.3078,1.303,1.3017,1.301,1.2976,1.2963,1.2963,1.2963,1.2963,1.2963,1.2963,1.299,1.3017,1.3017,1.3051,1.3085,1.3085,1.3159,1.3234,1.3234,1.3322,1.3403,1.3403,1.3403,1.3403,1.3403,1.3403,1.3403,1.3403,1.3437,1.3451,1.3403,1.3403,1.3403,1.3403,1.3403,1.3403,1.3403,1.3403,1.3356,1.3241,1.3193,1.3078,1.2861,1.2773,1.2678,1.2569,1.2522,1.2501,1.2501,1.2501,1.2501,1.2501,1.2501,1.2501,0.0,0.0,1.9332,2.0735,2.0895,2.1082,2.2512,2.2832,2.3006,2.3607,2.3741,2.3834,2.4128,2.4182,2.4275,2.4569,2.4609,2.4609,2.4636,2.4636,2.4422,2.3861,2.4035,2.3728,0.0,2.3794,2.4997,2.5852,2.6199,2.6373,2.6386,2.6653,2.6814,2.6827,2.7375,2.7682,2.7682,2.7976,2.811,2.811,2.811,2.811,2.7928,2.542,2.4448,2.4268,2.184,2.0731,2.0721,2.0721,2.0721,2.0356,1.7987,1.6918,1.6734,1.4268,1.339,1.3363,1.322,1.3166,1.3146,1.3003,1.2963,1.2963,1.2963,1.2963,1.2963,1.2963,1.3057,1.3166,1.3166,1.3275,1.339,1.339,1.339,1.3397,1.3397,1.3397,1.3403,1.3403,1.3403,1.3403,1.3403,1.3403,1.3403,1.3403,1.3526,1.3566,1.3417,1.3403,1.3403,1.3403,1.3403,1.3403,1.3403,1.3403,1.3397,1.3397,1.3254,1.3166,1.3159,1.2881,1.2725,1.2725,1.2576,1.2501,1.2501,1.2501,1.2501,1.2501,1.2501,1.2501,0.0,0.0,2.1029,2.1323,2.1924,2.2619,2.3313,2.346,2.3581,2.3981,2.3754,2.3567,2.3861,2.3581,2.3474,2.3981,2.3728,2.3741,2.4529,2.4128,2.3981,2.4569,2.4209,0.0,0.0,0.0,0.0,2.4796,2.5785,2.6466,2.6667,2.6774,2.7001,2.7388,2.7602,2.7789,2.7989,2.8096,2.8136,2.8136,2.8136,2.8136,2.8136,2.7343,2.6955,2.6955,2.5999,2.4831,2.3146,2.1621,2.0864,2.0564,1.8139,1.7281,1.7087,1.6243,1.487,1.3532,1.3376,1.3322,1.3315,1.3268,1.3254,1.3254,1.3254,1.3254,1.3254,1.3254,1.3288,1.3322,1.3322,1.3363,1.3403,1.3403,1.3403,1.3403,1.3403,1.3403,1.3403,1.3403,1.3403,1.3431,1.3532,1.3553,1.3587,1.3682,1.3654,1.3648,1.3688,1.3695,1.3654,1.3559,1.3553,1.3512,1.341,1.3403,1.3403,1.3403,1.3349,1.3275,1.3173,1.299,1.2834,1.2732,1.2576,1.2501,1.2501,1.2501,1.2501,1.2501,1.2501,1.2501,0.0,2.1056,2.2178,2.2311,2.2926,2.3567,2.3861,2.3928,2.4008,2.4302,2.4062,2.3754,2.3634,2.338,2.3273,2.3567,2.338,2.3567,2.4636,2.4302,2.4195,2.485,2.4516,2.4529,0.0,0.0,0.0,2.4703,2.5638,2.6319,2.6507,2.6707,2.7094,2.7682,2.7802,2.7949,2.8136,2.8136,2.8136,2.8136,2.8136,2.8136,2.8136,2.8136,2.7976,2.7682,2.8003,2.7174,2.5219,2.3123,2.2288,2.1811,1.8685,1.7307,1.729,1.6261,1.5034,1.3675,1.3471,1.3403,1.3403,1.3403,1.3403,1.3403,1.3403,1.3403,1.3403,1.3403,1.3403,1.3403,1.3403,1.3403,1.3403,1.3403,1.3403,1.3403,1.3403,1.3444,1.3485,1.3485,1.3526,1.3587,1.3688,1.3702,1.3756,1.3899,1.3844,1.3804,1.3838,1.3838,1.3804,1.3715,1.3661,1.3587,1.3492,1.3431,1.3403,1.3403,1.3403,1.3356,1.3261,1.3112,1.2969,1.2813,1.2664,1.2556,1.2501,1.2501,1.2501,1.2501,1.2501,1.2501,2.1683,2.2231,2.2699,2.3567,2.3794,2.3875,2.4155,2.4222,2.4289,2.4543,2.4556,2.4262,0.0,0.0,2.3527,2.3313,2.35,2.3995,2.4903,2.5037,2.4943,0.0,0.0,0.0,0.0,0.0,0.0,2.5545,0.0,2.6012,2.6039,2.656,2.7134,2.7709,2.7989,2.8136,2.8136,2.8136,2.8136,2.8136,2.8136,2.8136,2.8136,2.8136,2.7682,2.6934,2.7776,2.7669,2.6786,2.524,2.4691,2.4314,1.9628,1.7673,1.7312,1.4922,1.3851,1.381,1.3526,1.3424,1.3424,1.3424,1.3417,1.341,1.341,1.341,1.3403,1.3403,1.3403,1.3403,1.3403,1.3403,1.341,1.341,1.3417,1.3424,1.3424,1.3539,1.3641,1.3641,1.3756,1.3851,1.3851,1.3858,1.3912,1.4061,1.4082,1.4027,1.3885,1.3865,1.3865,1.3851,1.3729,1.3648,1.3634,1.3498,1.341,1.3403,1.3403,1.3403,1.3403,1.3254,1.3112,1.2976,1.2813,1.2657,1.2515,1.2508,1.2501,1.2501,1.2501,1.2501,2.1911,2.2699,2.3527,2.3981,2.4088,2.4168,2.4462,2.4529,2.4422,2.4062,2.3447,2.2779,0.0,0.0,0.0,2.2485,2.2539,0.0,2.4235,2.4422,0.0,2.493,0.0,2.5518,2.5798,2.6226,0.0,0.0,2.6306,2.6787,2.7228,2.7402,2.7642,2.8016,2.8096,2.8136,2.8136,2.8136,2.8136,2.8136,2.8136,2.8136,2.8136,2.8136,2.8016,2.7816,2.8043,2.8016,2.7649,2.564,2.5726,2.6914,2.2021,2.0278,1.9904,1.7484,1.5549,1.3987,1.3797,1.3729,1.3729,1.3729,1.3654,1.3573,1.3573,1.3492,1.3403,1.3403,1.3403,1.3403,1.3403,1.3485,1.3573,1.3573,1.3654,1.3729,1.3729,1.3756,1.3783,1.3783,1.3905,1.4014,1.4014,1.4109,1.4197,1.4238,1.4245,1.4231,1.419,1.4183,1.4136,1.4027,1.398,1.3871,1.3648,1.3593,1.3519,1.341,1.3403,1.3403,1.3403,1.3254,1.3152,1.3119,1.2861,1.2712,1.2671,1.2556,1.2501,1.2501,1.2501,1.2501,2.2846,2.3447,2.4035,2.4329,2.4396,2.4329,2.4115,2.4062,2.3861,2.314,2.2579,0.0,2.1296,2.0869,0.0,0.0,0.0,0.0,2.4209,2.4502,2.4756,0.0,2.5531,0.0,2.652,2.6841,2.6934,0.0,2.6787,2.6961,2.7295,2.7442,2.7696,2.8123,2.8136,2.8136,2.8136,2.8136,2.8136,2.8136,2.8136,2.8136,2.8136,2.8136,2.7936,2.7589,0.0,2.7923,2.7423,2.5579,2.5556,2.6236,2.26,2.0529,1.9479,1.8165,1.6238,1.4156,1.4075,1.4041,1.4021,1.3885,1.3783,1.3722,1.3722,1.3661,1.3593,1.3593,1.3593,1.3593,1.3593,1.3654,1.3722,1.3722,1.3783,1.3838,1.3838,1.3892,1.396,1.4027,1.4116,1.417,1.417,1.4245,1.4299,1.4299,1.4299,1.4299,1.4299,1.4299,1.4265,1.4183,1.4116,1.3973,1.3743,1.3661,1.3566,1.341,1.3403,1.3403,1.3403,1.3315,1.3241,1.3173,1.2949,1.28,1.2732,1.2576,1.2501,1.2501,1.2501,1.2501,2.3941,2.4209,2.4329,2.4569,2.4636,2.4436,2.3674,2.3407,2.3086,2.2218,0.0,2.159,2.0869,2.0909,2.1256,2.1884,0.0,2.3207,2.4195,2.477,2.517,2.5424,2.5758,2.6199,2.6814,2.7081,2.7348,2.7669,2.7268,2.7001,2.7001,2.7241,2.7615,2.8123,2.8136,2.8136,2.8136,2.8136,2.8136,2.8136,2.8136,2.8136,2.8136,2.8136,2.7722,2.7041,2.7802,2.7709,2.6892,2.56,2.5203,2.4861,2.26,2.0529,1.8627,1.8104,1.6553,1.4646,1.4476,1.4299,1.4258,1.3987,1.3885,1.3871,1.3871,1.3858,1.3838,1.3838,1.3838,1.3838,1.3838,1.3858,1.3871,1.3871,1.3885,1.3905,1.3905,1.4007,1.4143,1.4272,1.4299,1.4299,1.4299,1.4299,1.4299,1.4299,1.4299,1.4299,1.4299,1.4299,1.4299,1.4299,1.4183,1.4041,1.3885,1.3743,1.3593,1.3444,1.341,1.3403,1.3403,1.3403,1.3336,1.3207,1.3064,1.2915,1.2759,1.261,1.2522,1.2501,1.2501,1.2501,2.3875,2.4195,2.4569,2.4623,2.4636,2.4596,2.4449,2.3848,0.0,0.0,2.1577,2.0935,2.1015,2.0882,2.1015,2.1857,2.2485,2.2846,2.2806,2.4115,2.5104,0.0,0.0,0.0,0.0,0.0,0.0,0.0,2.7829,2.7909,2.7909,2.7963,2.8043,2.8136,2.8136,2.8136,2.8136,2.8136,2.8136,2.8136,2.8136,2.8136,2.8136,2.8136,2.8056,2.7923,2.8083,0.0,2.7923,2.7733,2.7617,2.7279,2.5032,2.3824,2.2955,1.9141,1.7588,1.6896,1.4992,1.4299,1.4292,1.4238,1.4136,1.4034,1.4034,1.3939,1.3838,1.3838,1.3838,1.3838,1.3838,1.3933,1.4034,1.4034,1.4129,1.4217,1.4217,1.4245,1.4272,1.4292,1.4299,1.4299,1.4299,1.4299,1.4299,1.4299,1.4299,1.4299,1.4299,1.4299,1.4299,1.4299,1.4278,1.4197,1.4048,1.3892,1.3743,1.36,1.3471,1.3403,1.3403,1.3403,1.339,1.3363,1.3214,1.3064,1.2922,1.2766,1.2623,1.2501,1.2501,1.2501,2.3888,2.4195,2.4636,2.4636,2.4636,2.4396,2.346,0.0,0.0,0.0,2.0388,2.004,2.0174,1.996,0.0,2.1937,2.2445,2.2899,2.3688,2.4676,0.0,2.5518,2.5919,2.64,0.0,0.0,0.0,2.7455,2.7602,2.7816,2.8123,2.8136,2.8136,2.8136,2.8136,2.8136,2.8136,2.8136,2.8136,2.8136,2.8136,2.8136,2.8136,2.8136,2.8136,2.8136,2.8136,0.0,2.7495,2.7949,2.7869,2.733,2.6761,2.5726,2.4508,2.2267,1.9836,1.7588,1.6553,1.5344,1.4299,1.4299,1.4251,1.419,1.419,1.4136,1.4082,1.4082,1.4082,1.4082,1.4082,1.4136,1.419,1.419,1.4245,1.4299,1.4299,1.4299,1.4299,1.4299,1.4299,1.4299,1.4299,1.4299,1.4299,1.4299,1.4299,1.4299,1.4299,1.4299,1.4299,1.4299,1.4299,1.4238,1.4082,1.3933,1.3783,1.3641,1.3485,1.3403,1.3403,1.3403,1.3403,1.3403,1.3247,1.3105,1.2963,1.2807,1.2651,1.2501,1.2501,1.2501,2.4048,2.4289,2.4636,2.4636,2.4636,2.4222,2.2632,2.2124,0.0,0.0,1.9492,1.9426,1.9613,0.0,1.9987,0.0,2.2311,2.2832,2.4556,2.4997,2.5371,0.0,2.6253,0.0,2.7054,2.7201,0.0,2.7442,2.7455,2.7655,2.8123,2.8136,2.8136,2.8136,2.8136,2.8136,2.8136,2.8136,2.8136,2.8136,2.8136,2.8136,2.8136,2.8136,2.8136,2.8136,2.8136,0.0,0.0,2.7776,2.7615,2.6907,2.7802,2.7096,2.5373,2.4861,2.2439,1.915,1.8104,1.6553,1.4992,1.4476,1.4299,1.4299,1.4299,1.4299,1.4299,1.4299,1.4299,1.4299,1.4299,1.4299,1.4299,1.4299,1.4299,1.4299,1.4299,1.4299,1.4299,1.4299,1.4299,1.4299,1.4299,1.4299,1.4299,1.4299,1.4299,1.4299,1.4299,1.4299,1.4299,1.4299,1.4299,1.4251,1.4129,1.3946,1.379,1.3682,1.3505,1.3403,1.3403,1.3403,1.3403,1.3403,1.3281,1.3152,1.301,1.2854,1.2698,1.2549,1.2515,1.2501,2.4422,2.4596,2.4636,2.4636,2.4636,2.4382,2.342,0.0,0.0,2.0748,1.992,1.9613,2.0414,2.0535,0.0,0.0,0.0,2.2164,2.3674,2.3915,2.4529,2.6159,0.0,0.0,2.7909,2.7562,0.0,2.8016,2.8056,2.8083,2.8136,2.8136,2.8136,2.8136,2.8136,2.8136,2.8136,2.8136,2.8136,2.8136,2.8136,2.8136,2.8136,2.8136,2.8136,2.8136,2.8136,2.7642,0.0,2.7776,2.7615,2.6907,2.7802,2.8136,2.763,2.5556,2.4508,2.347,1.9324,1.7588,1.7071,1.4992,1.4299,1.4299,1.4299,1.4299,1.4299,1.4299,1.4299,1.4299,1.4299,1.4299,1.4299,1.4299,1.4299,1.4299,1.4299,1.4299,1.4299,1.4299,1.4299,1.4299,1.4299,1.4299,1.4299,1.4299,1.4299,1.4299,1.4299,1.4299,1.4299,1.4299,1.4299,1.4292,1.4278,1.4007,1.3838,1.3824,1.3559,1.3403,1.3403,1.3403,1.3403,1.3403,1.339,1.3302,1.3152,1.301,1.2861,1.2705,1.2569,1.2501,2.35,2.4088,2.4636,2.4636,2.4636,2.4262,2.2846,0.0,2.159,2.0174,1.9613,1.9479,1.9826,1.9746,0.0,0.0,0.0,0.0,2.3981,2.4289,2.4943,2.6707,2.6921,0.0,0.0,0.0,2.7362,2.7602,2.7615,2.7776,2.8123,2.8136,2.8136,2.8136,2.8136,2.8136,2.8136,2.8136,2.8136,2.8136,2.8136,2.8136,2.8136,2.8136,2.8136,2.8136,2.8136,2.7348,0.0,2.7562,2.7308,2.6172,2.7589,2.8136,2.8136,2.7109,2.5896,2.4166,2.1048,1.8976,1.7413,1.4992,1.4299,1.4299,1.4299,1.4299,1.4299,1.4299,1.4299,1.4299,1.4299,1.4299,1.4299,1.4299,1.4299,1.4299,1.4299,1.4299,1.4299,1.4299,1.4299,1.4299,1.4299,1.4299,1.4299,1.4299,1.4299,1.4299,1.4299,1.4299,1.4299,1.4299,1.4299,1.4265,1.417,1.3966,1.3804,1.3715,1.3519,1.3403,1.3403,1.3403,1.3403,1.3403,1.3403,1.3322,1.3173,1.3119,1.2963,1.2725,1.2664,1.2589,2.2926,2.3794,2.4636,2.4636,2.4436,2.3848,0.0,0.0,2.1176,1.9679,1.9372,1.9372,1.9372,1.9199,1.9533,2.1002,0.0,2.1737,2.4062,2.4382,2.4997,2.668,0.0,2.7054,0.0,2.7522,2.7522,2.7522,2.7522,2.7709,2.8123,2.8136,2.8136,2.8136,2.8136,2.8136,2.8136,2.8136,2.8136,2.8136,2.8136,2.8056,2.7896,2.8056,2.8043,2.7896,2.807,2.7295,0.0,2.7522,2.7255,2.6052,2.7549,2.8136,2.8136,2.8136,2.7109,2.5373,2.2256,2.0183,1.8279,1.5344,1.4299,1.4299,1.4299,1.4299,1.4299,1.4299,1.4299,1.4299,1.4299,1.4299,1.4299,1.4299,1.4299,1.4299,1.4299,1.4299,1.4299,1.4299,1.4299,1.4299,1.4299,1.4299,1.4299,1.4299,1.4299,1.4299,1.4299,1.4299,1.4299,1.4299,1.4258,1.419,1.4082,1.3933,1.3783,1.3641,1.3485,1.3403,1.3403,1.3403,1.3403,1.3403,1.3403,1.3349,1.3241,1.3193,1.3044,1.28,1.2752,1.2651,2.3086,2.3968,2.4636,2.4636,2.3981,2.31,0.0,0.0,2.0441,1.9546,1.9372,1.9372,1.9372,1.9359,1.984,2.1309,2.155,2.2071,2.3567,2.3781,2.4329,0.0,0.0,2.6547,2.7989,2.8136,2.8136,2.8136,2.8136,0.0,2.8136,2.8136,2.8136,2.8136,2.8136,2.8136,2.8136,2.8136,2.8136,2.8136,2.8136,2.7843,2.7295,2.7883,2.7829,2.7308,2.7896,2.7642,0.0,2.7776,2.7615,2.6894,2.7789,2.8136,2.8136,2.8136,2.8136,2.7448,2.2772,2.1221,2.0356,1.5866,1.4299,1.4299,1.4299,1.4299,1.4299,1.4299,1.4299,1.4299,1.4299,1.4299,1.4299,1.4299,1.4299,1.4299,1.4299,1.4299,1.4299,1.4299,1.4299,1.4299,1.4299,1.4299,1.4299,1.4299,1.4299,1.4299,1.4299,1.4299,1.4299,1.4299,1.4163,1.4075,1.4075,1.3933,1.3783,1.3641,1.3485,1.3403,1.3403,1.3403,1.3403,1.3403,1.3403,1.3403,1.3397,1.3247,1.3098,1.2956,1.28,1.2651,2.1336,2.2151,2.2819,2.2819,2.2619,2.2178,2.1296,2.0882,2.0428,1.9546,1.9372,1.9372,1.9372,1.9372,1.9786,2.1042,2.1256,2.1977,0.0,0.0,0.0,2.6653,2.7201,2.7629,0.0,0.0,2.7709,2.811,2.7776,2.7722,2.8123,2.8136,2.8136,2.8136,2.8136,2.8136,2.8136,2.8136,2.8136,2.8136,2.8136,2.7722,2.6987,2.7789,2.7709,2.7001,2.7802,2.7642,0.0,2.7776,2.7615,2.6907,2.7802,2.8136,2.8136,2.8136,2.8136,2.7799,2.4679,2.26,2.0702,1.7588,1.569,1.4299,1.4299,1.4299,1.4299,1.4299,1.4299,1.4299,1.4299,1.4299,1.4299,1.4299,1.4299,1.4299,1.4299,1.4299,1.4299,1.4299,1.4299,1.4299,1.4299,1.4299,1.4299,1.4299,1.4299,1.4299,1.4299,1.4299,1.4299,1.4299,1.4163,1.4027,1.3926,1.3777,1.3634,1.3485,1.3424,1.3403,1.3403,1.3403,1.3403,1.3403,1.3403,1.3403,1.3403,1.3349,1.32,1.2956,1.28,1.2651,2.012,2.1149,2.1991,2.1991,2.1737,2.1349,2.0802,0.0,2.0027,1.9479,1.9626,1.976,1.9426,1.9639,2.0067,2.0681,0.0,0.0,0.0,0.0,0.0,2.6119,0.0,0.0,0.0,2.7816,2.7749,2.811,2.7802,2.7749,2.8123,2.8136,2.8136,2.8136,2.8136,2.8136,2.8136,2.8136,2.8136,2.8136,2.8136,2.7736,2.7014,2.7789,2.7722,2.7028,2.7802,2.7829,0.0,2.7909,2.7816,2.7375,2.7923,2.8136,2.8136,2.8136,2.8136,2.7799,2.5556,2.3824,2.2084,1.9836,1.7588,1.5513,1.4646,1.4299,1.4299,1.4299,1.4299,1.4299,1.4299,1.4299,1.4299,1.4299,1.4299,1.4299,1.4299,1.4299,1.4299,1.4299,1.4299,1.4299,1.4299,1.4299,1.4299,1.4299,1.4299,1.4299,1.4299,1.4299,1.4278,1.4217,1.4075,1.3926,1.3777,1.3682,1.3566,1.341,1.3403,1.3403,1.3403,1.3403,1.3403,1.3403,1.3403,1.3403,1.3403,1.3342,1.322,1.3037,1.2827,1.2678,0.0,2.0668,2.1777,2.179,2.1189,2.0588,2.0588,0.0,0.0,1.9452,2.0107,2.0428,1.9613,2.0174,2.0668,0.0,0.0,0.0,0.0,2.3327,0.0,0.0,2.6253,0.0,2.803,2.8123,2.8136,2.8136,2.8136,2.8136,2.8136,2.8136,2.8136,2.8136,2.8136,2.8136,2.8136,2.8136,2.811,2.8056,2.811,2.7789,2.7161,2.7843,2.7816,0.0,2.7883,2.8136,0.0,2.8136,2.8136,2.8136,2.8136,2.8136,2.8136,2.8136,2.8136,2.7968,2.5726,2.4861,2.4337,2.1739,1.9488,1.7413,1.4992,1.4299,1.4299,1.4299,1.4299,1.4299,1.4299,1.4299,1.4299,1.4299,1.4299,1.4299,1.4299,1.4299,1.4299,1.4299,1.4299,1.4299,1.4299,1.4299,1.4299,1.4299,1.4299,1.4299,1.4299,1.4292,1.4231,1.4089,1.3926,1.377,1.3641,1.362,1.3553,1.341,1.3403,1.3403,1.3403,1.3403,1.3403,1.3403,1.3403,1.3403,1.3403,1.3261,1.3186,1.3166,1.2881,1.2739,1.7756,0.0,1.9693,1.9933,1.9826,1.9679,0.0,0.0,0.0,0.0,0.0,2.0615,2.0401,2.1082,2.1577,0.0,0.0,0.0,2.3394,0.0,0.0,0.0,0.0,0.0,2.7509,2.7883,2.8136,2.8136,2.8136,2.8136,2.8136,2.8136,2.8136,2.8136,2.8136,2.8136,2.8136,2.8136,2.7802,2.7134,2.7816,2.7362,2.5972,2.7468,2.7696,2.6974,2.7789,2.8136,2.8136,2.8136,2.8136,2.8136,2.8136,2.8136,2.8136,2.8136,2.8136,2.8136,2.7617,2.6236,2.3995,2.0009,1.8279,1.7413,1.4992,1.4299,1.4299,1.4299,1.4299,1.4299,1.4299,1.4299,1.4299,1.4299,1.4299,1.4299,1.4299,1.4299,1.4299,1.4299,1.4299,1.4299,1.4299,1.4299,1.4299,1.4299,1.4299,1.4299,1.4299,1.4197,1.4109,1.4075,1.3838,1.3668,1.3634,1.3519,1.3437,1.3403,1.3403,1.3403,1.3403,1.3403,1.3403,1.3403,1.3403,1.3403,1.3403,1.3363,1.3288,1.3166,1.299,1.284,1.7515,1.8223,1.9065,1.9626,1.9559,1.9466,1.988,0.0,0.0,0.0,0.0,2.0508,2.0655,2.1176,0.0,0.0,2.2071,0.0,0.0,0.0,0.0,2.5531,2.66,2.7321,0.0,2.7802,2.8136,2.8136,2.8136,2.8136,2.8136,2.8136,2.8136,2.8136,2.8136,2.8136,2.8136,2.8136,2.7696,2.6827,2.7722,2.7428,2.6159,2.7522,2.7883,2.7428,2.7509,2.7762,2.811,2.7709,2.7776,2.8136,2.8136,2.8136,2.8136,2.8136,2.8136,2.8136,2.8136,2.7448,2.5726,2.2084,2.0183,1.8976,1.6553,1.5168,1.4299,1.4299,1.4299,1.4299,1.4299,1.4299,1.4299,1.4299,1.4299,1.4299,1.4299,1.4299,1.4299,1.4299,1.4299,1.4299,1.4299,1.4299,1.4299,1.4299,1.4299,1.4278,1.4204,1.4122,1.4021,1.3885,1.3722,1.36,1.3532,1.3451,1.3403,1.3403,1.3403,1.3403,1.3403,1.3403,1.3403,1.3403,1.3403,1.3403,1.3403,1.3403,1.3356,1.3275,1.3057,1.2915,1.7742,1.8357,1.9092,2.0054,1.9826,1.9599,2.0481,0.0,0.0,0.0,0.0,0.0,0.0,2.1336,0.0,0.0,0.0,0.0,2.4075,2.5024,2.5585,2.5585,2.6213,0.0,2.7228,2.7802,2.8136,2.8136,2.8136,2.8136,2.8136,2.8136,2.8136,2.8136,2.8136,2.8136,2.8136,2.8136,2.7696,2.6827,2.7722,2.7682,2.6854,2.7736,2.8136,2.8096,0.0,0.0,2.8083,2.7335,2.7468,2.8136,2.8136,2.8136,2.8136,2.8136,2.8136,2.8136,2.8136,2.8136,2.7799,2.5373,2.3126,2.0702,1.8453,1.621,1.4299,1.4299,1.4299,1.4299,1.4299,1.4299,1.4299,1.4299,1.4299,1.4299,1.4299,1.4299,1.4299,1.4299,1.4299,1.4299,1.4299,1.4299,1.4299,1.4299,1.4299,1.4245,1.4089,1.4048,1.3933,1.3654,1.3607,1.3539,1.341,1.3403,1.3403,1.3403,1.3403,1.3403,1.3403,1.3403,1.3403,1.3403,1.3403,1.3403,1.3403,1.3403,1.3403,1.3397,1.3098,1.2963,1.7194,1.7903,1.8891,2.0267,1.9987,1.9599,2.0481,0.0,0.0,0.0,0.0,0.0,0.0,2.326,0.0,0.0,0.0,0.0,0.0,0.0,2.5892,2.5892,0.0,2.7709,2.7308,2.7802,2.8136,2.8136,2.8136,2.8136,2.8136,2.8136,2.8136,2.8136,2.8136,2.8136,2.8136,2.8136,2.7696,2.6827,2.7722,2.7682,2.6854,2.7736,2.8136,2.8136,0.0,2.8016,2.8136,2.7989,2.8016,2.8136,2.8136,2.8136,2.8136,2.8136,2.8136,2.8136,2.8136,2.8136,2.7799,2.5373,2.3126,2.0702,1.8453,1.621,1.4299,1.4299,1.4299,1.4299,1.4299,1.4299,1.4299,1.4299,1.4299,1.4299,1.4299,1.4299,1.4299,1.4299,1.4299,1.4299,1.4299,1.4299,1.4299,1.4299,1.4299,1.4245,1.4089,1.396,1.381,1.3648,1.3512,1.3424,1.3403,1.3403,1.3403,1.3403,1.3403,1.3403,1.3403,1.3403,1.3403,1.3403,1.3403,1.3403,1.3403,1.3403,1.3403,1.3397,1.3098,1.2963,1.7462,1.805,1.8958,2.0895,2.0361,1.9853,2.1683,0.0,0.0,0.0,0.0,0.0,0.0,0.0,0.0,0.0,0.0,0.0,2.5331,2.5838,2.6306,0.0,0.0,2.7562,2.7295,2.7802,2.8136,2.8136,2.8136,2.8136,2.8136,2.8136,2.8136,2.8136,2.8136,2.8136,2.8136,2.8136,2.7696,2.6827,2.7722,2.7682,2.6854,2.7736,2.8136,2.8123,0.0,2.7696,2.811,2.7629,2.7709,2.8136,2.8136,2.8136,2.8136,2.8136,2.8136,2.8136,2.8136,2.8136,2.7968,2.6927,2.4155,2.1048,2.0009,1.7071,1.4299,1.4299,1.4299,1.4299,1.4299,1.4299,1.4299,1.4299,1.4299,1.4299,1.4299,1.4299,1.4299,1.4299,1.4299,1.4299,1.4299,1.4299,1.4299,1.4299,1.4231,1.4122,1.3966,1.3817,1.3668,1.3519,1.3444,1.3403,1.3403,1.3403,1.3403,1.3403,1.3403,1.3403,1.3403,1.3403,1.3403,1.3403,1.3403,1.3403,1.3403,1.3403,1.3403,1.3397,1.3098,1.2963,1.7716,1.821,1.8998,2.1149,0.0,2.0067,2.2726,0.0,0.0,0.0,0.0,0.0,0.0,2.2378,0.0,0.0,0.0,0.0,0.0,2.652,2.6894,2.7415,2.7468,2.7468,2.7468,2.7883,2.8136,2.8136,2.8136,2.8136,2.8136,2.8136,2.8136,2.8136,2.8136,2.8136,2.8136,2.8136,2.7802,2.7134,2.7816,2.7789,2.7161,2.7829,2.8136,2.811,2.7428,2.7522,2.8096,2.7415,2.7535,2.8136,2.8136,2.8136,2.8136,2.8136,2.8136,2.8136,2.8136,2.8136,2.8136,2.8136,2.502,2.1221,2.1221,1.7938,1.4299,1.4299,1.4299,1.4299,1.4299,1.4299,1.4299,1.4299,1.4299,1.4299,1.4299,1.4299,1.4299,1.4299,1.4299,1.4299,1.4299,1.4299,1.4285,1.4251,1.415,1.4007,1.3817,1.3695,1.3573,1.3417,1.3403,1.3403,1.3403,1.3403,1.3403,1.3403,1.3403,1.3403,1.3403,1.3403,1.3403,1.3403,1.3403,1.3403,1.3403,1.3403,1.3403,1.3397,1.3098,1.2963,1.7448,1.805,1.8865,2.0388,2.0067,0.0,2.2726,0.0,0.0,0.0,0.0,0.0,0.0,0.0,2.3915,2.4836,2.5545,2.6266,2.7054,0.0,2.7722,2.8043,2.8083,2.8083,2.8083,2.8123,2.8136,2.8136,2.8136,2.8136,2.8136,2.8136,2.8136,2.8136,2.8136,2.8136,2.8136,2.8136,2.811,2.8043,2.811,2.811,2.8056,2.811,2.8136,2.8136,2.8083,2.8083,2.8136,2.807,2.8083,2.8136,2.8136,2.8136,2.8136,2.8136,2.8136,2.8136,2.8136,2.8136,2.8136,2.8136,2.502,2.1221,2.1221,1.7938,1.4299,1.4299,1.4299,1.4299,1.4299,1.4299,1.4299,1.4299,1.4299,1.4299,1.4299,1.4299,1.4299,1.4299,1.4299,1.4299,1.4299,1.4299,1.4251,1.4109,1.4082,1.3966,1.3682,1.3634,1.3573,1.3417,1.3403,1.3403,1.3403,1.3403,1.3403,1.3403,1.3403,1.3403,1.3403,1.3403,1.3403,1.3403,1.3403,1.3403,1.3403,1.3403,1.3403,1.3397,1.3098,1.2963,1.7475,1.8156,1.9199,2.1029,0.0,0.0,0.0,0.0,0.0,0.0,0.0,0.0,0.0,0.0,2.4756,2.5264,2.5999,2.668,2.7188,2.7509,2.7802,2.811,2.8136,2.8136,2.8136,2.8136,2.8136,2.8136,2.8136,2.8136,2.8136,2.8136,2.8136,2.8136,2.8136,2.8136,2.8136,2.8136,2.8136,2.8136,2.8136,2.8136,2.8136,2.8136,2.8136,2.8136,2.8136,2.8136,2.8136,2.8136,2.8136,2.8136,2.8136,2.8136,2.8136,2.8136,2.8136,2.8136,2.8136,2.8136,2.8136,2.8136,2.502,2.1221,2.1221,1.7938,1.4299,1.4299,1.4299,1.4299,1.4299,1.4299,1.4299,1.4299,1.4299,1.4299,1.4299,1.4299,1.4299,1.4299,1.4299,1.4299,1.4299,1.4224,1.4136,1.4082,1.3912,1.3756,1.3641,1.3546,1.3464,1.341,1.3403,1.3403,1.3403,1.3403,1.3403,1.3403,1.3403,1.3403,1.3403,1.3403,1.3403,1.3403,1.3403,1.3403,1.3403,1.3403,1.3403,1.3397,1.3098,1.2963,1.7742,1.8384,1.9345,0.0,0.0,0.0,0.0,0.0,0.0,0.0,0.0,0.0,0.0,0.0,0.0,0.0,2.6119,2.6827,2.7215,2.7602,2.7909,2.8123,2.8136,2.8136,2.8136,2.8136,2.8136,2.8136,2.8136,2.8136,2.8136,2.8136,2.8136,2.8136,2.8136,2.8136,2.8136,2.8136,2.8136,2.8136,2.8136,2.8136,2.8136,2.8136,2.8136,2.8136,2.8136,2.8136,2.8136,2.8136,2.8136,2.8136,2.8136,2.8136,2.8136,2.8136,2.8136,2.8136,2.8136,2.8136,2.8136,2.8136,2.5543,2.2267,2.2267,1.915,1.5337,1.5337,1.5337,1.5168,1.4476,1.4299,1.4299,1.4299,1.4299,1.4299,1.4299,1.4299,1.4299,1.4299,1.4299,1.4299,1.4299,1.4177,1.4055,1.4007,1.379,1.3614,1.3559,1.3464,1.3403,1.3403,1.3403,1.3403,1.3403,1.3403,1.3403,1.3403,1.3403,1.3403,1.3403,1.3403,1.3403,1.3403,1.3403,1.3403,1.3403,1.3403,1.3403,1.3397,1.3098,1.2963,1.8263,1.8704,1.9212,0.0,0.0,0.0,0.0,0.0,0.0,0.0,0.0,0.0,0.0,0.0,0.0,2.513,2.5825,2.66,2.7188,2.7776,2.8136,2.8136,2.8136,2.8136,2.8136,2.8136,2.8136,2.8136,2.8136,2.8136,2.8136,2.8136,2.8136,2.8136,2.8136,2.8136,2.8136,2.8136,2.8136,2.8136,2.8136,2.8136,2.8136,2.8136,2.8136,2.8136,2.8136,2.8136,2.8136,2.8136,2.8136,2.8136,2.8136,2.8136,2.8136,2.8136,2.8136,2.8136,2.8136,2.8136,2.8136,2.8136,2.6588,2.4691,2.4691,2.1394,1.7755,1.7755,1.7755,1.7247,1.4999,1.4299,1.4299,1.4299,1.4299,1.4299,1.4299,1.4299,1.4299,1.4299,1.4299,1.4299,1.4299,1.417,1.4014,1.3865,1.3715,1.3573,1.3417,1.3403,1.3403,1.3403,1.3403,1.3403,1.3403,1.3403,1.3403,1.3403,1.3403,1.3403,1.3403,1.3403,1.3403,1.3403,1.3403,1.3403,1.3403,1.3403,1.3403,1.3397,1.3098,1.2963,1.9105,1.9319,0.0,0.0,0.0,0.0,0.0,0.0,0.0,0.0,0.0,0.0,0.0,0.0,0.0,2.5745,2.6426,2.7134,2.7522,2.7896,2.8136,2.8136,2.8136,2.8136,2.8136,2.8136,2.8136,2.8136,2.8136,2.8136,2.8136,2.8136,2.8136,2.8136,2.8136,2.8136,2.8136,2.8136,2.8136,2.8136,2.8136,2.8136,2.8136,2.8136,2.8136,2.8136,2.8136,2.8136,2.8136,2.8136,2.8136,2.8136,2.8136,2.8136,2.8136,2.8136,2.8136,2.8136,2.8136,2.8136,2.8136,2.8136,2.6588,2.4691,2.4691,2.2611,2.0183,2.0183,2.0183,1.9662,1.7413,1.6721,1.6378,1.4646,1.4299,1.4299,1.4299,1.4299,1.4299,1.4299,1.4211,1.4143,1.4143,1.3926,1.3743,1.3695,1.3566,1.3451,1.3403,1.3403,1.3403,1.3403,1.3403,1.3403,1.3403,1.3403,1.3403,1.3403,1.3403,1.3403,1.3403,1.3403,1.3403,1.3403,1.3403,1.3403,1.3403,1.3403,1.3403,1.3397,1.3098,1.2963,1.9893,2.0027,0.0,0.0,0.0,0.0,0.0,0.0,0.0,0.0,0.0,0.0,0.0,2.5999,0.0,2.6333,2.6934,2.7495,2.7669,2.7949,2.8136,2.8136,2.8136,2.8136,2.8136,2.8136,2.8136,2.8136,2.8136,2.8136,2.8136,2.8136,2.8136,2.8136,2.8136,2.8136,2.8136,2.8136,2.8136,2.8136,2.8136,2.8136,2.8136,2.8136,2.8136,2.8136,2.8136,2.8136,2.8136,2.8136,2.8136,2.8136,2.8136,2.8136,2.8136,2.8136,2.8136,2.8136,2.8136,2.8136,2.8136,2.8136,2.7279,2.6066,2.6066,2.4508,2.2611,2.2611,2.2611,2.1911,1.8627,1.8453,1.8279,1.4992,1.4299,1.4299,1.4299,1.4299,1.4285,1.4224,1.4136,1.4055,1.3987,1.3783,1.3627,1.3627,1.3498,1.3403,1.3403,1.3403,1.3403,1.3403,1.3403,1.3403,1.3403,1.3403,1.3403,1.3403,1.3403,1.3403,1.3403,1.3403,1.3403,1.3403,1.3403,1.3403,1.3403,1.3403,1.3403,1.3397,1.3098,1.2963,2.0615,0.0,0.0,0.0,0.0,0.0,0.0,0.0,0.0,0.0,0.0,2.6333,2.6413,2.664,2.6841,2.6894,2.7348,2.7709,2.7736,2.7976,2.8136,2.8136,2.8136,2.8136,2.8136,2.8136,2.8136,2.8136,2.8136,2.8136,2.8136,2.8136,2.8136,2.8136,2.8136,2.8136,2.8136,2.8136,2.8136,2.8136,2.8136,2.8136,2.8136,2.8136,2.8136,2.8136,2.8136,2.8136,2.8136,2.8136,2.8136,2.8136,2.8136,2.8136,2.8136,2.8136,2.8136,2.8136,2.8136,2.8136,2.8136,2.8136,2.8136,2.8136,2.8136,2.6758,2.5032,2.5032,2.5032,2.3995,1.9662,1.9836,2.0009,1.569,1.4476,1.4299,1.4299,1.4292,1.4238,1.4095,1.4048,1.3987,1.3844,1.3702,1.3607,1.3607,1.3492,1.3403,1.3403,1.3403,1.3403,1.3403,1.3403,1.3403,1.3403,1.3403,1.3403,1.3403,1.3403,1.3403,1.3403,1.3403,1.3403,1.3403,1.3403,1.3403,1.3403,1.3403,1.3403,1.3397,1.3098,1.2963,2.1349,2.1363,0.0,0.0,2.1911,2.2806,2.4997,2.5358,2.5438,2.6146,2.5972,2.5919,2.66,2.6774,2.6974,2.7442,2.7615,2.7776,2.8016,2.8096,2.8136,2.8136,2.8136,2.8136,2.8136,2.8136,2.8136,2.8136,2.8136,2.8136,2.8136,2.8136,2.8136,2.8136,2.8136,2.8136,2.8136,2.8136,2.8136,2.8136,2.8136,2.8136,2.8136,2.8136,2.8136,2.8136,2.8136,2.8136,2.8136,2.8136,2.8136,2.8136,2.8136,2.8136,2.8136,2.8136,2.8136,2.8136,2.8136,2.8136,2.8136,2.8136,2.8136,2.8136,2.8136,2.7799,2.7448,2.7448,2.7448,2.6758,2.3995,2.2256,2.0529,1.7763,1.569,1.4299,1.4299,1.4204,1.4109,1.4082,1.3885,1.3715,1.3682,1.3553,1.3451,1.3451,1.3424,1.3403,1.3403,1.3403,1.3403,1.3403,1.3403,1.3403,1.3403,1.3403,1.3403,1.3403,1.3403,1.3403,1.3403,1.3403,1.3403,1.3403,1.3403,1.3403,1.3403,1.3403,1.3403,1.3397,1.3098,1.2963,2.1109,0.0,0.0,2.2592,0.0,2.4222,2.5464,2.5838,2.6026,2.6333,2.6253,2.6279,2.6734,2.7054,2.7335,2.7642,2.7816,2.7963,2.8123,2.8136,2.8136,2.8136,2.8136,2.8136,2.8136,2.8136,2.8136,2.8136,2.8136,2.8136,2.8136,2.8136,2.8136,2.8136,2.8136,2.8136,2.8136,2.8136,2.8136,2.8136,2.8136,2.8136,2.8136,2.8136,2.8136,2.8136,2.8136,2.8136,2.8136,2.8136,2.8136,2.8136,2.8136,2.8136,2.8136,2.8136,2.8136,2.8136,2.8136,2.8136,2.8136,2.8136,2.8136,2.8136,2.8136,2.8136,2.8136,2.8136,2.8136,2.7617,2.5373,2.2955,2.0673,1.8165,1.5912,1.419,1.419,1.4068,1.3939,1.3871,1.3736,1.3607,1.3532,1.3451,1.3403,1.3403,1.3403,1.3403,1.3403,1.3403,1.3403,1.3403,1.3403,1.3403,1.3403,1.3403,1.3403,1.3403,1.3403,1.3403,1.3403,1.3403,1.3403,1.3403,1.3403,1.3403,1.3403,1.3403,1.3363,1.3288,1.3064,1.2922,2.0521,0.0,2.2472,2.4209,2.493,0.0,2.5598,2.5959,2.6266,2.6373,2.6613,2.6841,2.6894,2.7335,2.7722,2.7762,2.7989,2.8136,2.8136,2.8136,2.8136,2.8136,2.8136,2.8136,2.8136,2.8136,2.8136,2.8136,2.8136,2.8136,2.8136,2.8136,2.8136,2.8136,2.8136,2.8136,2.8136,2.8136,2.8136,2.8136,2.8136,2.8136,2.8136,2.8136,2.8136,2.8136,2.8136,2.8136,2.8136,2.8136,2.8136,2.8136,2.8136,2.8136,2.8136,2.8136,2.8136,2.8136,2.8136,2.8136,2.8136,2.8136,2.8136,2.8136,2.8136,2.8136,2.8136,2.8136,2.8136,2.7786,2.5665,2.3232,2.0594,1.8506,1.6058,1.4,1.4027,1.3912,1.377,1.3654,1.3607,1.3553,1.3424,1.3403,1.3403,1.3403,1.3403,1.3403,1.3403,1.3403,1.3403,1.3403,1.3403,1.3403,1.3403,1.3403,1.3403,1.3403,1.3403,1.3403,1.3403,1.3403,1.3403,1.3403,1.3403,1.3403,1.3403,1.3403,1.3322,1.3166,1.3024,1.2874,0.0,0.0,2.2726,0.0,2.4315,2.4409,0.0,0.0,2.5772,0.0,2.6613,2.6894,2.7161,2.7482,2.7789,2.8043,2.8123,2.8136,2.8136,2.8136,2.8136,2.8136,2.8136,2.8136,2.8136,2.8136,2.8136,2.8136,2.8136,2.8136,2.8136,2.8136,2.8136,2.8136,2.8136,2.8136,2.8136,2.8136,2.8136,2.8136,2.8136,2.8136,2.8136,2.8136,2.8136,2.8136,2.8136,2.8136,2.8136,2.8136,2.8136,2.8136,2.8136,2.8136,2.8136,2.8136,2.8136,2.8136,2.8136,2.8136,2.8136,2.8136,2.8136,2.8136,2.8136,2.8136,2.8136,2.8136,2.8136,2.8083,2.7482,2.417,2.0867,2.0318,1.6792,1.3722,1.3844,1.3756,1.3654,1.3634,1.3519,1.3424,1.3403,1.3403,1.3403,1.3403,1.3403,1.3403,1.3403,1.3403,1.3403,1.3403,1.3403,1.3403,1.3403,1.3403,1.3403,1.3403,1.3403,1.3403,1.3403,1.3403,1.3403,1.3403,1.3403,1.3403,1.3403,1.3403,1.3322,1.3166,1.3024,1.2874,2.0828,2.1323,2.2031,0.0,2.4315,2.4022,2.5959,2.5932,2.5678,2.6266,2.6747,2.7108,2.7241,2.7642,2.7989,2.8123,2.8136,2.8136,2.8136,2.8136,2.8136,2.8136,2.8136,2.8136,2.8136,2.8136,2.8136,2.8136,2.8136,2.8136,2.8136,2.8136,2.8136,2.8136,2.8136,2.8136,2.8136,2.8136,2.8136,2.8136,2.8136,2.8136,2.8136,2.8136,2.8136,2.8136,2.8136,2.8136,2.8136,2.8136,2.8136,2.8136,2.8136,2.8136,2.8136,2.8136,2.8136,2.8136,2.8136,2.8136,2.8136,2.8136,2.8136,2.8136,2.8136,2.8136,2.8136,2.8136,2.803,2.7869,2.7736,2.4174,2.0645,2.0433,1.6994,1.362,1.36,1.3546,1.3498,1.3498,1.3444,1.3403,1.3403,1.3403,1.3403,1.3403,1.3403,1.3403,1.3403,1.3403,1.3403,1.3403,1.3403,1.3403,1.3403,1.3403,1.3403,1.3403,1.3403,1.3403,1.3403,1.3403,1.3403,1.3403,1.3403,1.3403,1.3403,1.3315,1.32,1.3051,1.2901,1.2745,0.0,0.0,2.1349,2.4142,2.3968,2.3581,0.0,0.0,2.5451,0.0,2.676,2.7268,2.7268,2.7749,2.8136,2.8136,2.8136,2.8136,2.8136,2.8136,2.8136,2.8136,2.8136,2.8136,2.8136,2.8136,2.8136,2.8136,2.8136,2.8136,2.8136,2.8136,2.8136,2.8136,2.8136,2.8136,2.8136,2.8136,2.8136,2.8136,2.8136,2.8136,2.8136,2.8136,2.8136,2.8136,2.8136,2.8136,2.8136,2.8136,2.8136,2.8136,2.8136,2.8136,2.8136,2.8136,2.8136,2.8136,2.8136,2.8136,2.8136,2.8136,2.8136,2.8136,2.8136,2.8096,2.803,2.803,2.7816,2.7575,2.7495,2.3951,2.0422,2.02,1.6867,1.3539,1.3424,1.3403,1.3403,1.3403,1.3403,1.3403,1.3403,1.3403,1.3403,1.3403,1.3403,1.3403,1.3403,1.3403,1.3403,1.3403,1.3403,1.3403,1.3403,1.3403,1.3403,1.3403,1.3403,1.3403,1.3403,1.3403,1.3403,1.3403,1.3403,1.3383,1.3342,1.3227,1.3078,1.2901,1.2786,1.2651,0.0,2.0708,0.0,2.2605,2.2726,2.2792,0.0,0.0,2.485,2.5438,2.6466,2.7268,2.7268,2.7749,2.8136,2.8136,2.8136,2.8136,2.8136,2.8136,2.8136,2.8136,2.8136,2.8136,2.8136,2.8136,2.8136,2.8136,2.8136,2.8136,2.8136,2.8136,2.8136,2.8136,2.8136,2.8136,2.8136,2.8136,2.8136,2.8136,2.8136,2.8136,2.8136,2.8136,2.8136,2.8136,2.8136,2.8136,2.8136,2.8136,2.8136,2.8136,2.8136,2.8136,2.8136,2.8136,2.8136,2.8136,2.8136,2.8136,2.8136,2.8136,2.8136,2.8136,2.8136,2.7949,2.7722,2.7722,2.7509,2.7228,2.6934,2.3551,2.02,1.9978,1.6508,1.341,1.3403,1.3403,1.3403,1.3403,1.3403,1.3403,1.3403,1.3403,1.3403,1.3403,1.3403,1.3403,1.3403,1.3403,1.3403,1.3403,1.3403,1.3403,1.3403,1.3403,1.3403,1.3403,1.3403,1.3403,1.3403,1.3403,1.3403,1.3403,1.3403,1.3329,1.3186,1.3173,1.3024,1.2745,1.2732,1.2651,0.0,0.0,0.0,2.2352,2.2071,2.1804,2.3754,2.4289,2.4476,2.4863,2.6186,2.7148,2.6774,2.7495,2.8136,2.8136,2.8136,2.8136,2.8136,2.8136,2.8136,2.8136,2.8136,2.8136,2.8136,2.8136,2.8136,2.8136,2.7789,2.7749,2.8123,2.7789,2.7749,2.8136,2.8136,2.8136,2.8136,2.8136,2.8136,2.8136,2.8136,2.8136,2.8136,2.8136,2.8136,2.8136,2.8136,2.8136,2.8136,2.8136,2.8136,2.8136,2.8136,2.8136,2.8136,2.8136,2.8136,2.8136,2.8136,2.8136,2.811,2.7923,2.7856,2.7816,2.7642,2.7509,2.7415,2.7415,2.7215,2.6961,2.6854,2.3399,1.9356,1.6353,1.4541,1.3403,1.3403,1.3403,1.3403,1.3403,1.3403,1.3403,1.3403,1.3403,1.3403,1.3403,1.3403,1.3403,1.3403,1.3403,1.3403,1.3403,1.3403,1.3403,1.3403,1.3403,1.3403,1.3403,1.3403,1.3403,1.3403,1.3403,1.3403,1.3403,1.3302,1.3227,1.3173,1.3078,1.2929,1.2725,1.263,1.2556,2.0027,0.0,0.0,0.0,2.1323,2.1162,2.3033,2.3848,2.4289,2.4569,2.5959,2.7028,2.6734,2.7402,2.803,2.8123,2.8136,2.8136,2.8136,2.8136,2.8136,2.8136,2.8136,2.8136,2.8136,2.8136,2.8136,2.8136,2.7776,0.0,2.8123,2.7776,2.7736,2.8136,2.8136,2.8136,2.8136,2.8136,2.8136,2.8136,2.8136,2.8136,2.8136,2.8136,2.8136,2.8136,2.8136,2.8136,2.8136,2.8136,2.8136,2.8136,2.8136,2.8136,2.8136,2.8136,2.8136,2.8136,2.8136,2.8083,2.7963,2.7762,2.7629,2.7522,2.7321,2.7201,2.7121,2.7121,2.6907,2.668,2.668,2.3269,1.877,1.4383,1.3403,1.3403,1.3403,1.3403,1.3403,1.3403,1.3403,1.3403,1.3403,1.3403,1.3403,1.3403,1.3403,1.3403,1.3403,1.3403,1.3403,1.3403,1.3403,1.3403,1.3403,1.3403,1.3403,1.3403,1.3403,1.3403,1.3403,1.3403,1.3403,1.3403,1.3247,1.3152,1.3105,1.2956,1.2807,1.2651,1.2549,1.2501,0.0,0.0,0.0,0.0,2.0441,2.0895,2.1764,2.31,2.4249,2.4543,2.5772,2.6881,2.7175,2.7482,2.7789,2.8083,2.8136,2.8136,2.8136,2.8136,2.8136,2.8136,2.8136,2.8136,2.8136,2.8136,2.8136,2.8136,2.8123,2.8123,2.8136,2.8136,2.8136,2.8136,2.8136,2.8136,2.8136,2.8136,2.8136,2.8136,2.8136,2.8136,2.8136,2.8136,2.8136,2.8136,2.8136,2.8136,2.8136,2.8136,2.8136,2.8136,2.8136,2.8136,2.8136,2.8136,2.8136,2.8123,2.8123,2.7936,2.7682,2.7682,2.7482,2.7255,2.7241,2.7041,2.6814,2.6814,2.66,2.6386,2.6228,2.298,1.877,1.4383,1.3403,1.3403,1.3403,1.3403,1.3403,1.3403,1.3403,1.3403,1.3403,1.3403,1.3403,1.3403,1.3403,1.3403,1.3403,1.3403,1.3403,1.3403,1.3403,1.3403,1.3403,1.3403,1.3403,1.3403,1.3403,1.3403,1.3403,1.3403,1.3397,1.3397,1.3247,1.3098,1.2956,1.28,1.2651,1.2501,1.2501,1.2501,1.9372,0.0,0.0,0.0,0.0,0.0,2.1203,2.2325,2.3327,2.3621,2.5024,2.6226,2.6306,2.6907,2.7482,2.7776,2.8003,2.8136,2.8136,2.8136,2.8136,2.8136,2.8136,2.8136,2.8136,2.8136,2.8136,0.0,2.7749,2.7696,2.8123,2.8136,2.8136,2.8136,2.8136,2.8136,2.8136,2.8136,2.8136,2.8136,2.8136,2.8136,2.8136,2.8136,2.8136,2.8136,2.8136,2.8136,2.8136,2.8136,2.8136,2.8136,2.8136,2.8136,2.8136,2.8136,2.8003,2.7816,2.7816,2.7629,2.7348,2.7134,2.7014,2.6907,2.6694,2.6573,2.6507,2.6507,2.6453,2.574,2.2499,1.9572,1.6811,1.4052,1.3403,1.3403,1.3403,1.3403,1.3403,1.3403,1.3403,1.3403,1.3403,1.3403,1.3403,1.3403,1.3403,1.3403,1.3403,1.3403,1.3403,1.3403,1.3403,1.3403,1.3403,1.3403,1.3403,1.3403,1.3403,1.3403,1.3403,1.3403,1.3349,1.3241,1.3091,1.2942,1.2793,1.2752,1.2651,1.2501,1.2501,1.2501,0.0,0.0,0.0,0.0,0.0,0.0,2.1136,2.2298,2.3327,2.3634,2.4997,2.6066,2.5812,2.6293,2.6774,2.6947,2.7215,2.7589,2.807,2.8136,2.8136,2.8136,2.8136,2.8136,2.8136,2.8136,2.8136,2.8136,2.7829,2.7776,2.8123,2.8136,2.8136,2.8136,2.8136,2.8136,2.8136,2.8136,2.8136,2.8136,2.8136,2.8136,2.8136,2.8136,2.8136,2.8136,2.8136,2.8136,2.8136,2.8136,2.8136,2.8136,2.8136,2.807,2.7963,2.7963,2.7776,2.7522,2.7522,2.7321,2.7054,2.6881,2.6734,2.6613,2.644,2.6386,2.6386,2.6386,2.574,2.4271,2.0716,1.8281,1.5999,1.3887,1.3403,1.3403,1.3403,1.3403,1.3403,1.3403,1.3403,1.3403,1.3403,1.3403,1.3403,1.3403,1.3403,1.3403,1.3403,1.3403,1.3403,1.3403,1.3403,1.3403,1.3403,1.3403,1.3403,1.3403,1.3403,1.3403,1.3403,1.3342,1.3261,1.3173,1.2969,1.2786,1.2637,1.2637,1.2589,1.2501,1.2501,1.2501,0.0,0.0,0.0,0.0,0.0,0.0,2.1269,2.2525,2.3621,2.3941,2.5064,2.5852,2.5411,2.5531,2.5718,2.5758,2.5985,2.6573,2.7776,2.8003,2.803,2.8003,2.8056,2.811,2.8136,2.8136,2.8136,2.8136,2.8136,2.8136,2.8136,2.8136,2.8136,2.8136,2.8136,2.8136,2.8136,2.8136,2.8136,2.8136,2.8136,2.8136,2.8136,2.8136,2.8136,2.8136,2.8136,2.8136,2.8136,2.8136,2.8136,2.8136,2.811,2.7936,2.7696,2.7669,2.7468,2.7215,2.7215,2.7028,2.6774,2.6774,2.66,2.6386,2.6386,2.6386,2.6386,2.6386,2.4761,2.2659,2.0393,1.8281,1.5999,1.3887,1.3403,1.3403,1.3403,1.3403,1.3403,1.3403,1.3403,1.3403,1.3403,1.3403,1.3403,1.3403,1.3403,1.3403,1.3403,1.3403,1.3403,1.3403,1.3403,1.3403,1.3403,1.3403,1.3403,1.3403,1.3403,1.3403,1.3403,1.3254,1.3166,1.3152,1.2854,1.2637,1.2501,1.2501,1.2501,1.2501,1.2501,1.2501,0.0,0.0,0.0,0.0,0.0,0.0,2.0748,2.1443,2.2138,2.2659,2.318,2.3661,2.4048,2.4155,2.4275,2.4502,2.4596,2.5117,2.6533,2.7134,2.7348,2.7108,2.7495,2.7883,2.8123,2.8136,2.8136,2.8136,2.8136,2.8136,2.8136,2.8136,2.8136,2.8136,2.8136,2.8136,2.8136,2.8136,2.8136,2.8136,2.8136,2.8136,2.8136,2.8136,2.8136,2.8136,2.8136,2.8136,2.8136,2.8136,2.8136,2.8123,2.7883,2.7749,2.7669,2.7442,2.7161,2.6907,2.6907,2.672,2.6466,2.6466,2.644,2.6386,2.6386,2.6386,2.6386,2.6386,2.4761,2.2659,2.0393,1.8281,1.5999,1.3887,1.3403,1.3403,1.3403,1.3403,1.3403,1.3403,1.3403,1.3403,1.3403,1.3403,1.3403,1.3403,1.3403,1.3403,1.3403,1.3403,1.3403,1.3403,1.3403,1.3403,1.3403,1.3403,1.3403,1.3403,1.3403,1.3403,1.3403,1.3254,1.3119,1.3003,1.2705,1.2528,1.2501,1.2501,1.2501,1.2501,1.2501,1.2501,0.0,0.0,0.0,2.0134,0.0,0.0,0.0,2.1456,2.2071,2.2352,2.2899,2.3273,2.3126,2.322,2.3313,2.3313,2.3434,2.3794,2.4529,2.5772,2.672,2.7014,2.7308,2.7535,2.7696,2.7709,2.7762,2.7909,2.7923,2.7989,2.8136,2.8136,2.8136,2.8136,2.8136,2.8136,2.8136,2.8136,2.8136,2.8136,2.8136,2.8136,2.8136,2.8136,2.8136,2.8136,2.8136,2.8056,2.7923,2.7923,2.7843,2.7709,2.7696,2.7522,2.7241,2.7094,2.6854,2.66,2.66,2.6507,2.6386,2.6386,2.6386,2.6386,2.6386,2.6386,2.6386,2.6386,2.4761,2.2659,2.0393,1.8281,1.5999,1.3887,1.3403,1.3403,1.3403,1.3403,1.3403,1.3403,1.3403,1.3403,1.3403,1.3403,1.3403,1.3403,1.3403,1.3403,1.3403,1.3403,1.3403,1.3403,1.3403,1.3403,1.3403,1.3403,1.3403,1.3403,1.3403,1.3403,1.3403,1.3186,1.2963,1.2739,1.2583,1.2501,1.2501,1.2501,1.2501,1.2501,1.2501,1.2501,0.0,0.0,0.0,0.0,0.0,2.0748,0.0,0.0,0.0,2.2164,2.2752,2.3033,2.2298,2.2365,2.2432,2.2138,2.2325,2.2565,2.2672,2.4182,2.5585,2.6413,2.66,2.6694,2.676,2.6907,2.7188,2.7589,2.7615,2.7749,2.8043,2.8056,2.8083,2.8136,2.8136,2.8136,2.8136,2.8136,2.8136,2.8136,2.8136,2.8136,2.8136,2.8136,2.8136,2.8136,2.8083,2.7923,2.7696,2.7642,2.7442,2.7201,2.7442,2.7241,2.6814,2.676,2.6587,2.6386,2.6386,2.6386,2.6386,2.6386,2.6386,2.6386,2.6386,2.6386,2.6386,2.5898,2.4442,2.2487,1.9907,1.7955,1.5999,1.3887,1.3403,1.3403,1.3403,1.3403,1.3403,1.3403,1.3403,1.3403,1.3403,1.3403,1.3403,1.3403,1.3403,1.3403,1.3403,1.3403,1.3403,1.3403,1.3403,1.3403,1.3403,1.3403,1.3403,1.3403,1.3403,1.339,1.3356,1.3071,1.2786,1.2508,1.2501,1.2501,1.2501,1.2501,1.2501,1.2501,1.2501,1.2501,0.0,0.0,0.0,0.0,2.0681,0.0,0.0,0.0,2.1256,2.1256,0.0,2.1376,0.0,0.0,0.0,2.0922,2.1122,2.1483,2.2017,2.2512,2.306,2.3701,2.4235,2.4649,2.4903,2.5638,2.644,2.7255,2.7321,2.7442,2.7736,2.7749,2.7869,2.8136,2.8136,2.8136,2.8136,2.8136,2.8136,2.8136,2.8136,2.8136,2.8136,2.8136,2.8136,2.8123,2.7869,2.7722,2.7682,2.7415,2.7134,2.6881,2.6907,2.6881,2.6787,2.6533,2.6413,2.6386,2.6386,2.6386,2.6386,2.6386,2.6386,2.6386,2.6386,2.6386,2.6056,2.3952,2.33,2.2166,1.8109,1.6811,1.5999,1.3887,1.3403,1.3403,1.3403,1.3403,1.3403,1.3403,1.3403,1.3403,1.3403,1.3403,1.3403,1.3403,1.3403,1.3403,1.3403,1.3403,1.3403,1.3403,1.3403,1.3403,1.3403,1.3403,1.3403,1.3403,1.3403,1.3342,1.3207,1.2915,1.2678,1.2508,1.2501,1.2501,1.2501,1.2501,1.2501,1.2501,1.2501,1.2501,0.0,0.0,0.0,0.0,0.0,0.0,0.0,0.0,2.1109,0.0,0.0,0.0,0.0,0.0,0.0,0.0,2.1029,2.1203,2.1443,2.1577,2.2138,2.3434,2.3808,0.0,2.4836,2.477,2.5117,2.6172,2.6253,2.6373,2.6667,2.7175,2.7575,2.7883,2.7883,2.7963,2.8136,2.8136,2.8136,2.8136,2.8136,2.8136,2.8136,2.8136,2.8043,2.7883,2.7749,2.7509,2.7175,2.7054,2.6841,2.6573,2.6573,2.6573,2.656,2.6426,2.6386,2.6386,2.6386,2.6386,2.6386,2.6386,2.6386,2.6386,2.6386,2.6386,2.5898,2.3792,2.314,2.2166,1.7783,1.6647,1.5999,1.3887,1.3403,1.3403,1.3403,1.3403,1.3403,1.3403,1.3403,1.3403,1.3403,1.3403,1.3403,1.3403,1.3403,1.3403,1.3403,1.3403,1.3403,1.3403,1.3403,1.3403,1.3403,1.3403,1.3403,1.3403,1.3315,1.32,1.3057,1.284,1.2657,1.2508,1.2501,1.2501,1.2501,1.2501,1.2501,1.2501,1.2501,1.2501,2.2298,0.0,0.0,0.0,0.0,0.0,0.0,0.0,0.0,0.0,0.0,0.0,0.0,0.0,0.0,0.0,0.0,2.1056,2.0895,2.0935,2.147,2.2766,2.314,0.0,0.0,2.3901,2.4088,2.4863,2.5211,2.5518,2.5825,2.6667,2.7281,2.7575,2.7575,2.7722,2.8016,2.8016,2.8056,2.8136,2.8136,2.8096,2.8016,2.8016,2.7856,2.7575,2.7495,2.7215,2.6814,2.6734,2.6587,2.6386,2.6386,2.6386,2.6386,2.6386,2.6386,2.6386,2.6386,2.6386,2.6386,2.6386,2.6386,2.6386,2.6386,2.6386,2.5898,2.298,2.2659,2.2006,1.6975,1.6164,1.5999,1.3887,1.3403,1.3403,1.3403,1.3403,1.3403,1.3403,1.3403,1.3403,1.3403,1.3403,1.3403,1.3403,1.3403,1.3403,1.3403,1.3403,1.3403,1.3403,1.3403,1.3403,1.3403,1.3403,1.3383,1.3342,1.32,1.3051,1.2901,1.2752,1.2617,1.2501,1.2501,1.2501,1.2501,1.2501,1.2501,1.2501,1.2501,1.2501,0.0,0.0,0.0,2.2632,0.0,0.0,0.0,0.0,2.1109,0.0,0.0,0.0,0.0,0.0,0.0,0.0,0.0,0.0,0.0,2.0508,2.0708,2.0762,2.1523,0.0,0.0,2.2939,2.3661,0.0,2.4449,2.5224,2.5518,2.636,2.6974,2.7268,2.7281,2.7415,2.7709,2.7709,2.7856,2.8136,2.8136,2.7989,2.7709,2.7709,2.7549,2.7268,2.6974,2.6841,2.68,2.652,2.64,2.6386,2.6386,2.6386,2.6386,2.6386,2.6386,2.6386,2.6386,2.6386,2.6386,2.6386,2.6386,2.6386,2.6386,2.6386,2.5581,2.12,2.1523,2.1684,1.5193,1.5028,1.5999,1.3887,1.3403,1.3403,1.3403,1.3403,1.3403,1.3403,1.3403,1.3403,1.3403,1.3403,1.3403,1.3403,1.3403,1.3403,1.3403,1.3403,1.3403,1.3403,1.3403,1.3403,1.3403,1.3403,1.3336,1.3186,1.3044,1.2901,1.2745,1.2589,1.2508,1.2501,1.2501,1.2501,1.2501,1.2501,1.2501,1.2501,1.2501,1.2501,0.0,0.0,2.4569,2.4262,0.0,0.0,0.0,0.0,0.0,0.0,0.0,0.0,0.0,0.0,0.0,0.0,0.0,0.0,0.0,0.0,1.9813,1.9813,2.0414,0.0,0.0,0.0,0.0,0.0,2.3086,0.0,2.346,2.4863,2.5798,2.6092,2.6667,2.7108,2.7415,2.7415,2.7455,2.7562,2.7562,2.7509,2.7415,2.7415,2.7255,2.6961,2.6867,2.6707,2.6533,2.6426,2.6386,2.6386,2.6386,2.6386,2.6386,2.6386,2.6386,2.6386,2.6386,2.6386,2.6386,2.6386,2.6386,2.6386,2.6386,2.6386,2.574,2.282,2.2499,2.2327,1.8607,1.7138,1.6483,1.5679,1.4375,1.3403,1.3403,1.3403,1.3403,1.3403,1.3403,1.3403,1.3403,1.3403,1.3403,1.3403,1.3403,1.3403,1.3403,1.3403,1.3403,1.3403,1.3403,1.3403,1.3403,1.3403,1.3336,1.3186,1.3037,1.2895,1.2739,1.2583,1.2501,1.2501,1.2501,1.2501,1.2501,1.2501,1.2501,1.2501,1.2501,1.2501,2.5438,2.5545,0.0,2.5157,2.4649,0.0,2.3848,0.0,0.0,0.0,0.0,0.0,0.0,0.0,0.0,0.0,0.0,0.0,0.0,1.9573,0.0,1.9212,1.9907,0.0,0.0,0.0,0.0,0.0,0.0,0.0,0.0,2.4115,2.517,2.5358,2.6213,2.6814,2.7108,2.7108,2.7161,2.7268,2.7268,2.7215,2.7108,2.7108,2.6947,2.6667,2.6667,2.656,2.6386,2.6386,2.6386,2.6386,2.6386,2.6386,2.6386,2.6386,2.6386,2.6386,2.6386,2.6386,2.6386,2.6386,2.6386,2.6386,2.6386,2.6386,2.5951,2.4009,2.3776,2.3508,1.9935,1.8383,1.7302,1.5835,1.4375,1.3403,1.3403,1.3403,1.3403,1.3403,1.3403,1.3403,1.3403,1.3403,1.3403,1.3403,1.3403,1.3403,1.3403,1.3403,1.3403,1.3403,1.3403,1.3403,1.3403,1.3349,1.3254,1.3105,1.2963,1.2813,1.2657,1.2556,1.2576,1.2739,1.2583,1.2583,1.2739,1.2576,1.2501,1.2501,1.2501,1.2501]}]]